<?xml version="1.0" encoding="UTF-8" standalone="no" ?>
<gpx xmlns="http://www.topografix.com/GPX/1/1" xmlns:xsi="http://www.w3.org/2001/XMLSchema-instance" xsi:schemaLocation="http://www.topografix.com/GPX/1/1 http://www.topografix.com/GPX/1/1/gpx.xsd" version="1.1" creator="VisuGPX - https://www.visugpx.com">
  <metadata>
    <name>2022-08-08 17:23:29</name>
  </metadata>
  <trk>
    <name><![CDATA[2022-08-08 17:23:29]]></name>
    <trkseg>
      <trkpt lat="44.33634" lon="3.58773">
        <ele>551.45</ele>
        <time>2022-08-07T13:25:55Z</time>
      </trkpt>
      <trkpt lat="44.33634" lon="3.58771">
        <ele>546.65</ele>
        <time>2022-08-07T13:26:30Z</time>
      </trkpt>
      <trkpt lat="44.33635" lon="3.5877">
        <ele>546.17</ele>
        <time>2022-08-07T13:27:03Z</time>
      </trkpt>
      <trkpt lat="44.33635" lon="3.58771">
        <ele>545.69</ele>
        <time>2022-08-07T13:27:06Z</time>
      </trkpt>
      <trkpt lat="44.33568" lon="3.58885">
        <ele>571.16</ele>
        <time>2022-08-08T05:25:39Z</time>
      </trkpt>
      <trkpt lat="44.33567" lon="3.58862">
        <ele>562.99</ele>
        <time>2022-08-08T05:25:52Z</time>
      </trkpt>
      <trkpt lat="44.33571" lon="3.58839">
        <ele>559.14</ele>
        <time>2022-08-08T05:26:06Z</time>
      </trkpt>
      <trkpt lat="44.33577" lon="3.58819">
        <ele>557.22</ele>
        <time>2022-08-08T05:26:19Z</time>
      </trkpt>
      <trkpt lat="44.33586" lon="3.58788">
        <ele>557.22</ele>
        <time>2022-08-08T05:26:32Z</time>
      </trkpt>
      <trkpt lat="44.33588" lon="3.58766">
        <ele>556.74</ele>
        <time>2022-08-08T05:26:46Z</time>
      </trkpt>
      <trkpt lat="44.33588" lon="3.58745">
        <ele>553.86</ele>
        <time>2022-08-08T05:27:00Z</time>
      </trkpt>
      <trkpt lat="44.33589" lon="3.58721">
        <ele>551.93</ele>
        <time>2022-08-08T05:27:16Z</time>
      </trkpt>
      <trkpt lat="44.33592" lon="3.58692">
        <ele>547.61</ele>
        <time>2022-08-08T05:27:32Z</time>
      </trkpt>
      <trkpt lat="44.33593" lon="3.58668">
        <ele>544.24</ele>
        <time>2022-08-08T05:27:47Z</time>
      </trkpt>
      <trkpt lat="44.33596" lon="3.58644">
        <ele>542.8</ele>
        <time>2022-08-08T05:28:05Z</time>
      </trkpt>
      <trkpt lat="44.33596" lon="3.5864">
        <ele>542.8</ele>
        <time>2022-08-08T05:28:19Z</time>
      </trkpt>
      <trkpt lat="44.33594" lon="3.5864">
        <ele>543.76</ele>
        <time>2022-08-08T05:28:41Z</time>
      </trkpt>
      <trkpt lat="44.33605" lon="3.58636">
        <ele>552.41</ele>
        <time>2022-08-08T05:29:09Z</time>
      </trkpt>
      <trkpt lat="44.33603" lon="3.58637">
        <ele>553.86</ele>
        <time>2022-08-08T05:29:37Z</time>
      </trkpt>
      <trkpt lat="44.33603" lon="3.58636">
        <ele>550.97</ele>
        <time>2022-08-08T05:30:10Z</time>
      </trkpt>
      <trkpt lat="44.33603" lon="3.58638">
        <ele>550.49</ele>
        <time>2022-08-08T05:30:41Z</time>
      </trkpt>
      <trkpt lat="44.33604" lon="3.58636">
        <ele>550.01</ele>
        <time>2022-08-08T05:30:52Z</time>
      </trkpt>
      <trkpt lat="44.33613" lon="3.58632">
        <ele>548.09</ele>
        <time>2022-08-08T05:31:06Z</time>
      </trkpt>
      <trkpt lat="44.33613" lon="3.58632">
        <ele>548.09</ele>
        <time>2022-08-08T05:31:07Z</time>
      </trkpt>
      <trkpt lat="44.33616" lon="3.5862">
        <ele>546.65</ele>
        <time>2022-08-08T05:31:14Z</time>
      </trkpt>
      <trkpt lat="44.33613" lon="3.58613">
        <ele>545.69</ele>
        <time>2022-08-08T05:31:19Z</time>
      </trkpt>
      <trkpt lat="44.33607" lon="3.58604">
        <ele>545.2</ele>
        <time>2022-08-08T05:31:26Z</time>
      </trkpt>
      <trkpt lat="44.33598" lon="3.58595">
        <ele>545.2</ele>
        <time>2022-08-08T05:31:35Z</time>
      </trkpt>
      <trkpt lat="44.3359" lon="3.58594">
        <ele>544.72</ele>
        <time>2022-08-08T05:31:42Z</time>
      </trkpt>
      <trkpt lat="44.33585" lon="3.58591">
        <ele>544.24</ele>
        <time>2022-08-08T05:31:46Z</time>
      </trkpt>
      <trkpt lat="44.33567" lon="3.58605">
        <ele>543.28</ele>
        <time>2022-08-08T05:32:03Z</time>
      </trkpt>
      <trkpt lat="44.33549" lon="3.58603">
        <ele>541.84</ele>
        <time>2022-08-08T05:32:18Z</time>
      </trkpt>
      <trkpt lat="44.33533" lon="3.58602">
        <ele>542.8</ele>
        <time>2022-08-08T05:32:32Z</time>
      </trkpt>
      <trkpt lat="44.33513" lon="3.58607">
        <ele>542.32</ele>
        <time>2022-08-08T05:32:48Z</time>
      </trkpt>
      <trkpt lat="44.335" lon="3.58609">
        <ele>541.84</ele>
        <time>2022-08-08T05:33:00Z</time>
      </trkpt>
      <trkpt lat="44.33486" lon="3.58612">
        <ele>540.88</ele>
        <time>2022-08-08T05:33:12Z</time>
      </trkpt>
      <trkpt lat="44.33474" lon="3.58616">
        <ele>540.4</ele>
        <time>2022-08-08T05:33:22Z</time>
      </trkpt>
      <trkpt lat="44.33449" lon="3.58627">
        <ele>538.48</ele>
        <time>2022-08-08T05:33:42Z</time>
      </trkpt>
      <trkpt lat="44.33433" lon="3.58635">
        <ele>537.99</ele>
        <time>2022-08-08T05:33:56Z</time>
      </trkpt>
      <trkpt lat="44.3343" lon="3.58637">
        <ele>537.51</ele>
        <time>2022-08-08T05:33:59Z</time>
      </trkpt>
      <trkpt lat="44.33412" lon="3.58646">
        <ele>539.44</ele>
        <time>2022-08-08T05:34:16Z</time>
      </trkpt>
      <trkpt lat="44.33404" lon="3.58653">
        <ele>538.48</ele>
        <time>2022-08-08T05:34:24Z</time>
      </trkpt>
      <trkpt lat="44.33384" lon="3.58668">
        <ele>541.36</ele>
        <time>2022-08-08T05:34:42Z</time>
      </trkpt>
      <trkpt lat="44.33376" lon="3.58675">
        <ele>540.88</ele>
        <time>2022-08-08T05:34:50Z</time>
      </trkpt>
      <trkpt lat="44.33361" lon="3.58689">
        <ele>538.96</ele>
        <time>2022-08-08T05:35:06Z</time>
      </trkpt>
      <trkpt lat="44.33345" lon="3.58711">
        <ele>541.84</ele>
        <time>2022-08-08T05:35:23Z</time>
      </trkpt>
      <trkpt lat="44.33333" lon="3.58735">
        <ele>539.92</ele>
        <time>2022-08-08T05:35:42Z</time>
      </trkpt>
      <trkpt lat="44.33324" lon="3.58752">
        <ele>538.96</ele>
        <time>2022-08-08T05:35:56Z</time>
      </trkpt>
      <trkpt lat="44.33309" lon="3.58776">
        <ele>541.84</ele>
        <time>2022-08-08T05:36:12Z</time>
      </trkpt>
      <trkpt lat="44.33309" lon="3.58777">
        <ele>542.32</ele>
        <time>2022-08-08T05:36:13Z</time>
      </trkpt>
      <trkpt lat="44.33306" lon="3.58781">
        <ele>543.76</ele>
        <time>2022-08-08T05:36:15Z</time>
      </trkpt>
      <trkpt lat="44.33302" lon="3.58787">
        <ele>545.2</ele>
        <time>2022-08-08T05:36:19Z</time>
      </trkpt>
      <trkpt lat="44.33299" lon="3.58792">
        <ele>546.17</ele>
        <time>2022-08-08T05:36:23Z</time>
      </trkpt>
      <trkpt lat="44.33295" lon="3.58801">
        <ele>548.57</ele>
        <time>2022-08-08T05:36:29Z</time>
      </trkpt>
      <trkpt lat="44.3329" lon="3.5881">
        <ele>549.05</ele>
        <time>2022-08-08T05:36:36Z</time>
      </trkpt>
      <trkpt lat="44.3328" lon="3.58831">
        <ele>550.01</ele>
        <time>2022-08-08T05:36:50Z</time>
      </trkpt>
      <trkpt lat="44.33268" lon="3.58851">
        <ele>548.57</ele>
        <time>2022-08-08T05:37:04Z</time>
      </trkpt>
      <trkpt lat="44.33267" lon="3.58855">
        <ele>549.53</ele>
        <time>2022-08-08T05:37:07Z</time>
      </trkpt>
      <trkpt lat="44.33262" lon="3.5887">
        <ele>549.53</ele>
        <time>2022-08-08T05:37:16Z</time>
      </trkpt>
      <trkpt lat="44.33261" lon="3.58875">
        <ele>550.01</ele>
        <time>2022-08-08T05:37:19Z</time>
      </trkpt>
      <trkpt lat="44.3325" lon="3.58903">
        <ele>550.01</ele>
        <time>2022-08-08T05:37:38Z</time>
      </trkpt>
      <trkpt lat="44.3324" lon="3.58928">
        <ele>549.05</ele>
        <time>2022-08-08T05:37:55Z</time>
      </trkpt>
      <trkpt lat="44.33229" lon="3.58955">
        <ele>550.01</ele>
        <time>2022-08-08T05:38:13Z</time>
      </trkpt>
      <trkpt lat="44.33229" lon="3.58957">
        <ele>550.01</ele>
        <time>2022-08-08T05:38:14Z</time>
      </trkpt>
      <trkpt lat="44.33219" lon="3.5898">
        <ele>547.61</ele>
        <time>2022-08-08T05:38:31Z</time>
      </trkpt>
      <trkpt lat="44.33218" lon="3.58983">
        <ele>547.13</ele>
        <time>2022-08-08T05:38:33Z</time>
      </trkpt>
      <trkpt lat="44.33211" lon="3.59007">
        <ele>545.69</ele>
        <time>2022-08-08T05:38:49Z</time>
      </trkpt>
      <trkpt lat="44.33208" lon="3.59013">
        <ele>544.72</ele>
        <time>2022-08-08T05:38:53Z</time>
      </trkpt>
      <trkpt lat="44.332" lon="3.59036">
        <ele>542.32</ele>
        <time>2022-08-08T05:39:09Z</time>
      </trkpt>
      <trkpt lat="44.33191" lon="3.59057">
        <ele>539.44</ele>
        <time>2022-08-08T05:39:24Z</time>
      </trkpt>
      <trkpt lat="44.33191" lon="3.59058">
        <ele>539.44</ele>
        <time>2022-08-08T05:39:25Z</time>
      </trkpt>
      <trkpt lat="44.33187" lon="3.59067">
        <ele>539.44</ele>
        <time>2022-08-08T05:39:30Z</time>
      </trkpt>
      <trkpt lat="44.33179" lon="3.59084">
        <ele>539.92</ele>
        <time>2022-08-08T05:39:41Z</time>
      </trkpt>
      <trkpt lat="44.33169" lon="3.59104">
        <ele>540.4</ele>
        <time>2022-08-08T05:39:55Z</time>
      </trkpt>
      <trkpt lat="44.33148" lon="3.59106">
        <ele>541.84</ele>
        <time>2022-08-08T05:40:10Z</time>
      </trkpt>
      <trkpt lat="44.33131" lon="3.59087">
        <ele>545.2</ele>
        <time>2022-08-08T05:40:26Z</time>
      </trkpt>
      <trkpt lat="44.33112" lon="3.59059">
        <ele>547.61</ele>
        <time>2022-08-08T05:40:47Z</time>
      </trkpt>
      <trkpt lat="44.33097" lon="3.5905">
        <ele>546.17</ele>
        <time>2022-08-08T05:41:02Z</time>
      </trkpt>
      <trkpt lat="44.33088" lon="3.59045">
        <ele>545.69</ele>
        <time>2022-08-08T05:41:10Z</time>
      </trkpt>
      <trkpt lat="44.33068" lon="3.59044">
        <ele>546.17</ele>
        <time>2022-08-08T05:41:25Z</time>
      </trkpt>
      <trkpt lat="44.33053" lon="3.59048">
        <ele>545.69</ele>
        <time>2022-08-08T05:41:38Z</time>
      </trkpt>
      <trkpt lat="44.33035" lon="3.59061">
        <ele>546.17</ele>
        <time>2022-08-08T05:41:53Z</time>
      </trkpt>
      <trkpt lat="44.33019" lon="3.59073">
        <ele>544.72</ele>
        <time>2022-08-08T05:42:09Z</time>
      </trkpt>
      <trkpt lat="44.33013" lon="3.59077">
        <ele>544.72</ele>
        <time>2022-08-08T05:42:15Z</time>
      </trkpt>
      <trkpt lat="44.33007" lon="3.59081">
        <ele>544.24</ele>
        <time>2022-08-08T05:42:20Z</time>
      </trkpt>
      <trkpt lat="44.32991" lon="3.59095">
        <ele>543.28</ele>
        <time>2022-08-08T05:42:36Z</time>
      </trkpt>
      <trkpt lat="44.32972" lon="3.59111">
        <ele>541.84</ele>
        <time>2022-08-08T05:42:54Z</time>
      </trkpt>
      <trkpt lat="44.32961" lon="3.59115">
        <ele>541.84</ele>
        <time>2022-08-08T05:43:07Z</time>
      </trkpt>
      <trkpt lat="44.32958" lon="3.59112">
        <ele>541.36</ele>
        <time>2022-08-08T05:43:12Z</time>
      </trkpt>
      <trkpt lat="44.32953" lon="3.59112">
        <ele>542.32</ele>
        <time>2022-08-08T05:43:26Z</time>
      </trkpt>
      <trkpt lat="44.32953" lon="3.59118">
        <ele>541.84</ele>
        <time>2022-08-08T05:43:30Z</time>
      </trkpt>
      <trkpt lat="44.32947" lon="3.59125">
        <ele>542.32</ele>
        <time>2022-08-08T05:43:37Z</time>
      </trkpt>
      <trkpt lat="44.32936" lon="3.59136">
        <ele>541.84</ele>
        <time>2022-08-08T05:43:50Z</time>
      </trkpt>
      <trkpt lat="44.32923" lon="3.59146">
        <ele>538.48</ele>
        <time>2022-08-08T05:44:04Z</time>
      </trkpt>
      <trkpt lat="44.32907" lon="3.59155">
        <ele>536.07</ele>
        <time>2022-08-08T05:44:19Z</time>
      </trkpt>
      <trkpt lat="44.32888" lon="3.59151">
        <ele>536.55</ele>
        <time>2022-08-08T05:44:37Z</time>
      </trkpt>
      <trkpt lat="44.32884" lon="3.5915">
        <ele>537.99</ele>
        <time>2022-08-08T05:44:53Z</time>
      </trkpt>
      <trkpt lat="44.32867" lon="3.5916">
        <ele>541.36</ele>
        <time>2022-08-08T05:45:08Z</time>
      </trkpt>
      <trkpt lat="44.32867" lon="3.59161">
        <ele>541.84</ele>
        <time>2022-08-08T05:45:09Z</time>
      </trkpt>
      <trkpt lat="44.32867" lon="3.59171">
        <ele>542.32</ele>
        <time>2022-08-08T05:45:14Z</time>
      </trkpt>
      <trkpt lat="44.32864" lon="3.59193">
        <ele>542.8</ele>
        <time>2022-08-08T05:45:27Z</time>
      </trkpt>
      <trkpt lat="44.32847" lon="3.59209">
        <ele>541.84</ele>
        <time>2022-08-08T05:45:44Z</time>
      </trkpt>
      <trkpt lat="44.32828" lon="3.5922">
        <ele>541.84</ele>
        <time>2022-08-08T05:46:01Z</time>
      </trkpt>
      <trkpt lat="44.32816" lon="3.59239">
        <ele>544.72</ele>
        <time>2022-08-08T05:46:16Z</time>
      </trkpt>
      <trkpt lat="44.32813" lon="3.59244">
        <ele>544.24</ele>
        <time>2022-08-08T05:46:19Z</time>
      </trkpt>
      <trkpt lat="44.32803" lon="3.59258">
        <ele>543.28</ele>
        <time>2022-08-08T05:46:32Z</time>
      </trkpt>
      <trkpt lat="44.32804" lon="3.59266">
        <ele>542.32</ele>
        <time>2022-08-08T05:46:47Z</time>
      </trkpt>
      <trkpt lat="44.32803" lon="3.59256">
        <ele>544.24</ele>
        <time>2022-08-08T05:47:12Z</time>
      </trkpt>
      <trkpt lat="44.32801" lon="3.59251">
        <ele>546.17</ele>
        <time>2022-08-08T05:47:26Z</time>
      </trkpt>
      <trkpt lat="44.32803" lon="3.59252">
        <ele>547.61</ele>
        <time>2022-08-08T05:47:44Z</time>
      </trkpt>
      <trkpt lat="44.32802" lon="3.59249">
        <ele>548.09</ele>
        <time>2022-08-08T05:48:16Z</time>
      </trkpt>
      <trkpt lat="44.32797" lon="3.59247">
        <ele>553.38</ele>
        <time>2022-08-08T05:48:36Z</time>
      </trkpt>
      <trkpt lat="44.32796" lon="3.59244">
        <ele>557.22</ele>
        <time>2022-08-08T05:48:57Z</time>
      </trkpt>
      <trkpt lat="44.32798" lon="3.59243">
        <ele>557.7</ele>
        <time>2022-08-08T05:48:59Z</time>
      </trkpt>
      <trkpt lat="44.32808" lon="3.59243">
        <ele>550.49</ele>
        <time>2022-08-08T05:49:08Z</time>
      </trkpt>
      <trkpt lat="44.32827" lon="3.59237">
        <ele>545.69</ele>
        <time>2022-08-08T05:49:23Z</time>
      </trkpt>
      <trkpt lat="44.3284" lon="3.59224">
        <ele>546.17</ele>
        <time>2022-08-08T05:49:37Z</time>
      </trkpt>
      <trkpt lat="44.32852" lon="3.59213">
        <ele>547.13</ele>
        <time>2022-08-08T05:49:49Z</time>
      </trkpt>
      <trkpt lat="44.32867" lon="3.59201">
        <ele>546.65</ele>
        <time>2022-08-08T05:50:04Z</time>
      </trkpt>
      <trkpt lat="44.32884" lon="3.59189">
        <ele>545.69</ele>
        <time>2022-08-08T05:50:20Z</time>
      </trkpt>
      <trkpt lat="44.32899" lon="3.59178">
        <ele>545.2</ele>
        <time>2022-08-08T05:50:35Z</time>
      </trkpt>
      <trkpt lat="44.32909" lon="3.5917">
        <ele>545.2</ele>
        <time>2022-08-08T05:50:45Z</time>
      </trkpt>
      <trkpt lat="44.32921" lon="3.5916">
        <ele>544.72</ele>
        <time>2022-08-08T05:50:56Z</time>
      </trkpt>
      <trkpt lat="44.32937" lon="3.59147">
        <ele>544.24</ele>
        <time>2022-08-08T05:51:11Z</time>
      </trkpt>
      <trkpt lat="44.32942" lon="3.59141">
        <ele>544.72</ele>
        <time>2022-08-08T05:51:26Z</time>
      </trkpt>
      <trkpt lat="44.32942" lon="3.59141">
        <ele>544.72</ele>
        <time>2022-08-08T05:51:27Z</time>
      </trkpt>
      <trkpt lat="44.32936" lon="3.59113">
        <ele>546.65</ele>
        <time>2022-08-08T05:51:44Z</time>
      </trkpt>
      <trkpt lat="44.32933" lon="3.59104">
        <ele>546.65</ele>
        <time>2022-08-08T05:51:50Z</time>
      </trkpt>
      <trkpt lat="44.3293" lon="3.59091">
        <ele>547.61</ele>
        <time>2022-08-08T05:52:05Z</time>
      </trkpt>
      <trkpt lat="44.32931" lon="3.59098">
        <ele>547.61</ele>
        <time>2022-08-08T05:52:26Z</time>
      </trkpt>
      <trkpt lat="44.32935" lon="3.59099">
        <ele>547.61</ele>
        <time>2022-08-08T05:52:30Z</time>
      </trkpt>
      <trkpt lat="44.32935" lon="3.59096">
        <ele>550.01</ele>
        <time>2022-08-08T05:52:48Z</time>
      </trkpt>
      <trkpt lat="44.32924" lon="3.59083">
        <ele>550.97</ele>
        <time>2022-08-08T05:53:14Z</time>
      </trkpt>
      <trkpt lat="44.32932" lon="3.59108">
        <ele>554.34</ele>
        <time>2022-08-08T06:09:06Z</time>
      </trkpt>
      <trkpt lat="44.32932" lon="3.59107">
        <ele>552.9</ele>
        <time>2022-08-08T06:09:07Z</time>
      </trkpt>
      <trkpt lat="44.32931" lon="3.59104">
        <ele>544.72</ele>
        <time>2022-08-08T06:09:12Z</time>
      </trkpt>
      <trkpt lat="44.32935" lon="3.59129">
        <ele>547.13</ele>
        <time>2022-08-08T06:09:29Z</time>
      </trkpt>
      <trkpt lat="44.3293" lon="3.5914">
        <ele>547.13</ele>
        <time>2022-08-08T06:09:42Z</time>
      </trkpt>
      <trkpt lat="44.32914" lon="3.59151">
        <ele>548.09</ele>
        <time>2022-08-08T06:09:58Z</time>
      </trkpt>
      <trkpt lat="44.32906" lon="3.59157">
        <ele>546.17</ele>
        <time>2022-08-08T06:10:07Z</time>
      </trkpt>
      <trkpt lat="44.32905" lon="3.59161">
        <ele>545.2</ele>
        <time>2022-08-08T06:10:10Z</time>
      </trkpt>
      <trkpt lat="44.32903" lon="3.59175">
        <ele>543.76</ele>
        <time>2022-08-08T06:10:20Z</time>
      </trkpt>
      <trkpt lat="44.32899" lon="3.5918">
        <ele>543.76</ele>
        <time>2022-08-08T06:10:24Z</time>
      </trkpt>
      <trkpt lat="44.32882" lon="3.59192">
        <ele>544.72</ele>
        <time>2022-08-08T06:10:40Z</time>
      </trkpt>
      <trkpt lat="44.32876" lon="3.59198">
        <ele>544.24</ele>
        <time>2022-08-08T06:10:47Z</time>
      </trkpt>
      <trkpt lat="44.32862" lon="3.5921">
        <ele>542.32</ele>
        <time>2022-08-08T06:11:02Z</time>
      </trkpt>
      <trkpt lat="44.32847" lon="3.59221">
        <ele>537.99</ele>
        <time>2022-08-08T06:11:19Z</time>
      </trkpt>
      <trkpt lat="44.3283" lon="3.59236">
        <ele>535.59</ele>
        <time>2022-08-08T06:11:36Z</time>
      </trkpt>
      <trkpt lat="44.32816" lon="3.59247">
        <ele>537.03</ele>
        <time>2022-08-08T06:11:50Z</time>
      </trkpt>
      <trkpt lat="44.32812" lon="3.59249">
        <ele>537.51</ele>
        <time>2022-08-08T06:11:53Z</time>
      </trkpt>
      <trkpt lat="44.3281" lon="3.59253">
        <ele>537.99</ele>
        <time>2022-08-08T06:11:56Z</time>
      </trkpt>
      <trkpt lat="44.32808" lon="3.59255">
        <ele>537.99</ele>
        <time>2022-08-08T06:11:58Z</time>
      </trkpt>
      <trkpt lat="44.32807" lon="3.59258">
        <ele>537.99</ele>
        <time>2022-08-08T06:12:00Z</time>
      </trkpt>
      <trkpt lat="44.32788" lon="3.59268">
        <ele>540.4</ele>
        <time>2022-08-08T06:12:16Z</time>
      </trkpt>
      <trkpt lat="44.32767" lon="3.59276">
        <ele>544.24</ele>
        <time>2022-08-08T06:12:33Z</time>
      </trkpt>
      <trkpt lat="44.32744" lon="3.59281">
        <ele>548.57</ele>
        <time>2022-08-08T06:12:50Z</time>
      </trkpt>
      <trkpt lat="44.32727" lon="3.59292">
        <ele>550.97</ele>
        <time>2022-08-08T06:13:05Z</time>
      </trkpt>
      <trkpt lat="44.3272" lon="3.59304">
        <ele>549.05</ele>
        <time>2022-08-08T06:13:15Z</time>
      </trkpt>
      <trkpt lat="44.32711" lon="3.5931">
        <ele>545.2</ele>
        <time>2022-08-08T06:13:26Z</time>
      </trkpt>
      <trkpt lat="44.32693" lon="3.59321">
        <ele>543.76</ele>
        <time>2022-08-08T06:13:42Z</time>
      </trkpt>
      <trkpt lat="44.32673" lon="3.5933">
        <ele>545.69</ele>
        <time>2022-08-08T06:13:57Z</time>
      </trkpt>
      <trkpt lat="44.32658" lon="3.59338">
        <ele>544.24</ele>
        <time>2022-08-08T06:14:12Z</time>
      </trkpt>
      <trkpt lat="44.32643" lon="3.59357">
        <ele>544.24</ele>
        <time>2022-08-08T06:14:29Z</time>
      </trkpt>
      <trkpt lat="44.32642" lon="3.59365">
        <ele>543.76</ele>
        <time>2022-08-08T06:14:33Z</time>
      </trkpt>
      <trkpt lat="44.32641" lon="3.59366">
        <ele>543.28</ele>
        <time>2022-08-08T06:14:36Z</time>
      </trkpt>
      <trkpt lat="44.32624" lon="3.59383">
        <ele>544.24</ele>
        <time>2022-08-08T06:14:54Z</time>
      </trkpt>
      <trkpt lat="44.3262" lon="3.59385">
        <ele>544.24</ele>
        <time>2022-08-08T06:14:58Z</time>
      </trkpt>
      <trkpt lat="44.32602" lon="3.59392">
        <ele>543.76</ele>
        <time>2022-08-08T06:15:14Z</time>
      </trkpt>
      <trkpt lat="44.32585" lon="3.594">
        <ele>542.32</ele>
        <time>2022-08-08T06:15:29Z</time>
      </trkpt>
      <trkpt lat="44.32575" lon="3.59423">
        <ele>541.36</ele>
        <time>2022-08-08T06:15:46Z</time>
      </trkpt>
      <trkpt lat="44.32573" lon="3.59427">
        <ele>547.13</ele>
        <time>2022-08-08T06:15:59Z</time>
      </trkpt>
      <trkpt lat="44.32571" lon="3.59428">
        <ele>552.9</ele>
        <time>2022-08-08T06:16:20Z</time>
      </trkpt>
      <trkpt lat="44.32568" lon="3.59422">
        <ele>558.66</ele>
        <time>2022-08-08T06:16:54Z</time>
      </trkpt>
      <trkpt lat="44.32567" lon="3.59427">
        <ele>560.59</ele>
        <time>2022-08-08T06:17:27Z</time>
      </trkpt>
      <trkpt lat="44.32569" lon="3.59427">
        <ele>559.14</ele>
        <time>2022-08-08T06:17:46Z</time>
      </trkpt>
      <trkpt lat="44.32572" lon="3.59429">
        <ele>560.11</ele>
        <time>2022-08-08T06:18:09Z</time>
      </trkpt>
      <trkpt lat="44.32573" lon="3.59431">
        <ele>558.66</ele>
        <time>2022-08-08T06:18:29Z</time>
      </trkpt>
      <trkpt lat="44.32578" lon="3.59435">
        <ele>558.66</ele>
        <time>2022-08-08T06:18:50Z</time>
      </trkpt>
      <trkpt lat="44.32579" lon="3.59435">
        <ele>558.18</ele>
        <time>2022-08-08T06:19:16Z</time>
      </trkpt>
      <trkpt lat="44.32577" lon="3.59438">
        <ele>559.14</ele>
        <time>2022-08-08T06:19:47Z</time>
      </trkpt>
      <trkpt lat="44.32579" lon="3.59431">
        <ele>557.7</ele>
        <time>2022-08-08T06:20:13Z</time>
      </trkpt>
      <trkpt lat="44.32576" lon="3.59426">
        <ele>554.82</ele>
        <time>2022-08-08T06:20:45Z</time>
      </trkpt>
      <trkpt lat="44.32577" lon="3.59425">
        <ele>550.97</ele>
        <time>2022-08-08T06:21:08Z</time>
      </trkpt>
      <trkpt lat="44.32575" lon="3.59424">
        <ele>553.86</ele>
        <time>2022-08-08T06:21:31Z</time>
      </trkpt>
      <trkpt lat="44.32577" lon="3.59425">
        <ele>554.82</ele>
        <time>2022-08-08T06:21:58Z</time>
      </trkpt>
      <trkpt lat="44.3258" lon="3.59431">
        <ele>556.26</ele>
        <time>2022-08-08T06:22:25Z</time>
      </trkpt>
      <trkpt lat="44.32577" lon="3.59435">
        <ele>557.22</ele>
        <time>2022-08-08T06:22:48Z</time>
      </trkpt>
      <trkpt lat="44.32574" lon="3.59446">
        <ele>557.22</ele>
        <time>2022-08-08T06:23:12Z</time>
      </trkpt>
      <trkpt lat="44.32576" lon="3.59433">
        <ele>557.22</ele>
        <time>2022-08-08T06:23:47Z</time>
      </trkpt>
      <trkpt lat="44.32566" lon="3.59413">
        <ele>569.24</ele>
        <time>2022-08-08T06:25:44Z</time>
      </trkpt>
      <trkpt lat="44.32575" lon="3.59416">
        <ele>554.34</ele>
        <time>2022-08-08T06:26:02Z</time>
      </trkpt>
      <trkpt lat="44.32565" lon="3.59423">
        <ele>553.86</ele>
        <time>2022-08-08T06:26:19Z</time>
      </trkpt>
      <trkpt lat="44.32558" lon="3.59432">
        <ele>550.49</ele>
        <time>2022-08-08T06:26:33Z</time>
      </trkpt>
      <trkpt lat="44.32553" lon="3.59432">
        <ele>549.53</ele>
        <time>2022-08-08T06:26:36Z</time>
      </trkpt>
      <trkpt lat="44.32545" lon="3.59439">
        <ele>550.01</ele>
        <time>2022-08-08T06:26:47Z</time>
      </trkpt>
      <trkpt lat="44.32543" lon="3.5944">
        <ele>550.01</ele>
        <time>2022-08-08T06:26:49Z</time>
      </trkpt>
      <trkpt lat="44.32538" lon="3.59446">
        <ele>549.53</ele>
        <time>2022-08-08T06:27:04Z</time>
      </trkpt>
      <trkpt lat="44.32538" lon="3.59449">
        <ele>552.41</ele>
        <time>2022-08-08T06:27:22Z</time>
      </trkpt>
      <trkpt lat="44.32534" lon="3.59451">
        <ele>552.41</ele>
        <time>2022-08-08T06:27:27Z</time>
      </trkpt>
      <trkpt lat="44.32516" lon="3.59459">
        <ele>552.9</ele>
        <time>2022-08-08T06:27:44Z</time>
      </trkpt>
      <trkpt lat="44.32506" lon="3.59467">
        <ele>552.41</ele>
        <time>2022-08-08T06:27:54Z</time>
      </trkpt>
      <trkpt lat="44.3249" lon="3.59475">
        <ele>554.34</ele>
        <time>2022-08-08T06:28:09Z</time>
      </trkpt>
      <trkpt lat="44.32477" lon="3.59489">
        <ele>553.38</ele>
        <time>2022-08-08T06:28:24Z</time>
      </trkpt>
      <trkpt lat="44.32462" lon="3.59494">
        <ele>554.34</ele>
        <time>2022-08-08T06:28:36Z</time>
      </trkpt>
      <trkpt lat="44.32456" lon="3.59502">
        <ele>554.34</ele>
        <time>2022-08-08T06:28:43Z</time>
      </trkpt>
      <trkpt lat="44.32446" lon="3.59515">
        <ele>553.38</ele>
        <time>2022-08-08T06:28:56Z</time>
      </trkpt>
      <trkpt lat="44.32431" lon="3.59526">
        <ele>552.41</ele>
        <time>2022-08-08T06:29:11Z</time>
      </trkpt>
      <trkpt lat="44.32429" lon="3.59528">
        <ele>552.41</ele>
        <time>2022-08-08T06:29:13Z</time>
      </trkpt>
      <trkpt lat="44.32428" lon="3.59534">
        <ele>552.41</ele>
        <time>2022-08-08T06:29:16Z</time>
      </trkpt>
      <trkpt lat="44.32423" lon="3.59539">
        <ele>550.97</ele>
        <time>2022-08-08T06:29:23Z</time>
      </trkpt>
      <trkpt lat="44.3241" lon="3.59551">
        <ele>549.05</ele>
        <time>2022-08-08T06:29:37Z</time>
      </trkpt>
      <trkpt lat="44.32402" lon="3.59555">
        <ele>548.57</ele>
        <time>2022-08-08T06:29:45Z</time>
      </trkpt>
      <trkpt lat="44.32386" lon="3.59571">
        <ele>549.53</ele>
        <time>2022-08-08T06:30:03Z</time>
      </trkpt>
      <trkpt lat="44.32375" lon="3.5958">
        <ele>548.57</ele>
        <time>2022-08-08T06:30:16Z</time>
      </trkpt>
      <trkpt lat="44.32366" lon="3.59582">
        <ele>546.65</ele>
        <time>2022-08-08T06:30:25Z</time>
      </trkpt>
      <trkpt lat="44.32351" lon="3.59588">
        <ele>545.2</ele>
        <time>2022-08-08T06:30:39Z</time>
      </trkpt>
      <trkpt lat="44.32337" lon="3.59602">
        <ele>543.76</ele>
        <time>2022-08-08T06:30:54Z</time>
      </trkpt>
      <trkpt lat="44.32336" lon="3.59602">
        <ele>543.76</ele>
        <time>2022-08-08T06:30:55Z</time>
      </trkpt>
      <trkpt lat="44.32326" lon="3.59613">
        <ele>545.69</ele>
        <time>2022-08-08T06:31:06Z</time>
      </trkpt>
      <trkpt lat="44.32321" lon="3.59616">
        <ele>546.17</ele>
        <time>2022-08-08T06:31:10Z</time>
      </trkpt>
      <trkpt lat="44.32304" lon="3.59619">
        <ele>551.45</ele>
        <time>2022-08-08T06:31:25Z</time>
      </trkpt>
      <trkpt lat="44.32293" lon="3.5962">
        <ele>554.82</ele>
        <time>2022-08-08T06:31:36Z</time>
      </trkpt>
      <trkpt lat="44.32277" lon="3.59625">
        <ele>556.26</ele>
        <time>2022-08-08T06:31:51Z</time>
      </trkpt>
      <trkpt lat="44.32263" lon="3.59625">
        <ele>557.7</ele>
        <time>2022-08-08T06:32:02Z</time>
      </trkpt>
      <trkpt lat="44.32252" lon="3.59631">
        <ele>558.18</ele>
        <time>2022-08-08T06:32:16Z</time>
      </trkpt>
      <trkpt lat="44.32242" lon="3.59631">
        <ele>557.7</ele>
        <time>2022-08-08T06:32:21Z</time>
      </trkpt>
      <trkpt lat="44.32233" lon="3.59634">
        <ele>557.7</ele>
        <time>2022-08-08T06:32:37Z</time>
      </trkpt>
      <trkpt lat="44.32234" lon="3.59632">
        <ele>558.18</ele>
        <time>2022-08-08T06:33:03Z</time>
      </trkpt>
      <trkpt lat="44.32235" lon="3.59632">
        <ele>557.7</ele>
        <time>2022-08-08T06:33:32Z</time>
      </trkpt>
      <trkpt lat="44.32216" lon="3.59639">
        <ele>556.74</ele>
        <time>2022-08-08T06:33:48Z</time>
      </trkpt>
      <trkpt lat="44.322" lon="3.59638">
        <ele>562.51</ele>
        <time>2022-08-08T06:34:02Z</time>
      </trkpt>
      <trkpt lat="44.32186" lon="3.59642">
        <ele>564.91</ele>
        <time>2022-08-08T06:34:15Z</time>
      </trkpt>
      <trkpt lat="44.32168" lon="3.59636">
        <ele>570.68</ele>
        <time>2022-08-08T06:34:29Z</time>
      </trkpt>
      <trkpt lat="44.32151" lon="3.59636">
        <ele>573.08</ele>
        <time>2022-08-08T06:34:40Z</time>
      </trkpt>
      <trkpt lat="44.32148" lon="3.59639">
        <ele>574.04</ele>
        <time>2022-08-08T06:34:45Z</time>
      </trkpt>
      <trkpt lat="44.32139" lon="3.59645">
        <ele>572.6</ele>
        <time>2022-08-08T06:34:56Z</time>
      </trkpt>
      <trkpt lat="44.32133" lon="3.59649">
        <ele>570.68</ele>
        <time>2022-08-08T06:35:00Z</time>
      </trkpt>
      <trkpt lat="44.3213" lon="3.59652">
        <ele>569.24</ele>
        <time>2022-08-08T06:35:03Z</time>
      </trkpt>
      <trkpt lat="44.32131" lon="3.59657">
        <ele>568.76</ele>
        <time>2022-08-08T06:35:05Z</time>
      </trkpt>
      <trkpt lat="44.32136" lon="3.59669">
        <ele>565.87</ele>
        <time>2022-08-08T06:35:17Z</time>
      </trkpt>
      <trkpt lat="44.32137" lon="3.59666">
        <ele>565.87</ele>
        <time>2022-08-08T06:35:27Z</time>
      </trkpt>
      <trkpt lat="44.32136" lon="3.59652">
        <ele>558.66</ele>
        <time>2022-08-08T06:35:42Z</time>
      </trkpt>
      <trkpt lat="44.32134" lon="3.59652">
        <ele>554.34</ele>
        <time>2022-08-08T06:35:59Z</time>
      </trkpt>
      <trkpt lat="44.32135" lon="3.59665">
        <ele>552.9</ele>
        <time>2022-08-08T06:36:27Z</time>
      </trkpt>
      <trkpt lat="44.32135" lon="3.59665">
        <ele>552.9</ele>
        <time>2022-08-08T06:36:43Z</time>
      </trkpt>
      <trkpt lat="44.32132" lon="3.59666">
        <ele>553.86</ele>
        <time>2022-08-08T06:37:10Z</time>
      </trkpt>
      <trkpt lat="44.32134" lon="3.59665">
        <ele>552.41</ele>
        <time>2022-08-08T06:37:29Z</time>
      </trkpt>
      <trkpt lat="44.32136" lon="3.59661">
        <ele>550.01</ele>
        <time>2022-08-08T06:37:46Z</time>
      </trkpt>
      <trkpt lat="44.32138" lon="3.59665">
        <ele>549.05</ele>
        <time>2022-08-08T06:38:09Z</time>
      </trkpt>
      <trkpt lat="44.3214" lon="3.59663">
        <ele>550.01</ele>
        <time>2022-08-08T06:38:29Z</time>
      </trkpt>
      <trkpt lat="44.32136" lon="3.5966">
        <ele>549.53</ele>
        <time>2022-08-08T06:38:50Z</time>
      </trkpt>
      <trkpt lat="44.32135" lon="3.59664">
        <ele>548.09</ele>
        <time>2022-08-08T06:39:10Z</time>
      </trkpt>
      <trkpt lat="44.32133" lon="3.59665">
        <ele>545.69</ele>
        <time>2022-08-08T06:39:30Z</time>
      </trkpt>
      <trkpt lat="44.32135" lon="3.59662">
        <ele>546.17</ele>
        <time>2022-08-08T06:39:58Z</time>
      </trkpt>
      <trkpt lat="44.32131" lon="3.59657">
        <ele>554.34</ele>
        <time>2022-08-08T06:40:17Z</time>
      </trkpt>
      <trkpt lat="44.32133" lon="3.59658">
        <ele>555.3</ele>
        <time>2022-08-08T06:40:37Z</time>
      </trkpt>
      <trkpt lat="44.32138" lon="3.59661">
        <ele>555.78</ele>
        <time>2022-08-08T06:40:58Z</time>
      </trkpt>
      <trkpt lat="44.32137" lon="3.5966">
        <ele>556.74</ele>
        <time>2022-08-08T06:41:15Z</time>
      </trkpt>
      <trkpt lat="44.32134" lon="3.59664">
        <ele>556.26</ele>
        <time>2022-08-08T06:41:35Z</time>
      </trkpt>
      <trkpt lat="44.32128" lon="3.59663">
        <ele>556.26</ele>
        <time>2022-08-08T06:41:58Z</time>
      </trkpt>
      <trkpt lat="44.32128" lon="3.59665">
        <ele>556.74</ele>
        <time>2022-08-08T06:42:10Z</time>
      </trkpt>
      <trkpt lat="44.32121" lon="3.59667">
        <ele>555.3</ele>
        <time>2022-08-08T06:42:23Z</time>
      </trkpt>
      <trkpt lat="44.32116" lon="3.59669">
        <ele>556.74</ele>
        <time>2022-08-08T06:42:28Z</time>
      </trkpt>
      <trkpt lat="44.32111" lon="3.5967">
        <ele>557.22</ele>
        <time>2022-08-08T06:42:32Z</time>
      </trkpt>
      <trkpt lat="44.32097" lon="3.59676">
        <ele>555.78</ele>
        <time>2022-08-08T06:42:45Z</time>
      </trkpt>
      <trkpt lat="44.32083" lon="3.59686">
        <ele>554.82</ele>
        <time>2022-08-08T06:42:59Z</time>
      </trkpt>
      <trkpt lat="44.32063" lon="3.59692">
        <ele>553.38</ele>
        <time>2022-08-08T06:43:14Z</time>
      </trkpt>
      <trkpt lat="44.32049" lon="3.59705">
        <ele>552.9</ele>
        <time>2022-08-08T06:43:28Z</time>
      </trkpt>
      <trkpt lat="44.32046" lon="3.59706">
        <ele>552.9</ele>
        <time>2022-08-08T06:43:30Z</time>
      </trkpt>
      <trkpt lat="44.3203" lon="3.5972">
        <ele>553.38</ele>
        <time>2022-08-08T06:43:46Z</time>
      </trkpt>
      <trkpt lat="44.32016" lon="3.59731">
        <ele>553.38</ele>
        <time>2022-08-08T06:44:01Z</time>
      </trkpt>
      <trkpt lat="44.31997" lon="3.59741">
        <ele>553.38</ele>
        <time>2022-08-08T06:44:18Z</time>
      </trkpt>
      <trkpt lat="44.31981" lon="3.5975">
        <ele>552.9</ele>
        <time>2022-08-08T06:44:33Z</time>
      </trkpt>
      <trkpt lat="44.31966" lon="3.59755">
        <ele>552.9</ele>
        <time>2022-08-08T06:44:47Z</time>
      </trkpt>
      <trkpt lat="44.3195" lon="3.59759">
        <ele>551.93</ele>
        <time>2022-08-08T06:45:01Z</time>
      </trkpt>
      <trkpt lat="44.31948" lon="3.59759">
        <ele>551.45</ele>
        <time>2022-08-08T06:45:03Z</time>
      </trkpt>
      <trkpt lat="44.31942" lon="3.59761">
        <ele>551.45</ele>
        <time>2022-08-08T06:45:08Z</time>
      </trkpt>
      <trkpt lat="44.31923" lon="3.59766">
        <ele>551.45</ele>
        <time>2022-08-08T06:45:24Z</time>
      </trkpt>
      <trkpt lat="44.31909" lon="3.59773">
        <ele>553.38</ele>
        <time>2022-08-08T06:45:39Z</time>
      </trkpt>
      <trkpt lat="44.31905" lon="3.59778">
        <ele>553.86</ele>
        <time>2022-08-08T06:45:45Z</time>
      </trkpt>
      <trkpt lat="44.31902" lon="3.59775">
        <ele>553.86</ele>
        <time>2022-08-08T06:45:50Z</time>
      </trkpt>
      <trkpt lat="44.31898" lon="3.59772">
        <ele>553.38</ele>
        <time>2022-08-08T06:45:54Z</time>
      </trkpt>
      <trkpt lat="44.31894" lon="3.59768">
        <ele>553.38</ele>
        <time>2022-08-08T06:46:05Z</time>
      </trkpt>
      <trkpt lat="44.31889" lon="3.59769">
        <ele>553.38</ele>
        <time>2022-08-08T06:46:09Z</time>
      </trkpt>
      <trkpt lat="44.31871" lon="3.59774">
        <ele>550.97</ele>
        <time>2022-08-08T06:46:24Z</time>
      </trkpt>
      <trkpt lat="44.31857" lon="3.59778">
        <ele>548.09</ele>
        <time>2022-08-08T06:46:37Z</time>
      </trkpt>
      <trkpt lat="44.31842" lon="3.59782">
        <ele>547.61</ele>
        <time>2022-08-08T06:46:51Z</time>
      </trkpt>
      <trkpt lat="44.31834" lon="3.5979">
        <ele>548.09</ele>
        <time>2022-08-08T06:46:58Z</time>
      </trkpt>
      <trkpt lat="44.31825" lon="3.59799">
        <ele>549.05</ele>
        <time>2022-08-08T06:47:07Z</time>
      </trkpt>
      <trkpt lat="44.31803" lon="3.59805">
        <ele>550.01</ele>
        <time>2022-08-08T06:47:27Z</time>
      </trkpt>
      <trkpt lat="44.31785" lon="3.59807">
        <ele>549.53</ele>
        <time>2022-08-08T06:47:43Z</time>
      </trkpt>
      <trkpt lat="44.3178" lon="3.59806">
        <ele>550.01</ele>
        <time>2022-08-08T06:48:00Z</time>
      </trkpt>
      <trkpt lat="44.31773" lon="3.59812">
        <ele>559.62</ele>
        <time>2022-08-08T06:48:19Z</time>
      </trkpt>
      <trkpt lat="44.3177" lon="3.5982">
        <ele>562.51</ele>
        <time>2022-08-08T06:48:49Z</time>
      </trkpt>
      <trkpt lat="44.31773" lon="3.59812">
        <ele>561.07</ele>
        <time>2022-08-08T06:49:18Z</time>
      </trkpt>
      <trkpt lat="44.31766" lon="3.59811">
        <ele>559.14</ele>
        <time>2022-08-08T06:49:33Z</time>
      </trkpt>
      <trkpt lat="44.3175" lon="3.59812">
        <ele>561.07</ele>
        <time>2022-08-08T06:49:48Z</time>
      </trkpt>
      <trkpt lat="44.31733" lon="3.59813">
        <ele>561.55</ele>
        <time>2022-08-08T06:50:02Z</time>
      </trkpt>
      <trkpt lat="44.31713" lon="3.59815">
        <ele>560.59</ele>
        <time>2022-08-08T06:50:17Z</time>
      </trkpt>
      <trkpt lat="44.31694" lon="3.59815">
        <ele>559.14</ele>
        <time>2022-08-08T06:50:32Z</time>
      </trkpt>
      <trkpt lat="44.31683" lon="3.59812">
        <ele>559.62</ele>
        <time>2022-08-08T06:50:45Z</time>
      </trkpt>
      <trkpt lat="44.31662" lon="3.59811">
        <ele>558.18</ele>
        <time>2022-08-08T06:51:01Z</time>
      </trkpt>
      <trkpt lat="44.31647" lon="3.5981">
        <ele>561.07</ele>
        <time>2022-08-08T06:51:15Z</time>
      </trkpt>
      <trkpt lat="44.3163" lon="3.59806">
        <ele>563.47</ele>
        <time>2022-08-08T06:51:27Z</time>
      </trkpt>
      <trkpt lat="44.31609" lon="3.59804">
        <ele>562.99</ele>
        <time>2022-08-08T06:51:41Z</time>
      </trkpt>
      <trkpt lat="44.31593" lon="3.59802">
        <ele>563.47</ele>
        <time>2022-08-08T06:51:54Z</time>
      </trkpt>
      <trkpt lat="44.31574" lon="3.59803">
        <ele>565.87</ele>
        <time>2022-08-08T06:52:10Z</time>
      </trkpt>
      <trkpt lat="44.31556" lon="3.59794">
        <ele>565.39</ele>
        <time>2022-08-08T06:52:26Z</time>
      </trkpt>
      <trkpt lat="44.31534" lon="3.59783">
        <ele>563.95</ele>
        <time>2022-08-08T06:52:45Z</time>
      </trkpt>
      <trkpt lat="44.31511" lon="3.59777">
        <ele>562.99</ele>
        <time>2022-08-08T06:53:03Z</time>
      </trkpt>
      <trkpt lat="44.31492" lon="3.59776">
        <ele>564.91</ele>
        <time>2022-08-08T06:53:19Z</time>
      </trkpt>
      <trkpt lat="44.31474" lon="3.59774">
        <ele>566.83</ele>
        <time>2022-08-08T06:53:35Z</time>
      </trkpt>
      <trkpt lat="44.31459" lon="3.59772">
        <ele>570.2</ele>
        <time>2022-08-08T06:53:49Z</time>
      </trkpt>
      <trkpt lat="44.31439" lon="3.59771">
        <ele>573.56</ele>
        <time>2022-08-08T06:54:04Z</time>
      </trkpt>
      <trkpt lat="44.31417" lon="3.59771">
        <ele>573.08</ele>
        <time>2022-08-08T06:54:18Z</time>
      </trkpt>
      <trkpt lat="44.31404" lon="3.59776">
        <ele>569.24</ele>
        <time>2022-08-08T06:54:30Z</time>
      </trkpt>
      <trkpt lat="44.31388" lon="3.5978">
        <ele>569.72</ele>
        <time>2022-08-08T06:54:45Z</time>
      </trkpt>
      <trkpt lat="44.3137" lon="3.59777">
        <ele>571.16</ele>
        <time>2022-08-08T06:54:57Z</time>
      </trkpt>
      <trkpt lat="44.31355" lon="3.5978">
        <ele>570.68</ele>
        <time>2022-08-08T06:55:09Z</time>
      </trkpt>
      <trkpt lat="44.31342" lon="3.5979">
        <ele>570.2</ele>
        <time>2022-08-08T06:55:22Z</time>
      </trkpt>
      <trkpt lat="44.31329" lon="3.59795">
        <ele>570.68</ele>
        <time>2022-08-08T06:55:33Z</time>
      </trkpt>
      <trkpt lat="44.31309" lon="3.59804">
        <ele>572.6</ele>
        <time>2022-08-08T06:55:50Z</time>
      </trkpt>
      <trkpt lat="44.31292" lon="3.59814">
        <ele>573.56</ele>
        <time>2022-08-08T06:56:04Z</time>
      </trkpt>
      <trkpt lat="44.31277" lon="3.59822">
        <ele>570.68</ele>
        <time>2022-08-08T06:56:17Z</time>
      </trkpt>
      <trkpt lat="44.3127" lon="3.59824">
        <ele>569.24</ele>
        <time>2022-08-08T06:56:24Z</time>
      </trkpt>
      <trkpt lat="44.31269" lon="3.59827">
        <ele>567.8</ele>
        <time>2022-08-08T06:56:36Z</time>
      </trkpt>
      <trkpt lat="44.31264" lon="3.59839">
        <ele>565.39</ele>
        <time>2022-08-08T06:56:49Z</time>
      </trkpt>
      <trkpt lat="44.31265" lon="3.59859">
        <ele>566.83</ele>
        <time>2022-08-08T06:57:03Z</time>
      </trkpt>
      <trkpt lat="44.31274" lon="3.59877">
        <ele>563.47</ele>
        <time>2022-08-08T06:57:19Z</time>
      </trkpt>
      <trkpt lat="44.31285" lon="3.59881">
        <ele>562.03</ele>
        <time>2022-08-08T06:57:35Z</time>
      </trkpt>
      <trkpt lat="44.31294" lon="3.59881">
        <ele>562.99</ele>
        <time>2022-08-08T06:57:50Z</time>
      </trkpt>
      <trkpt lat="44.31303" lon="3.59878">
        <ele>563.47</ele>
        <time>2022-08-08T06:58:07Z</time>
      </trkpt>
      <trkpt lat="44.31316" lon="3.59888">
        <ele>563.47</ele>
        <time>2022-08-08T06:58:27Z</time>
      </trkpt>
      <trkpt lat="44.31329" lon="3.59887">
        <ele>562.99</ele>
        <time>2022-08-08T06:58:46Z</time>
      </trkpt>
      <trkpt lat="44.31339" lon="3.59886">
        <ele>561.55</ele>
        <time>2022-08-08T06:59:02Z</time>
      </trkpt>
      <trkpt lat="44.31348" lon="3.59883">
        <ele>564.43</ele>
        <time>2022-08-08T06:59:17Z</time>
      </trkpt>
      <trkpt lat="44.31356" lon="3.59882">
        <ele>564.91</ele>
        <time>2022-08-08T06:59:30Z</time>
      </trkpt>
      <trkpt lat="44.31367" lon="3.59886">
        <ele>570.2</ele>
        <time>2022-08-08T06:59:49Z</time>
      </trkpt>
      <trkpt lat="44.31378" lon="3.59886">
        <ele>572.12</ele>
        <time>2022-08-08T07:00:05Z</time>
      </trkpt>
      <trkpt lat="44.3139" lon="3.59887">
        <ele>576.45</ele>
        <time>2022-08-08T07:00:21Z</time>
      </trkpt>
      <trkpt lat="44.31403" lon="3.5989">
        <ele>579.33</ele>
        <time>2022-08-08T07:00:37Z</time>
      </trkpt>
      <trkpt lat="44.31416" lon="3.5989">
        <ele>582.7</ele>
        <time>2022-08-08T07:00:52Z</time>
      </trkpt>
      <trkpt lat="44.31431" lon="3.59902">
        <ele>583.66</ele>
        <time>2022-08-08T07:01:10Z</time>
      </trkpt>
      <trkpt lat="44.31448" lon="3.59913">
        <ele>583.18</ele>
        <time>2022-08-08T07:01:28Z</time>
      </trkpt>
      <trkpt lat="44.31464" lon="3.59921">
        <ele>580.77</ele>
        <time>2022-08-08T07:01:45Z</time>
      </trkpt>
      <trkpt lat="44.31478" lon="3.59936">
        <ele>578.85</ele>
        <time>2022-08-08T07:02:02Z</time>
      </trkpt>
      <trkpt lat="44.31476" lon="3.59932">
        <ele>578.85</ele>
        <time>2022-08-08T07:02:20Z</time>
      </trkpt>
      <trkpt lat="44.31487" lon="3.5994">
        <ele>576.93</ele>
        <time>2022-08-08T07:02:35Z</time>
      </trkpt>
      <trkpt lat="44.31504" lon="3.59951">
        <ele>573.56</ele>
        <time>2022-08-08T07:02:53Z</time>
      </trkpt>
      <trkpt lat="44.31518" lon="3.59962">
        <ele>569.72</ele>
        <time>2022-08-08T07:03:11Z</time>
      </trkpt>
      <trkpt lat="44.31527" lon="3.5997">
        <ele>568.28</ele>
        <time>2022-08-08T07:03:24Z</time>
      </trkpt>
      <trkpt lat="44.31538" lon="3.59983">
        <ele>568.76</ele>
        <time>2022-08-08T07:03:39Z</time>
      </trkpt>
      <trkpt lat="44.31548" lon="3.59998">
        <ele>570.2</ele>
        <time>2022-08-08T07:03:55Z</time>
      </trkpt>
      <trkpt lat="44.31555" lon="3.60007">
        <ele>569.72</ele>
        <time>2022-08-08T07:04:11Z</time>
      </trkpt>
      <trkpt lat="44.31562" lon="3.60022">
        <ele>566.83</ele>
        <time>2022-08-08T07:04:28Z</time>
      </trkpt>
      <trkpt lat="44.31565" lon="3.60054">
        <ele>566.83</ele>
        <time>2022-08-08T07:04:45Z</time>
      </trkpt>
      <trkpt lat="44.31564" lon="3.60081">
        <ele>565.87</ele>
        <time>2022-08-08T07:05:02Z</time>
      </trkpt>
      <trkpt lat="44.3156" lon="3.60098">
        <ele>562.99</ele>
        <time>2022-08-08T07:05:17Z</time>
      </trkpt>
      <trkpt lat="44.31556" lon="3.60114">
        <ele>558.18</ele>
        <time>2022-08-08T07:05:31Z</time>
      </trkpt>
      <trkpt lat="44.31551" lon="3.60132">
        <ele>553.86</ele>
        <time>2022-08-08T07:05:44Z</time>
      </trkpt>
      <trkpt lat="44.31545" lon="3.60152">
        <ele>550.49</ele>
        <time>2022-08-08T07:05:58Z</time>
      </trkpt>
      <trkpt lat="44.31538" lon="3.60178">
        <ele>552.9</ele>
        <time>2022-08-08T07:06:15Z</time>
      </trkpt>
      <trkpt lat="44.31533" lon="3.60201">
        <ele>553.38</ele>
        <time>2022-08-08T07:06:30Z</time>
      </trkpt>
      <trkpt lat="44.31526" lon="3.60226">
        <ele>554.34</ele>
        <time>2022-08-08T07:06:45Z</time>
      </trkpt>
      <trkpt lat="44.31523" lon="3.60235">
        <ele>553.86</ele>
        <time>2022-08-08T07:06:55Z</time>
      </trkpt>
      <trkpt lat="44.31521" lon="3.60258">
        <ele>559.14</ele>
        <time>2022-08-08T07:07:11Z</time>
      </trkpt>
      <trkpt lat="44.31522" lon="3.60279">
        <ele>564.43</ele>
        <time>2022-08-08T07:07:26Z</time>
      </trkpt>
      <trkpt lat="44.31518" lon="3.60303">
        <ele>565.39</ele>
        <time>2022-08-08T07:07:42Z</time>
      </trkpt>
      <trkpt lat="44.31515" lon="3.60333">
        <ele>566.83</ele>
        <time>2022-08-08T07:07:57Z</time>
      </trkpt>
      <trkpt lat="44.31516" lon="3.60355">
        <ele>568.28</ele>
        <time>2022-08-08T07:08:13Z</time>
      </trkpt>
      <trkpt lat="44.31518" lon="3.60382">
        <ele>568.28</ele>
        <time>2022-08-08T07:08:32Z</time>
      </trkpt>
      <trkpt lat="44.31524" lon="3.60409">
        <ele>569.72</ele>
        <time>2022-08-08T07:08:47Z</time>
      </trkpt>
      <trkpt lat="44.31532" lon="3.60441">
        <ele>572.6</ele>
        <time>2022-08-08T07:09:07Z</time>
      </trkpt>
      <trkpt lat="44.31535" lon="3.60463">
        <ele>573.08</ele>
        <time>2022-08-08T07:09:21Z</time>
      </trkpt>
      <trkpt lat="44.31544" lon="3.60483">
        <ele>572.6</ele>
        <time>2022-08-08T07:09:38Z</time>
      </trkpt>
      <trkpt lat="44.31556" lon="3.60515">
        <ele>573.08</ele>
        <time>2022-08-08T07:09:58Z</time>
      </trkpt>
      <trkpt lat="44.31569" lon="3.60537">
        <ele>574.04</ele>
        <time>2022-08-08T07:10:14Z</time>
      </trkpt>
      <trkpt lat="44.31572" lon="3.6056">
        <ele>573.56</ele>
        <time>2022-08-08T07:10:30Z</time>
      </trkpt>
      <trkpt lat="44.31566" lon="3.60582">
        <ele>574.04</ele>
        <time>2022-08-08T07:10:45Z</time>
      </trkpt>
      <trkpt lat="44.31552" lon="3.606">
        <ele>573.08</ele>
        <time>2022-08-08T07:11:01Z</time>
      </trkpt>
      <trkpt lat="44.31551" lon="3.60602">
        <ele>573.08</ele>
        <time>2022-08-08T07:11:02Z</time>
      </trkpt>
      <trkpt lat="44.31541" lon="3.60618">
        <ele>572.6</ele>
        <time>2022-08-08T07:11:15Z</time>
      </trkpt>
      <trkpt lat="44.31548" lon="3.60643">
        <ele>572.6</ele>
        <time>2022-08-08T07:11:28Z</time>
      </trkpt>
      <trkpt lat="44.31562" lon="3.60649">
        <ele>572.12</ele>
        <time>2022-08-08T07:11:43Z</time>
      </trkpt>
      <trkpt lat="44.31583" lon="3.60641">
        <ele>572.12</ele>
        <time>2022-08-08T07:12:00Z</time>
      </trkpt>
      <trkpt lat="44.31592" lon="3.60633">
        <ele>571.16</ele>
        <time>2022-08-08T07:12:10Z</time>
      </trkpt>
      <trkpt lat="44.31598" lon="3.60631">
        <ele>571.16</ele>
        <time>2022-08-08T07:12:15Z</time>
      </trkpt>
      <trkpt lat="44.31615" lon="3.6063">
        <ele>571.16</ele>
        <time>2022-08-08T07:12:31Z</time>
      </trkpt>
      <trkpt lat="44.31628" lon="3.60637">
        <ele>569.72</ele>
        <time>2022-08-08T07:12:46Z</time>
      </trkpt>
      <trkpt lat="44.3164" lon="3.60648">
        <ele>568.76</ele>
        <time>2022-08-08T07:13:02Z</time>
      </trkpt>
      <trkpt lat="44.31657" lon="3.60666">
        <ele>567.32</ele>
        <time>2022-08-08T07:13:21Z</time>
      </trkpt>
      <trkpt lat="44.31667" lon="3.60674">
        <ele>568.28</ele>
        <time>2022-08-08T07:13:31Z</time>
      </trkpt>
      <trkpt lat="44.3168" lon="3.60681">
        <ele>568.76</ele>
        <time>2022-08-08T07:13:48Z</time>
      </trkpt>
      <trkpt lat="44.3169" lon="3.60687">
        <ele>570.2</ele>
        <time>2022-08-08T07:14:03Z</time>
      </trkpt>
      <trkpt lat="44.317" lon="3.60703">
        <ele>572.6</ele>
        <time>2022-08-08T07:14:20Z</time>
      </trkpt>
      <trkpt lat="44.31712" lon="3.60716">
        <ele>572.6</ele>
        <time>2022-08-08T07:14:40Z</time>
      </trkpt>
      <trkpt lat="44.31723" lon="3.6073">
        <ele>569.24</ele>
        <time>2022-08-08T07:14:56Z</time>
      </trkpt>
      <trkpt lat="44.31732" lon="3.60744">
        <ele>566.35</ele>
        <time>2022-08-08T07:15:11Z</time>
      </trkpt>
      <trkpt lat="44.31744" lon="3.60759">
        <ele>566.83</ele>
        <time>2022-08-08T07:15:24Z</time>
      </trkpt>
      <trkpt lat="44.31754" lon="3.60772">
        <ele>572.6</ele>
        <time>2022-08-08T07:15:39Z</time>
      </trkpt>
      <trkpt lat="44.31763" lon="3.60786">
        <ele>576.93</ele>
        <time>2022-08-08T07:15:55Z</time>
      </trkpt>
      <trkpt lat="44.3177" lon="3.60794">
        <ele>577.41</ele>
        <time>2022-08-08T07:16:05Z</time>
      </trkpt>
      <trkpt lat="44.31779" lon="3.60809">
        <ele>580.77</ele>
        <time>2022-08-08T07:16:20Z</time>
      </trkpt>
      <trkpt lat="44.31786" lon="3.60824">
        <ele>583.18</ele>
        <time>2022-08-08T07:16:34Z</time>
      </trkpt>
      <trkpt lat="44.31788" lon="3.60833">
        <ele>583.18</ele>
        <time>2022-08-08T07:16:42Z</time>
      </trkpt>
      <trkpt lat="44.31788" lon="3.60852">
        <ele>586.06</ele>
        <time>2022-08-08T07:16:57Z</time>
      </trkpt>
      <trkpt lat="44.31788" lon="3.60871">
        <ele>586.06</ele>
        <time>2022-08-08T07:17:12Z</time>
      </trkpt>
      <trkpt lat="44.31788" lon="3.60884">
        <ele>586.54</ele>
        <time>2022-08-08T07:17:23Z</time>
      </trkpt>
      <trkpt lat="44.31787" lon="3.60904">
        <ele>586.54</ele>
        <time>2022-08-08T07:17:39Z</time>
      </trkpt>
      <trkpt lat="44.31786" lon="3.60916">
        <ele>587.98</ele>
        <time>2022-08-08T07:17:49Z</time>
      </trkpt>
      <trkpt lat="44.31776" lon="3.60929">
        <ele>587.5</ele>
        <time>2022-08-08T07:18:05Z</time>
      </trkpt>
      <trkpt lat="44.3177" lon="3.6094">
        <ele>585.58</ele>
        <time>2022-08-08T07:18:16Z</time>
      </trkpt>
      <trkpt lat="44.31769" lon="3.60941">
        <ele>585.58</ele>
        <time>2022-08-08T07:18:18Z</time>
      </trkpt>
      <trkpt lat="44.31761" lon="3.60955">
        <ele>584.14</ele>
        <time>2022-08-08T07:18:31Z</time>
      </trkpt>
      <trkpt lat="44.31752" lon="3.60965">
        <ele>583.18</ele>
        <time>2022-08-08T07:18:44Z</time>
      </trkpt>
      <trkpt lat="44.31744" lon="3.6098">
        <ele>582.22</ele>
        <time>2022-08-08T07:18:57Z</time>
      </trkpt>
      <trkpt lat="44.31737" lon="3.60994">
        <ele>581.25</ele>
        <time>2022-08-08T07:19:10Z</time>
      </trkpt>
      <trkpt lat="44.31728" lon="3.61008">
        <ele>581.73</ele>
        <time>2022-08-08T07:19:24Z</time>
      </trkpt>
      <trkpt lat="44.31722" lon="3.61019">
        <ele>583.18</ele>
        <time>2022-08-08T07:19:34Z</time>
      </trkpt>
      <trkpt lat="44.31718" lon="3.61029">
        <ele>583.66</ele>
        <time>2022-08-08T07:19:42Z</time>
      </trkpt>
      <trkpt lat="44.31708" lon="3.61043">
        <ele>583.66</ele>
        <time>2022-08-08T07:19:57Z</time>
      </trkpt>
      <trkpt lat="44.31705" lon="3.61046">
        <ele>583.18</ele>
        <time>2022-08-08T07:20:02Z</time>
      </trkpt>
      <trkpt lat="44.31695" lon="3.61063">
        <ele>580.77</ele>
        <time>2022-08-08T07:20:18Z</time>
      </trkpt>
      <trkpt lat="44.31686" lon="3.61077">
        <ele>581.25</ele>
        <time>2022-08-08T07:20:32Z</time>
      </trkpt>
      <trkpt lat="44.31677" lon="3.61094">
        <ele>587.98</ele>
        <time>2022-08-08T07:20:47Z</time>
      </trkpt>
      <trkpt lat="44.31666" lon="3.61106">
        <ele>593.27</ele>
        <time>2022-08-08T07:21:02Z</time>
      </trkpt>
      <trkpt lat="44.31653" lon="3.61114">
        <ele>594.71</ele>
        <time>2022-08-08T07:21:16Z</time>
      </trkpt>
      <trkpt lat="44.31637" lon="3.61115">
        <ele>596.64</ele>
        <time>2022-08-08T07:21:31Z</time>
      </trkpt>
      <trkpt lat="44.31623" lon="3.6112">
        <ele>599.52</ele>
        <time>2022-08-08T07:21:46Z</time>
      </trkpt>
      <trkpt lat="44.31611" lon="3.61124">
        <ele>601.44</ele>
        <time>2022-08-08T07:21:59Z</time>
      </trkpt>
      <trkpt lat="44.31599" lon="3.61132">
        <ele>604.81</ele>
        <time>2022-08-08T07:22:14Z</time>
      </trkpt>
      <trkpt lat="44.31583" lon="3.61132">
        <ele>607.69</ele>
        <time>2022-08-08T07:22:31Z</time>
      </trkpt>
      <trkpt lat="44.31568" lon="3.61131">
        <ele>609.13</ele>
        <time>2022-08-08T07:22:46Z</time>
      </trkpt>
      <trkpt lat="44.31567" lon="3.61132">
        <ele>609.61</ele>
        <time>2022-08-08T07:22:48Z</time>
      </trkpt>
      <trkpt lat="44.31552" lon="3.61132">
        <ele>610.57</ele>
        <time>2022-08-08T07:23:02Z</time>
      </trkpt>
      <trkpt lat="44.31537" lon="3.61137">
        <ele>612.5</ele>
        <time>2022-08-08T07:23:17Z</time>
      </trkpt>
      <trkpt lat="44.31523" lon="3.61138">
        <ele>612.98</ele>
        <time>2022-08-08T07:23:30Z</time>
      </trkpt>
      <trkpt lat="44.31511" lon="3.61146">
        <ele>612.02</ele>
        <time>2022-08-08T07:23:45Z</time>
      </trkpt>
      <trkpt lat="44.315" lon="3.61154">
        <ele>613.94</ele>
        <time>2022-08-08T07:23:58Z</time>
      </trkpt>
      <trkpt lat="44.31485" lon="3.61161">
        <ele>614.42</ele>
        <time>2022-08-08T07:24:14Z</time>
      </trkpt>
      <trkpt lat="44.31473" lon="3.61166">
        <ele>615.86</ele>
        <time>2022-08-08T07:24:27Z</time>
      </trkpt>
      <trkpt lat="44.31457" lon="3.6117">
        <ele>616.34</ele>
        <time>2022-08-08T07:24:42Z</time>
      </trkpt>
      <trkpt lat="44.31443" lon="3.61172">
        <ele>613.94</ele>
        <time>2022-08-08T07:24:56Z</time>
      </trkpt>
      <trkpt lat="44.3144" lon="3.61173">
        <ele>613.94</ele>
        <time>2022-08-08T07:24:58Z</time>
      </trkpt>
      <trkpt lat="44.31433" lon="3.61178">
        <ele>613.94</ele>
        <time>2022-08-08T07:25:06Z</time>
      </trkpt>
      <trkpt lat="44.31422" lon="3.6119">
        <ele>611.06</ele>
        <time>2022-08-08T07:25:20Z</time>
      </trkpt>
      <trkpt lat="44.31413" lon="3.61203">
        <ele>613.94</ele>
        <time>2022-08-08T07:25:33Z</time>
      </trkpt>
      <trkpt lat="44.314" lon="3.61213">
        <ele>612.98</ele>
        <time>2022-08-08T07:25:46Z</time>
      </trkpt>
      <trkpt lat="44.31398" lon="3.61218">
        <ele>613.94</ele>
        <time>2022-08-08T07:25:50Z</time>
      </trkpt>
      <trkpt lat="44.31386" lon="3.61233">
        <ele>615.86</ele>
        <time>2022-08-08T07:26:04Z</time>
      </trkpt>
      <trkpt lat="44.31382" lon="3.61241">
        <ele>618.26</ele>
        <time>2022-08-08T07:26:10Z</time>
      </trkpt>
      <trkpt lat="44.31371" lon="3.61257">
        <ele>619.23</ele>
        <time>2022-08-08T07:26:24Z</time>
      </trkpt>
      <trkpt lat="44.31362" lon="3.61276">
        <ele>616.82</ele>
        <time>2022-08-08T07:26:38Z</time>
      </trkpt>
      <trkpt lat="44.31354" lon="3.61293">
        <ele>609.13</ele>
        <time>2022-08-08T07:26:52Z</time>
      </trkpt>
      <trkpt lat="44.31346" lon="3.61318">
        <ele>608.17</ele>
        <time>2022-08-08T07:27:09Z</time>
      </trkpt>
      <trkpt lat="44.31341" lon="3.61339">
        <ele>612.98</ele>
        <time>2022-08-08T07:27:22Z</time>
      </trkpt>
      <trkpt lat="44.31334" lon="3.61357">
        <ele>614.42</ele>
        <time>2022-08-08T07:27:37Z</time>
      </trkpt>
      <trkpt lat="44.31319" lon="3.61381">
        <ele>612.98</ele>
        <time>2022-08-08T07:27:56Z</time>
      </trkpt>
      <trkpt lat="44.31318" lon="3.61409">
        <ele>609.61</ele>
        <time>2022-08-08T07:28:10Z</time>
      </trkpt>
      <trkpt lat="44.31314" lon="3.61433">
        <ele>609.13</ele>
        <time>2022-08-08T07:28:24Z</time>
      </trkpt>
      <trkpt lat="44.31311" lon="3.6146">
        <ele>613.94</ele>
        <time>2022-08-08T07:28:38Z</time>
      </trkpt>
      <trkpt lat="44.31308" lon="3.61485">
        <ele>613.46</ele>
        <time>2022-08-08T07:28:54Z</time>
      </trkpt>
      <trkpt lat="44.31304" lon="3.61511">
        <ele>612.98</ele>
        <time>2022-08-08T07:29:10Z</time>
      </trkpt>
      <trkpt lat="44.313" lon="3.61538">
        <ele>612.5</ele>
        <time>2022-08-08T07:29:27Z</time>
      </trkpt>
      <trkpt lat="44.31299" lon="3.6154">
        <ele>612.98</ele>
        <time>2022-08-08T07:29:28Z</time>
      </trkpt>
      <trkpt lat="44.31297" lon="3.61566">
        <ele>612.5</ele>
        <time>2022-08-08T07:29:44Z</time>
      </trkpt>
      <trkpt lat="44.31294" lon="3.61589">
        <ele>612.02</ele>
        <time>2022-08-08T07:29:58Z</time>
      </trkpt>
      <trkpt lat="44.31289" lon="3.61615">
        <ele>609.13</ele>
        <time>2022-08-08T07:30:13Z</time>
      </trkpt>
      <trkpt lat="44.31279" lon="3.61671">
        <ele>607.69</ele>
        <time>2022-08-08T07:30:46Z</time>
      </trkpt>
      <trkpt lat="44.31276" lon="3.617">
        <ele>609.61</ele>
        <time>2022-08-08T07:31:03Z</time>
      </trkpt>
      <trkpt lat="44.31274" lon="3.61714">
        <ele>609.61</ele>
        <time>2022-08-08T07:31:12Z</time>
      </trkpt>
      <trkpt lat="44.31271" lon="3.61722">
        <ele>610.09</ele>
        <time>2022-08-08T07:31:17Z</time>
      </trkpt>
      <trkpt lat="44.31261" lon="3.61743">
        <ele>610.57</ele>
        <time>2022-08-08T07:31:32Z</time>
      </trkpt>
      <trkpt lat="44.31246" lon="3.61757">
        <ele>608.17</ele>
        <time>2022-08-08T07:31:46Z</time>
      </trkpt>
      <trkpt lat="44.31227" lon="3.61766">
        <ele>607.21</ele>
        <time>2022-08-08T07:32:02Z</time>
      </trkpt>
      <trkpt lat="44.31224" lon="3.61768">
        <ele>607.69</ele>
        <time>2022-08-08T07:32:05Z</time>
      </trkpt>
      <trkpt lat="44.31208" lon="3.61786">
        <ele>605.77</ele>
        <time>2022-08-08T07:32:21Z</time>
      </trkpt>
      <trkpt lat="44.31193" lon="3.61803">
        <ele>602.4</ele>
        <time>2022-08-08T07:32:36Z</time>
      </trkpt>
      <trkpt lat="44.31191" lon="3.61804">
        <ele>601.44</ele>
        <time>2022-08-08T07:32:38Z</time>
      </trkpt>
      <trkpt lat="44.31185" lon="3.61809">
        <ele>600.48</ele>
        <time>2022-08-08T07:32:43Z</time>
      </trkpt>
      <trkpt lat="44.31172" lon="3.61822">
        <ele>597.12</ele>
        <time>2022-08-08T07:32:56Z</time>
      </trkpt>
      <trkpt lat="44.31156" lon="3.6183">
        <ele>593.27</ele>
        <time>2022-08-08T07:33:09Z</time>
      </trkpt>
      <trkpt lat="44.3114" lon="3.61842">
        <ele>589.91</ele>
        <time>2022-08-08T07:33:25Z</time>
      </trkpt>
      <trkpt lat="44.3114" lon="3.61867">
        <ele>587.98</ele>
        <time>2022-08-08T07:33:38Z</time>
      </trkpt>
      <trkpt lat="44.31162" lon="3.61881">
        <ele>591.83</ele>
        <time>2022-08-08T07:33:56Z</time>
      </trkpt>
      <trkpt lat="44.31182" lon="3.6189">
        <ele>594.71</ele>
        <time>2022-08-08T07:34:14Z</time>
      </trkpt>
      <trkpt lat="44.31204" lon="3.61892">
        <ele>596.15</ele>
        <time>2022-08-08T07:34:31Z</time>
      </trkpt>
      <trkpt lat="44.31217" lon="3.61885">
        <ele>595.67</ele>
        <time>2022-08-08T07:34:44Z</time>
      </trkpt>
      <trkpt lat="44.31238" lon="3.61882">
        <ele>593.75</ele>
        <time>2022-08-08T07:35:01Z</time>
      </trkpt>
      <trkpt lat="44.31253" lon="3.61881">
        <ele>592.31</ele>
        <time>2022-08-08T07:35:15Z</time>
      </trkpt>
      <trkpt lat="44.31269" lon="3.61882">
        <ele>593.27</ele>
        <time>2022-08-08T07:35:30Z</time>
      </trkpt>
      <trkpt lat="44.31286" lon="3.61883">
        <ele>594.23</ele>
        <time>2022-08-08T07:35:46Z</time>
      </trkpt>
      <trkpt lat="44.31298" lon="3.61888">
        <ele>594.23</ele>
        <time>2022-08-08T07:35:57Z</time>
      </trkpt>
      <trkpt lat="44.31303" lon="3.61904">
        <ele>597.6</ele>
        <time>2022-08-08T07:36:10Z</time>
      </trkpt>
      <trkpt lat="44.31297" lon="3.61913">
        <ele>600</ele>
        <time>2022-08-08T07:36:19Z</time>
      </trkpt>
      <trkpt lat="44.31283" lon="3.61923">
        <ele>602.4</ele>
        <time>2022-08-08T07:36:33Z</time>
      </trkpt>
      <trkpt lat="44.31275" lon="3.61928">
        <ele>602.88</ele>
        <time>2022-08-08T07:36:41Z</time>
      </trkpt>
      <trkpt lat="44.3126" lon="3.61936">
        <ele>602.88</ele>
        <time>2022-08-08T07:36:56Z</time>
      </trkpt>
      <trkpt lat="44.31249" lon="3.61952">
        <ele>603.85</ele>
        <time>2022-08-08T07:37:10Z</time>
      </trkpt>
      <trkpt lat="44.31244" lon="3.61972">
        <ele>602.4</ele>
        <time>2022-08-08T07:37:23Z</time>
      </trkpt>
      <trkpt lat="44.31245" lon="3.61994">
        <ele>600.48</ele>
        <time>2022-08-08T07:37:37Z</time>
      </trkpt>
      <trkpt lat="44.31246" lon="3.62019">
        <ele>601.44</ele>
        <time>2022-08-08T07:37:52Z</time>
      </trkpt>
      <trkpt lat="44.31247" lon="3.62027">
        <ele>601.44</ele>
        <time>2022-08-08T07:37:57Z</time>
      </trkpt>
      <trkpt lat="44.3124" lon="3.62042">
        <ele>605.77</ele>
        <time>2022-08-08T07:38:12Z</time>
      </trkpt>
      <trkpt lat="44.31241" lon="3.62066">
        <ele>609.61</ele>
        <time>2022-08-08T07:38:30Z</time>
      </trkpt>
      <trkpt lat="44.31241" lon="3.62083">
        <ele>612.5</ele>
        <time>2022-08-08T07:38:44Z</time>
      </trkpt>
      <trkpt lat="44.31243" lon="3.62104">
        <ele>618.26</ele>
        <time>2022-08-08T07:39:00Z</time>
      </trkpt>
      <trkpt lat="44.3125" lon="3.62123">
        <ele>622.59</ele>
        <time>2022-08-08T07:39:17Z</time>
      </trkpt>
      <trkpt lat="44.31255" lon="3.62141">
        <ele>624.99</ele>
        <time>2022-08-08T07:39:32Z</time>
      </trkpt>
      <trkpt lat="44.31263" lon="3.62158">
        <ele>625.47</ele>
        <time>2022-08-08T07:39:51Z</time>
      </trkpt>
      <trkpt lat="44.31268" lon="3.62172">
        <ele>625.47</ele>
        <time>2022-08-08T07:40:06Z</time>
      </trkpt>
      <trkpt lat="44.31275" lon="3.62185">
        <ele>624.51</ele>
        <time>2022-08-08T07:40:19Z</time>
      </trkpt>
      <trkpt lat="44.31282" lon="3.62198">
        <ele>623.07</ele>
        <time>2022-08-08T07:40:34Z</time>
      </trkpt>
      <trkpt lat="44.31289" lon="3.62215">
        <ele>625.96</ele>
        <time>2022-08-08T07:40:49Z</time>
      </trkpt>
      <trkpt lat="44.31296" lon="3.62231">
        <ele>627.88</ele>
        <time>2022-08-08T07:41:04Z</time>
      </trkpt>
      <trkpt lat="44.31304" lon="3.62247">
        <ele>627.4</ele>
        <time>2022-08-08T07:41:19Z</time>
      </trkpt>
      <trkpt lat="44.31312" lon="3.62265">
        <ele>628.36</ele>
        <time>2022-08-08T07:41:35Z</time>
      </trkpt>
      <trkpt lat="44.31319" lon="3.62279">
        <ele>628.84</ele>
        <time>2022-08-08T07:41:49Z</time>
      </trkpt>
      <trkpt lat="44.31329" lon="3.62301">
        <ele>629.8</ele>
        <time>2022-08-08T07:42:08Z</time>
      </trkpt>
      <trkpt lat="44.31338" lon="3.62316">
        <ele>630.28</ele>
        <time>2022-08-08T07:42:24Z</time>
      </trkpt>
      <trkpt lat="44.31346" lon="3.6233">
        <ele>629.8</ele>
        <time>2022-08-08T07:42:40Z</time>
      </trkpt>
      <trkpt lat="44.31354" lon="3.62345">
        <ele>630.28</ele>
        <time>2022-08-08T07:42:56Z</time>
      </trkpt>
      <trkpt lat="44.31361" lon="3.6236">
        <ele>632.68</ele>
        <time>2022-08-08T07:43:12Z</time>
      </trkpt>
      <trkpt lat="44.3137" lon="3.62375">
        <ele>635.09</ele>
        <time>2022-08-08T07:43:28Z</time>
      </trkpt>
      <trkpt lat="44.31377" lon="3.62388">
        <ele>637.01</ele>
        <time>2022-08-08T07:43:44Z</time>
      </trkpt>
      <trkpt lat="44.31384" lon="3.62401">
        <ele>638.45</ele>
        <time>2022-08-08T07:44:00Z</time>
      </trkpt>
      <trkpt lat="44.31391" lon="3.62414">
        <ele>639.89</ele>
        <time>2022-08-08T07:44:17Z</time>
      </trkpt>
      <trkpt lat="44.31396" lon="3.62426">
        <ele>643.26</ele>
        <time>2022-08-08T07:44:30Z</time>
      </trkpt>
      <trkpt lat="44.31404" lon="3.62441">
        <ele>647.1</ele>
        <time>2022-08-08T07:44:47Z</time>
      </trkpt>
      <trkpt lat="44.31411" lon="3.62455">
        <ele>647.1</ele>
        <time>2022-08-08T07:45:03Z</time>
      </trkpt>
      <trkpt lat="44.3142" lon="3.62473">
        <ele>649.51</ele>
        <time>2022-08-08T07:45:23Z</time>
      </trkpt>
      <trkpt lat="44.31427" lon="3.62489">
        <ele>652.39</ele>
        <time>2022-08-08T07:45:41Z</time>
      </trkpt>
      <trkpt lat="44.31432" lon="3.62509">
        <ele>655.76</ele>
        <time>2022-08-08T07:45:59Z</time>
      </trkpt>
      <trkpt lat="44.31433" lon="3.62524">
        <ele>656.24</ele>
        <time>2022-08-08T07:46:12Z</time>
      </trkpt>
      <trkpt lat="44.31432" lon="3.6253">
        <ele>656.72</ele>
        <time>2022-08-08T07:46:17Z</time>
      </trkpt>
      <trkpt lat="44.31426" lon="3.62541">
        <ele>657.68</ele>
        <time>2022-08-08T07:46:29Z</time>
      </trkpt>
      <trkpt lat="44.31414" lon="3.62552">
        <ele>660.08</ele>
        <time>2022-08-08T07:46:44Z</time>
      </trkpt>
      <trkpt lat="44.31403" lon="3.62564">
        <ele>661.52</ele>
        <time>2022-08-08T07:46:59Z</time>
      </trkpt>
      <trkpt lat="44.31399" lon="3.62566">
        <ele>662.01</ele>
        <time>2022-08-08T07:47:04Z</time>
      </trkpt>
      <trkpt lat="44.31395" lon="3.62568">
        <ele>662.49</ele>
        <time>2022-08-08T07:47:08Z</time>
      </trkpt>
      <trkpt lat="44.31382" lon="3.62572">
        <ele>663.93</ele>
        <time>2022-08-08T07:47:21Z</time>
      </trkpt>
      <trkpt lat="44.31369" lon="3.62579">
        <ele>662.49</ele>
        <time>2022-08-08T07:47:35Z</time>
      </trkpt>
      <trkpt lat="44.31367" lon="3.62581">
        <ele>662.01</ele>
        <time>2022-08-08T07:47:37Z</time>
      </trkpt>
      <trkpt lat="44.31355" lon="3.62594">
        <ele>660.56</ele>
        <time>2022-08-08T07:47:53Z</time>
      </trkpt>
      <trkpt lat="44.31341" lon="3.62611">
        <ele>665.37</ele>
        <time>2022-08-08T07:48:11Z</time>
      </trkpt>
      <trkpt lat="44.31339" lon="3.62614">
        <ele>666.33</ele>
        <time>2022-08-08T07:48:14Z</time>
      </trkpt>
      <trkpt lat="44.31335" lon="3.62619">
        <ele>668.25</ele>
        <time>2022-08-08T07:48:20Z</time>
      </trkpt>
      <trkpt lat="44.31323" lon="3.6263">
        <ele>668.73</ele>
        <time>2022-08-08T07:48:34Z</time>
      </trkpt>
      <trkpt lat="44.31313" lon="3.62643">
        <ele>669.7</ele>
        <time>2022-08-08T07:48:47Z</time>
      </trkpt>
      <trkpt lat="44.31302" lon="3.62657">
        <ele>667.77</ele>
        <time>2022-08-08T07:49:00Z</time>
      </trkpt>
      <trkpt lat="44.3129" lon="3.62675">
        <ele>665.37</ele>
        <time>2022-08-08T07:49:15Z</time>
      </trkpt>
      <trkpt lat="44.31281" lon="3.6269">
        <ele>663.93</ele>
        <time>2022-08-08T07:49:27Z</time>
      </trkpt>
      <trkpt lat="44.31273" lon="3.62706">
        <ele>662.97</ele>
        <time>2022-08-08T07:49:40Z</time>
      </trkpt>
      <trkpt lat="44.31259" lon="3.62728">
        <ele>665.37</ele>
        <time>2022-08-08T07:49:56Z</time>
      </trkpt>
      <trkpt lat="44.31251" lon="3.62742">
        <ele>662.97</ele>
        <time>2022-08-08T07:50:08Z</time>
      </trkpt>
      <trkpt lat="44.31246" lon="3.6275">
        <ele>661.52</ele>
        <time>2022-08-08T07:50:15Z</time>
      </trkpt>
      <trkpt lat="44.31235" lon="3.62766">
        <ele>661.04</ele>
        <time>2022-08-08T07:50:29Z</time>
      </trkpt>
      <trkpt lat="44.31225" lon="3.6278">
        <ele>659.12</ele>
        <time>2022-08-08T07:50:42Z</time>
      </trkpt>
      <trkpt lat="44.31214" lon="3.6279">
        <ele>659.6</ele>
        <time>2022-08-08T07:50:53Z</time>
      </trkpt>
      <trkpt lat="44.31209" lon="3.62798">
        <ele>661.52</ele>
        <time>2022-08-08T07:51:00Z</time>
      </trkpt>
      <trkpt lat="44.31201" lon="3.62825">
        <ele>661.04</ele>
        <time>2022-08-08T07:51:17Z</time>
      </trkpt>
      <trkpt lat="44.31198" lon="3.62847">
        <ele>661.04</ele>
        <time>2022-08-08T07:51:30Z</time>
      </trkpt>
      <trkpt lat="44.31193" lon="3.62871">
        <ele>661.04</ele>
        <time>2022-08-08T07:51:45Z</time>
      </trkpt>
      <trkpt lat="44.31192" lon="3.62873">
        <ele>661.04</ele>
        <time>2022-08-08T07:51:47Z</time>
      </trkpt>
      <trkpt lat="44.31182" lon="3.62889">
        <ele>658.64</ele>
        <time>2022-08-08T07:52:01Z</time>
      </trkpt>
      <trkpt lat="44.31173" lon="3.62909">
        <ele>656.72</ele>
        <time>2022-08-08T07:52:15Z</time>
      </trkpt>
      <trkpt lat="44.31172" lon="3.62912">
        <ele>656.24</ele>
        <time>2022-08-08T07:52:18Z</time>
      </trkpt>
      <trkpt lat="44.31161" lon="3.62929">
        <ele>657.2</ele>
        <time>2022-08-08T07:52:32Z</time>
      </trkpt>
      <trkpt lat="44.31156" lon="3.62953">
        <ele>655.28</ele>
        <time>2022-08-08T07:52:47Z</time>
      </trkpt>
      <trkpt lat="44.31156" lon="3.62977">
        <ele>654.31</ele>
        <time>2022-08-08T07:53:01Z</time>
      </trkpt>
      <trkpt lat="44.31154" lon="3.62993">
        <ele>654.8</ele>
        <time>2022-08-08T07:53:10Z</time>
      </trkpt>
      <trkpt lat="44.31152" lon="3.63018">
        <ele>653.35</ele>
        <time>2022-08-08T07:53:25Z</time>
      </trkpt>
      <trkpt lat="44.31151" lon="3.63041">
        <ele>650.95</ele>
        <time>2022-08-08T07:53:39Z</time>
      </trkpt>
      <trkpt lat="44.31147" lon="3.63054">
        <ele>651.43</ele>
        <time>2022-08-08T07:53:47Z</time>
      </trkpt>
      <trkpt lat="44.31139" lon="3.63075">
        <ele>651.91</ele>
        <time>2022-08-08T07:54:01Z</time>
      </trkpt>
      <trkpt lat="44.31137" lon="3.63082">
        <ele>651.91</ele>
        <time>2022-08-08T07:54:06Z</time>
      </trkpt>
      <trkpt lat="44.31127" lon="3.63101">
        <ele>652.87</ele>
        <time>2022-08-08T07:54:21Z</time>
      </trkpt>
      <trkpt lat="44.31117" lon="3.63119">
        <ele>653.35</ele>
        <time>2022-08-08T07:54:34Z</time>
      </trkpt>
      <trkpt lat="44.31105" lon="3.63139">
        <ele>655.76</ele>
        <time>2022-08-08T07:54:49Z</time>
      </trkpt>
      <trkpt lat="44.31092" lon="3.63155">
        <ele>655.76</ele>
        <time>2022-08-08T07:55:05Z</time>
      </trkpt>
      <trkpt lat="44.3108" lon="3.6316">
        <ele>654.8</ele>
        <time>2022-08-08T07:55:16Z</time>
      </trkpt>
      <trkpt lat="44.31064" lon="3.63168">
        <ele>652.87</ele>
        <time>2022-08-08T07:55:30Z</time>
      </trkpt>
      <trkpt lat="44.31049" lon="3.63168">
        <ele>649.51</ele>
        <time>2022-08-08T07:55:43Z</time>
      </trkpt>
      <trkpt lat="44.31037" lon="3.63163">
        <ele>646.14</ele>
        <time>2022-08-08T07:55:55Z</time>
      </trkpt>
      <trkpt lat="44.31025" lon="3.63148">
        <ele>644.22</ele>
        <time>2022-08-08T07:56:11Z</time>
      </trkpt>
      <trkpt lat="44.31013" lon="3.63148">
        <ele>644.7</ele>
        <time>2022-08-08T07:56:26Z</time>
      </trkpt>
      <trkpt lat="44.31005" lon="3.63143">
        <ele>643.74</ele>
        <time>2022-08-08T07:56:40Z</time>
      </trkpt>
      <trkpt lat="44.30999" lon="3.63134">
        <ele>643.26</ele>
        <time>2022-08-08T07:56:54Z</time>
      </trkpt>
      <trkpt lat="44.30991" lon="3.63127">
        <ele>641.82</ele>
        <time>2022-08-08T07:57:07Z</time>
      </trkpt>
      <trkpt lat="44.30982" lon="3.6312">
        <ele>641.34</ele>
        <time>2022-08-08T07:57:22Z</time>
      </trkpt>
      <trkpt lat="44.30973" lon="3.63108">
        <ele>648.07</ele>
        <time>2022-08-08T07:57:36Z</time>
      </trkpt>
      <trkpt lat="44.30966" lon="3.63102">
        <ele>650.47</ele>
        <time>2022-08-08T07:57:49Z</time>
      </trkpt>
      <trkpt lat="44.30961" lon="3.63097">
        <ele>654.31</ele>
        <time>2022-08-08T07:58:04Z</time>
      </trkpt>
      <trkpt lat="44.30957" lon="3.63098">
        <ele>657.68</ele>
        <time>2022-08-08T07:58:18Z</time>
      </trkpt>
      <trkpt lat="44.30951" lon="3.63098">
        <ele>662.01</ele>
        <time>2022-08-08T07:58:35Z</time>
      </trkpt>
      <trkpt lat="44.30943" lon="3.6309">
        <ele>660.08</ele>
        <time>2022-08-08T07:58:52Z</time>
      </trkpt>
      <trkpt lat="44.30934" lon="3.63084">
        <ele>664.41</ele>
        <time>2022-08-08T07:59:08Z</time>
      </trkpt>
      <trkpt lat="44.30922" lon="3.63081">
        <ele>668.25</ele>
        <time>2022-08-08T07:59:23Z</time>
      </trkpt>
      <trkpt lat="44.30911" lon="3.63073">
        <ele>671.62</ele>
        <time>2022-08-08T07:59:37Z</time>
      </trkpt>
      <trkpt lat="44.30904" lon="3.63068">
        <ele>671.62</ele>
        <time>2022-08-08T07:59:46Z</time>
      </trkpt>
      <trkpt lat="44.30892" lon="3.63063">
        <ele>674.02</ele>
        <time>2022-08-08T08:00:00Z</time>
      </trkpt>
      <trkpt lat="44.30879" lon="3.63055">
        <ele>676.42</ele>
        <time>2022-08-08T08:00:14Z</time>
      </trkpt>
      <trkpt lat="44.30872" lon="3.63051">
        <ele>676.91</ele>
        <time>2022-08-08T08:00:22Z</time>
      </trkpt>
      <trkpt lat="44.30858" lon="3.63044">
        <ele>676.42</ele>
        <time>2022-08-08T08:00:35Z</time>
      </trkpt>
      <trkpt lat="44.30847" lon="3.63058">
        <ele>679.31</ele>
        <time>2022-08-08T08:00:49Z</time>
      </trkpt>
      <trkpt lat="44.30856" lon="3.63071">
        <ele>680.27</ele>
        <time>2022-08-08T08:01:05Z</time>
      </trkpt>
      <trkpt lat="44.30863" lon="3.63084">
        <ele>684.12</ele>
        <time>2022-08-08T08:01:18Z</time>
      </trkpt>
      <trkpt lat="44.30872" lon="3.63096">
        <ele>686.52</ele>
        <time>2022-08-08T08:01:34Z</time>
      </trkpt>
      <trkpt lat="44.3088" lon="3.63107">
        <ele>687.48</ele>
        <time>2022-08-08T08:01:49Z</time>
      </trkpt>
      <trkpt lat="44.3089" lon="3.63117">
        <ele>685.56</ele>
        <time>2022-08-08T08:02:04Z</time>
      </trkpt>
      <trkpt lat="44.30895" lon="3.63128">
        <ele>682.19</ele>
        <time>2022-08-08T08:02:16Z</time>
      </trkpt>
      <trkpt lat="44.30901" lon="3.63143">
        <ele>677.87</ele>
        <time>2022-08-08T08:02:31Z</time>
      </trkpt>
      <trkpt lat="44.30906" lon="3.63161">
        <ele>677.87</ele>
        <time>2022-08-08T08:02:46Z</time>
      </trkpt>
      <trkpt lat="44.30912" lon="3.63173">
        <ele>677.87</ele>
        <time>2022-08-08T08:02:59Z</time>
      </trkpt>
      <trkpt lat="44.3092" lon="3.63192">
        <ele>681.23</ele>
        <time>2022-08-08T08:03:15Z</time>
      </trkpt>
      <trkpt lat="44.30927" lon="3.63208">
        <ele>682.19</ele>
        <time>2022-08-08T08:03:30Z</time>
      </trkpt>
      <trkpt lat="44.3093" lon="3.63224">
        <ele>685.08</ele>
        <time>2022-08-08T08:03:44Z</time>
      </trkpt>
      <trkpt lat="44.30931" lon="3.63247">
        <ele>690.36</ele>
        <time>2022-08-08T08:04:00Z</time>
      </trkpt>
      <trkpt lat="44.30934" lon="3.6326">
        <ele>691.33</ele>
        <time>2022-08-08T08:04:12Z</time>
      </trkpt>
      <trkpt lat="44.30939" lon="3.63277">
        <ele>695.65</ele>
        <time>2022-08-08T08:04:28Z</time>
      </trkpt>
      <trkpt lat="44.3094" lon="3.6329">
        <ele>694.21</ele>
        <time>2022-08-08T08:04:41Z</time>
      </trkpt>
      <trkpt lat="44.3094" lon="3.63309">
        <ele>694.21</ele>
        <time>2022-08-08T08:04:55Z</time>
      </trkpt>
      <trkpt lat="44.30943" lon="3.63329">
        <ele>699.5</ele>
        <time>2022-08-08T08:05:09Z</time>
      </trkpt>
      <trkpt lat="44.30948" lon="3.63344">
        <ele>701.9</ele>
        <time>2022-08-08T08:05:25Z</time>
      </trkpt>
      <trkpt lat="44.30953" lon="3.63356">
        <ele>699.98</ele>
        <time>2022-08-08T08:05:37Z</time>
      </trkpt>
      <trkpt lat="44.30956" lon="3.63369">
        <ele>699.02</ele>
        <time>2022-08-08T08:05:50Z</time>
      </trkpt>
      <trkpt lat="44.30969" lon="3.63367">
        <ele>699.02</ele>
        <time>2022-08-08T08:06:03Z</time>
      </trkpt>
      <trkpt lat="44.30978" lon="3.63369">
        <ele>698.53</ele>
        <time>2022-08-08T08:06:18Z</time>
      </trkpt>
      <trkpt lat="44.30979" lon="3.63369">
        <ele>698.53</ele>
        <time>2022-08-08T08:06:19Z</time>
      </trkpt>
      <trkpt lat="44.30984" lon="3.63361">
        <ele>698.53</ele>
        <time>2022-08-08T08:06:32Z</time>
      </trkpt>
      <trkpt lat="44.30981" lon="3.63357">
        <ele>702.86</ele>
        <time>2022-08-08T08:06:46Z</time>
      </trkpt>
      <trkpt lat="44.30981" lon="3.63357">
        <ele>701.9</ele>
        <time>2022-08-08T08:07:02Z</time>
      </trkpt>
      <trkpt lat="44.30981" lon="3.63359">
        <ele>700.94</ele>
        <time>2022-08-08T08:07:27Z</time>
      </trkpt>
      <trkpt lat="44.30981" lon="3.63359">
        <ele>702.86</ele>
        <time>2022-08-08T08:07:49Z</time>
      </trkpt>
      <trkpt lat="44.30979" lon="3.63358">
        <ele>705.26</ele>
        <time>2022-08-08T08:08:12Z</time>
      </trkpt>
      <trkpt lat="44.30978" lon="3.6336">
        <ele>703.34</ele>
        <time>2022-08-08T08:08:40Z</time>
      </trkpt>
      <trkpt lat="44.3098" lon="3.63359">
        <ele>702.86</ele>
        <time>2022-08-08T08:09:00Z</time>
      </trkpt>
      <trkpt lat="44.30979" lon="3.63357">
        <ele>704.3</ele>
        <time>2022-08-08T08:09:28Z</time>
      </trkpt>
      <trkpt lat="44.30982" lon="3.63364">
        <ele>700.94</ele>
        <time>2022-08-08T08:09:40Z</time>
      </trkpt>
      <trkpt lat="44.30984" lon="3.6337">
        <ele>700.46</ele>
        <time>2022-08-08T08:09:53Z</time>
      </trkpt>
      <trkpt lat="44.30984" lon="3.63368">
        <ele>700.46</ele>
        <time>2022-08-08T08:10:25Z</time>
      </trkpt>
      <trkpt lat="44.30984" lon="3.63367">
        <ele>697.09</ele>
        <time>2022-08-08T08:10:47Z</time>
      </trkpt>
      <trkpt lat="44.30986" lon="3.63368">
        <ele>698.05</ele>
        <time>2022-08-08T08:11:09Z</time>
      </trkpt>
      <trkpt lat="44.3098" lon="3.63373">
        <ele>697.09</ele>
        <time>2022-08-08T08:11:23Z</time>
      </trkpt>
      <trkpt lat="44.30971" lon="3.63384">
        <ele>698.53</ele>
        <time>2022-08-08T08:11:35Z</time>
      </trkpt>
      <trkpt lat="44.30961" lon="3.63396">
        <ele>698.05</ele>
        <time>2022-08-08T08:11:49Z</time>
      </trkpt>
      <trkpt lat="44.30951" lon="3.63413">
        <ele>698.53</ele>
        <time>2022-08-08T08:12:02Z</time>
      </trkpt>
      <trkpt lat="44.30943" lon="3.6343">
        <ele>697.57</ele>
        <time>2022-08-08T08:12:16Z</time>
      </trkpt>
      <trkpt lat="44.30935" lon="3.63443">
        <ele>695.65</ele>
        <time>2022-08-08T08:12:27Z</time>
      </trkpt>
      <trkpt lat="44.30926" lon="3.63462">
        <ele>693.25</ele>
        <time>2022-08-08T08:12:41Z</time>
      </trkpt>
      <trkpt lat="44.30924" lon="3.63466">
        <ele>692.77</ele>
        <time>2022-08-08T08:12:44Z</time>
      </trkpt>
      <trkpt lat="44.3092" lon="3.63477">
        <ele>691.81</ele>
        <time>2022-08-08T08:12:51Z</time>
      </trkpt>
      <trkpt lat="44.30915" lon="3.63494">
        <ele>688.44</ele>
        <time>2022-08-08T08:13:03Z</time>
      </trkpt>
      <trkpt lat="44.30909" lon="3.63513">
        <ele>685.56</ele>
        <time>2022-08-08T08:13:16Z</time>
      </trkpt>
      <trkpt lat="44.30905" lon="3.63527">
        <ele>684.6</ele>
        <time>2022-08-08T08:13:24Z</time>
      </trkpt>
      <trkpt lat="44.30897" lon="3.63551">
        <ele>683.15</ele>
        <time>2022-08-08T08:13:39Z</time>
      </trkpt>
      <trkpt lat="44.3089" lon="3.63574">
        <ele>684.6</ele>
        <time>2022-08-08T08:13:52Z</time>
      </trkpt>
      <trkpt lat="44.30881" lon="3.63592">
        <ele>685.08</ele>
        <time>2022-08-08T08:14:07Z</time>
      </trkpt>
      <trkpt lat="44.30868" lon="3.63608">
        <ele>684.6</ele>
        <time>2022-08-08T08:14:21Z</time>
      </trkpt>
      <trkpt lat="44.30859" lon="3.63617">
        <ele>681.23</ele>
        <time>2022-08-08T08:14:32Z</time>
      </trkpt>
      <trkpt lat="44.30846" lon="3.63629">
        <ele>674.98</ele>
        <time>2022-08-08T08:14:48Z</time>
      </trkpt>
      <trkpt lat="44.30833" lon="3.63642">
        <ele>669.7</ele>
        <time>2022-08-08T08:15:03Z</time>
      </trkpt>
      <trkpt lat="44.30816" lon="3.63661">
        <ele>668.73</ele>
        <time>2022-08-08T08:15:18Z</time>
      </trkpt>
      <trkpt lat="44.308" lon="3.63678">
        <ele>674.5</ele>
        <time>2022-08-08T08:15:33Z</time>
      </trkpt>
      <trkpt lat="44.30788" lon="3.63694">
        <ele>677.87</ele>
        <time>2022-08-08T08:15:45Z</time>
      </trkpt>
      <trkpt lat="44.30779" lon="3.63713">
        <ele>677.39</ele>
        <time>2022-08-08T08:15:59Z</time>
      </trkpt>
      <trkpt lat="44.30771" lon="3.63734">
        <ele>677.87</ele>
        <time>2022-08-08T08:16:14Z</time>
      </trkpt>
      <trkpt lat="44.30769" lon="3.63737">
        <ele>677.87</ele>
        <time>2022-08-08T08:16:16Z</time>
      </trkpt>
      <trkpt lat="44.30763" lon="3.63758">
        <ele>677.39</ele>
        <time>2022-08-08T08:16:28Z</time>
      </trkpt>
      <trkpt lat="44.30756" lon="3.63784">
        <ele>676.91</ele>
        <time>2022-08-08T08:16:42Z</time>
      </trkpt>
      <trkpt lat="44.30746" lon="3.63805">
        <ele>675.94</ele>
        <time>2022-08-08T08:16:57Z</time>
      </trkpt>
      <trkpt lat="44.30739" lon="3.63824">
        <ele>674.5</ele>
        <time>2022-08-08T08:17:11Z</time>
      </trkpt>
      <trkpt lat="44.30731" lon="3.63846">
        <ele>673.06</ele>
        <time>2022-08-08T08:17:25Z</time>
      </trkpt>
      <trkpt lat="44.30721" lon="3.63865">
        <ele>671.62</ele>
        <time>2022-08-08T08:17:39Z</time>
      </trkpt>
      <trkpt lat="44.30711" lon="3.63882">
        <ele>668.25</ele>
        <time>2022-08-08T08:17:51Z</time>
      </trkpt>
      <trkpt lat="44.307" lon="3.63898">
        <ele>667.77</ele>
        <time>2022-08-08T08:18:06Z</time>
      </trkpt>
      <trkpt lat="44.30688" lon="3.63918">
        <ele>666.81</ele>
        <time>2022-08-08T08:18:20Z</time>
      </trkpt>
      <trkpt lat="44.30678" lon="3.63941">
        <ele>666.81</ele>
        <time>2022-08-08T08:18:35Z</time>
      </trkpt>
      <trkpt lat="44.30664" lon="3.63957">
        <ele>666.33</ele>
        <time>2022-08-08T08:18:49Z</time>
      </trkpt>
      <trkpt lat="44.30663" lon="3.63958">
        <ele>666.33</ele>
        <time>2022-08-08T08:18:50Z</time>
      </trkpt>
      <trkpt lat="44.30651" lon="3.63967">
        <ele>662.49</ele>
        <time>2022-08-08T08:19:03Z</time>
      </trkpt>
      <trkpt lat="44.30641" lon="3.63979">
        <ele>660.08</ele>
        <time>2022-08-08T08:19:14Z</time>
      </trkpt>
      <trkpt lat="44.30631" lon="3.63999">
        <ele>659.6</ele>
        <time>2022-08-08T08:19:27Z</time>
      </trkpt>
      <trkpt lat="44.30633" lon="3.64014">
        <ele>657.2</ele>
        <time>2022-08-08T08:19:39Z</time>
      </trkpt>
      <trkpt lat="44.30637" lon="3.64034">
        <ele>658.16</ele>
        <time>2022-08-08T08:19:51Z</time>
      </trkpt>
      <trkpt lat="44.30637" lon="3.64048">
        <ele>657.2</ele>
        <time>2022-08-08T08:19:59Z</time>
      </trkpt>
      <trkpt lat="44.3064" lon="3.64065">
        <ele>656.72</ele>
        <time>2022-08-08T08:20:09Z</time>
      </trkpt>
      <trkpt lat="44.3064" lon="3.6407">
        <ele>656.72</ele>
        <time>2022-08-08T08:20:12Z</time>
      </trkpt>
      <trkpt lat="44.30643" lon="3.64095">
        <ele>657.2</ele>
        <time>2022-08-08T08:20:26Z</time>
      </trkpt>
      <trkpt lat="44.3064" lon="3.64122">
        <ele>659.6</ele>
        <time>2022-08-08T08:20:39Z</time>
      </trkpt>
      <trkpt lat="44.30639" lon="3.64129">
        <ele>659.12</ele>
        <time>2022-08-08T08:20:44Z</time>
      </trkpt>
      <trkpt lat="44.30628" lon="3.64144">
        <ele>658.64</ele>
        <time>2022-08-08T08:20:58Z</time>
      </trkpt>
      <trkpt lat="44.30617" lon="3.64144">
        <ele>656.72</ele>
        <time>2022-08-08T08:21:12Z</time>
      </trkpt>
      <trkpt lat="44.30615" lon="3.64161">
        <ele>653.83</ele>
        <time>2022-08-08T08:21:26Z</time>
      </trkpt>
      <trkpt lat="44.30609" lon="3.64179">
        <ele>651.43</ele>
        <time>2022-08-08T08:21:42Z</time>
      </trkpt>
      <trkpt lat="44.30609" lon="3.64193">
        <ele>651.43</ele>
        <time>2022-08-08T08:21:56Z</time>
      </trkpt>
      <trkpt lat="44.30614" lon="3.6421">
        <ele>654.31</ele>
        <time>2022-08-08T08:22:10Z</time>
      </trkpt>
      <trkpt lat="44.30617" lon="3.64222">
        <ele>658.64</ele>
        <time>2022-08-08T08:22:24Z</time>
      </trkpt>
      <trkpt lat="44.30619" lon="3.64233">
        <ele>661.52</ele>
        <time>2022-08-08T08:22:36Z</time>
      </trkpt>
      <trkpt lat="44.30616" lon="3.64246">
        <ele>663.93</ele>
        <time>2022-08-08T08:22:51Z</time>
      </trkpt>
      <trkpt lat="44.30616" lon="3.6426">
        <ele>663.93</ele>
        <time>2022-08-08T08:23:06Z</time>
      </trkpt>
      <trkpt lat="44.30616" lon="3.64278">
        <ele>665.37</ele>
        <time>2022-08-08T08:23:20Z</time>
      </trkpt>
      <trkpt lat="44.30616" lon="3.64295">
        <ele>666.33</ele>
        <time>2022-08-08T08:23:33Z</time>
      </trkpt>
      <trkpt lat="44.30619" lon="3.64314">
        <ele>667.29</ele>
        <time>2022-08-08T08:23:48Z</time>
      </trkpt>
      <trkpt lat="44.30626" lon="3.6433">
        <ele>668.73</ele>
        <time>2022-08-08T08:24:02Z</time>
      </trkpt>
      <trkpt lat="44.3063" lon="3.64343">
        <ele>670.66</ele>
        <time>2022-08-08T08:24:14Z</time>
      </trkpt>
      <trkpt lat="44.30635" lon="3.64359">
        <ele>670.66</ele>
        <time>2022-08-08T08:24:29Z</time>
      </trkpt>
      <trkpt lat="44.3064" lon="3.64376">
        <ele>669.7</ele>
        <time>2022-08-08T08:24:43Z</time>
      </trkpt>
      <trkpt lat="44.30641" lon="3.64386">
        <ele>670.66</ele>
        <time>2022-08-08T08:24:52Z</time>
      </trkpt>
      <trkpt lat="44.30638" lon="3.64404">
        <ele>672.1</ele>
        <time>2022-08-08T08:25:06Z</time>
      </trkpt>
      <trkpt lat="44.30633" lon="3.64425">
        <ele>670.66</ele>
        <time>2022-08-08T08:25:21Z</time>
      </trkpt>
      <trkpt lat="44.30626" lon="3.6444">
        <ele>669.7</ele>
        <time>2022-08-08T08:25:34Z</time>
      </trkpt>
      <trkpt lat="44.30619" lon="3.64459">
        <ele>670.66</ele>
        <time>2022-08-08T08:25:48Z</time>
      </trkpt>
      <trkpt lat="44.30616" lon="3.64478">
        <ele>669.7</ele>
        <time>2022-08-08T08:26:02Z</time>
      </trkpt>
      <trkpt lat="44.30609" lon="3.64497">
        <ele>670.66</ele>
        <time>2022-08-08T08:26:15Z</time>
      </trkpt>
      <trkpt lat="44.30604" lon="3.64513">
        <ele>673.54</ele>
        <time>2022-08-08T08:26:27Z</time>
      </trkpt>
      <trkpt lat="44.30599" lon="3.64537">
        <ele>673.54</ele>
        <time>2022-08-08T08:26:42Z</time>
      </trkpt>
      <trkpt lat="44.30596" lon="3.64558">
        <ele>674.5</ele>
        <time>2022-08-08T08:26:56Z</time>
      </trkpt>
      <trkpt lat="44.3059" lon="3.64574">
        <ele>673.06</ele>
        <time>2022-08-08T08:27:08Z</time>
      </trkpt>
      <trkpt lat="44.30577" lon="3.6459">
        <ele>673.06</ele>
        <time>2022-08-08T08:27:23Z</time>
      </trkpt>
      <trkpt lat="44.30569" lon="3.64605">
        <ele>673.06</ele>
        <time>2022-08-08T08:27:36Z</time>
      </trkpt>
      <trkpt lat="44.30561" lon="3.64621">
        <ele>674.02</ele>
        <time>2022-08-08T08:27:50Z</time>
      </trkpt>
      <trkpt lat="44.30556" lon="3.64627">
        <ele>675.46</ele>
        <time>2022-08-08T08:27:55Z</time>
      </trkpt>
      <trkpt lat="44.30546" lon="3.64644">
        <ele>676.91</ele>
        <time>2022-08-08T08:28:09Z</time>
      </trkpt>
      <trkpt lat="44.30533" lon="3.64654">
        <ele>677.39</ele>
        <time>2022-08-08T08:28:22Z</time>
      </trkpt>
      <trkpt lat="44.3052" lon="3.64663">
        <ele>677.39</ele>
        <time>2022-08-08T08:28:37Z</time>
      </trkpt>
      <trkpt lat="44.3051" lon="3.64664">
        <ele>676.91</ele>
        <time>2022-08-08T08:28:50Z</time>
      </trkpt>
      <trkpt lat="44.30501" lon="3.64679">
        <ele>679.31</ele>
        <time>2022-08-08T08:29:04Z</time>
      </trkpt>
      <trkpt lat="44.30502" lon="3.64697">
        <ele>681.23</ele>
        <time>2022-08-08T08:29:17Z</time>
      </trkpt>
      <trkpt lat="44.30503" lon="3.64713">
        <ele>680.75</ele>
        <time>2022-08-08T08:29:29Z</time>
      </trkpt>
      <trkpt lat="44.30506" lon="3.64735">
        <ele>684.12</ele>
        <time>2022-08-08T08:29:44Z</time>
      </trkpt>
      <trkpt lat="44.3051" lon="3.64752">
        <ele>684.12</ele>
        <time>2022-08-08T08:29:58Z</time>
      </trkpt>
      <trkpt lat="44.30511" lon="3.64763">
        <ele>684.6</ele>
        <time>2022-08-08T08:30:07Z</time>
      </trkpt>
      <trkpt lat="44.30512" lon="3.64779">
        <ele>686.52</ele>
        <time>2022-08-08T08:30:18Z</time>
      </trkpt>
      <trkpt lat="44.30512" lon="3.64797">
        <ele>687.96</ele>
        <time>2022-08-08T08:30:32Z</time>
      </trkpt>
      <trkpt lat="44.30512" lon="3.64798">
        <ele>687.96</ele>
        <time>2022-08-08T08:30:33Z</time>
      </trkpt>
      <trkpt lat="44.30509" lon="3.64815">
        <ele>687.96</ele>
        <time>2022-08-08T08:30:48Z</time>
      </trkpt>
      <trkpt lat="44.30504" lon="3.64828">
        <ele>689.4</ele>
        <time>2022-08-08T08:30:59Z</time>
      </trkpt>
      <trkpt lat="44.30501" lon="3.64844">
        <ele>692.29</ele>
        <time>2022-08-08T08:31:12Z</time>
      </trkpt>
      <trkpt lat="44.30498" lon="3.64859">
        <ele>694.69</ele>
        <time>2022-08-08T08:31:25Z</time>
      </trkpt>
      <trkpt lat="44.3049" lon="3.64877">
        <ele>696.13</ele>
        <time>2022-08-08T08:31:40Z</time>
      </trkpt>
      <trkpt lat="44.30485" lon="3.64892">
        <ele>697.57</ele>
        <time>2022-08-08T08:31:54Z</time>
      </trkpt>
      <trkpt lat="44.3048" lon="3.64906">
        <ele>699.02</ele>
        <time>2022-08-08T08:32:07Z</time>
      </trkpt>
      <trkpt lat="44.30473" lon="3.64921">
        <ele>700.46</ele>
        <time>2022-08-08T08:32:20Z</time>
      </trkpt>
      <trkpt lat="44.30468" lon="3.64936">
        <ele>702.86</ele>
        <time>2022-08-08T08:32:34Z</time>
      </trkpt>
      <trkpt lat="44.30458" lon="3.64953">
        <ele>705.75</ele>
        <time>2022-08-08T08:32:50Z</time>
      </trkpt>
      <trkpt lat="44.30447" lon="3.64969">
        <ele>705.26</ele>
        <time>2022-08-08T08:33:03Z</time>
      </trkpt>
      <trkpt lat="44.30438" lon="3.64986">
        <ele>704.78</ele>
        <time>2022-08-08T08:33:16Z</time>
      </trkpt>
      <trkpt lat="44.30428" lon="3.65002">
        <ele>702.86</ele>
        <time>2022-08-08T08:33:29Z</time>
      </trkpt>
      <trkpt lat="44.30419" lon="3.65015">
        <ele>700.46</ele>
        <time>2022-08-08T08:33:40Z</time>
      </trkpt>
      <trkpt lat="44.30416" lon="3.65019">
        <ele>699.98</ele>
        <time>2022-08-08T08:33:44Z</time>
      </trkpt>
      <trkpt lat="44.30402" lon="3.65033">
        <ele>699.02</ele>
        <time>2022-08-08T08:33:59Z</time>
      </trkpt>
      <trkpt lat="44.30386" lon="3.6504">
        <ele>696.13</ele>
        <time>2022-08-08T08:34:14Z</time>
      </trkpt>
      <trkpt lat="44.30368" lon="3.6505">
        <ele>694.21</ele>
        <time>2022-08-08T08:34:30Z</time>
      </trkpt>
      <trkpt lat="44.30356" lon="3.65058">
        <ele>695.65</ele>
        <time>2022-08-08T08:34:43Z</time>
      </trkpt>
      <trkpt lat="44.30344" lon="3.65068">
        <ele>698.53</ele>
        <time>2022-08-08T08:34:57Z</time>
      </trkpt>
      <trkpt lat="44.30331" lon="3.65079">
        <ele>699.02</ele>
        <time>2022-08-08T08:35:11Z</time>
      </trkpt>
      <trkpt lat="44.30322" lon="3.65096">
        <ele>700.46</ele>
        <time>2022-08-08T08:35:24Z</time>
      </trkpt>
      <trkpt lat="44.30312" lon="3.65111">
        <ele>701.9</ele>
        <time>2022-08-08T08:35:37Z</time>
      </trkpt>
      <trkpt lat="44.303" lon="3.65129">
        <ele>702.86</ele>
        <time>2022-08-08T08:35:52Z</time>
      </trkpt>
      <trkpt lat="44.30287" lon="3.65146">
        <ele>702.38</ele>
        <time>2022-08-08T08:36:09Z</time>
      </trkpt>
      <trkpt lat="44.30266" lon="3.65154">
        <ele>702.38</ele>
        <time>2022-08-08T08:36:27Z</time>
      </trkpt>
      <trkpt lat="44.30267" lon="3.65173">
        <ele>697.09</ele>
        <time>2022-08-08T08:36:42Z</time>
      </trkpt>
      <trkpt lat="44.30267" lon="3.65191">
        <ele>700.46</ele>
        <time>2022-08-08T08:36:55Z</time>
      </trkpt>
      <trkpt lat="44.30272" lon="3.65205">
        <ele>703.34</ele>
        <time>2022-08-08T08:37:08Z</time>
      </trkpt>
      <trkpt lat="44.30266" lon="3.65228">
        <ele>704.3</ele>
        <time>2022-08-08T08:37:24Z</time>
      </trkpt>
      <trkpt lat="44.30267" lon="3.65248">
        <ele>706.71</ele>
        <time>2022-08-08T08:37:38Z</time>
      </trkpt>
      <trkpt lat="44.30269" lon="3.65267">
        <ele>708.15</ele>
        <time>2022-08-08T08:37:55Z</time>
      </trkpt>
      <trkpt lat="44.3027" lon="3.65283">
        <ele>708.15</ele>
        <time>2022-08-08T08:38:12Z</time>
      </trkpt>
      <trkpt lat="44.30268" lon="3.65298">
        <ele>713.44</ele>
        <time>2022-08-08T08:38:27Z</time>
      </trkpt>
      <trkpt lat="44.30268" lon="3.65312">
        <ele>716.8</ele>
        <time>2022-08-08T08:38:41Z</time>
      </trkpt>
      <trkpt lat="44.30271" lon="3.65314">
        <ele>720.16</ele>
        <time>2022-08-08T08:38:58Z</time>
      </trkpt>
      <trkpt lat="44.3028" lon="3.65315">
        <ele>719.2</ele>
        <time>2022-08-08T08:39:25Z</time>
      </trkpt>
      <trkpt lat="44.30277" lon="3.65308">
        <ele>719.2</ele>
        <time>2022-08-08T08:39:48Z</time>
      </trkpt>
      <trkpt lat="44.30269" lon="3.65312">
        <ele>719.68</ele>
        <time>2022-08-08T08:40:08Z</time>
      </trkpt>
      <trkpt lat="44.30267" lon="3.65311">
        <ele>720.16</ele>
        <time>2022-08-08T08:40:40Z</time>
      </trkpt>
      <trkpt lat="44.30268" lon="3.65313">
        <ele>720.65</ele>
        <time>2022-08-08T08:41:11Z</time>
      </trkpt>
      <trkpt lat="44.30274" lon="3.65313">
        <ele>724.49</ele>
        <time>2022-08-08T08:41:31Z</time>
      </trkpt>
      <trkpt lat="44.3028" lon="3.6532">
        <ele>723.53</ele>
        <time>2022-08-08T08:41:54Z</time>
      </trkpt>
      <trkpt lat="44.30281" lon="3.65324">
        <ele>724.49</ele>
        <time>2022-08-08T08:42:11Z</time>
      </trkpt>
      <trkpt lat="44.30283" lon="3.65329">
        <ele>724.01</ele>
        <time>2022-08-08T08:42:19Z</time>
      </trkpt>
      <trkpt lat="44.30288" lon="3.65337">
        <ele>720.65</ele>
        <time>2022-08-08T08:42:31Z</time>
      </trkpt>
      <trkpt lat="44.30302" lon="3.65348">
        <ele>717.76</ele>
        <time>2022-08-08T08:42:44Z</time>
      </trkpt>
      <trkpt lat="44.30312" lon="3.65355">
        <ele>714.4</ele>
        <time>2022-08-08T08:42:53Z</time>
      </trkpt>
      <trkpt lat="44.30319" lon="3.6537">
        <ele>706.23</ele>
        <time>2022-08-08T08:43:08Z</time>
      </trkpt>
      <trkpt lat="44.30328" lon="3.65386">
        <ele>700.94</ele>
        <time>2022-08-08T08:43:19Z</time>
      </trkpt>
      <trkpt lat="44.30339" lon="3.65398">
        <ele>694.69</ele>
        <time>2022-08-08T08:43:32Z</time>
      </trkpt>
      <trkpt lat="44.30341" lon="3.65404">
        <ele>692.77</ele>
        <time>2022-08-08T08:43:37Z</time>
      </trkpt>
      <trkpt lat="44.30351" lon="3.65415">
        <ele>687.48</ele>
        <time>2022-08-08T08:43:52Z</time>
      </trkpt>
      <trkpt lat="44.30355" lon="3.65435">
        <ele>691.33</ele>
        <time>2022-08-08T08:44:03Z</time>
      </trkpt>
      <trkpt lat="44.30361" lon="3.65454">
        <ele>693.25</ele>
        <time>2022-08-08T08:44:15Z</time>
      </trkpt>
      <trkpt lat="44.3037" lon="3.65474">
        <ele>696.13</ele>
        <time>2022-08-08T08:44:29Z</time>
      </trkpt>
      <trkpt lat="44.30377" lon="3.65494">
        <ele>694.69</ele>
        <time>2022-08-08T08:44:42Z</time>
      </trkpt>
      <trkpt lat="44.30386" lon="3.65514">
        <ele>690.84</ele>
        <time>2022-08-08T08:44:56Z</time>
      </trkpt>
      <trkpt lat="44.30397" lon="3.65531">
        <ele>689.4</ele>
        <time>2022-08-08T08:45:10Z</time>
      </trkpt>
      <trkpt lat="44.30403" lon="3.65539">
        <ele>688.92</ele>
        <time>2022-08-08T08:45:17Z</time>
      </trkpt>
      <trkpt lat="44.30405" lon="3.65544">
        <ele>688.44</ele>
        <time>2022-08-08T08:45:21Z</time>
      </trkpt>
      <trkpt lat="44.30416" lon="3.6556">
        <ele>688.44</ele>
        <time>2022-08-08T08:45:34Z</time>
      </trkpt>
      <trkpt lat="44.30424" lon="3.65572">
        <ele>687.48</ele>
        <time>2022-08-08T08:45:45Z</time>
      </trkpt>
      <trkpt lat="44.30428" lon="3.65577">
        <ele>687.48</ele>
        <time>2022-08-08T08:45:50Z</time>
      </trkpt>
      <trkpt lat="44.30437" lon="3.65587">
        <ele>686.52</ele>
        <time>2022-08-08T08:45:59Z</time>
      </trkpt>
      <trkpt lat="44.3045" lon="3.65607">
        <ele>687</ele>
        <time>2022-08-08T08:46:15Z</time>
      </trkpt>
      <trkpt lat="44.30456" lon="3.65624">
        <ele>686.04</ele>
        <time>2022-08-08T08:46:28Z</time>
      </trkpt>
      <trkpt lat="44.30457" lon="3.65643">
        <ele>683.63</ele>
        <time>2022-08-08T08:46:41Z</time>
      </trkpt>
      <trkpt lat="44.30458" lon="3.65651">
        <ele>683.15</ele>
        <time>2022-08-08T08:46:48Z</time>
      </trkpt>
      <trkpt lat="44.30459" lon="3.65656">
        <ele>682.67</ele>
        <time>2022-08-08T08:46:51Z</time>
      </trkpt>
      <trkpt lat="44.30461" lon="3.65673">
        <ele>682.19</ele>
        <time>2022-08-08T08:47:01Z</time>
      </trkpt>
      <trkpt lat="44.30465" lon="3.65698">
        <ele>682.67</ele>
        <time>2022-08-08T08:47:16Z</time>
      </trkpt>
      <trkpt lat="44.30463" lon="3.65719">
        <ele>682.67</ele>
        <time>2022-08-08T08:47:29Z</time>
      </trkpt>
      <trkpt lat="44.3046" lon="3.65741">
        <ele>681.71</ele>
        <time>2022-08-08T08:47:43Z</time>
      </trkpt>
      <trkpt lat="44.30455" lon="3.65762">
        <ele>680.75</ele>
        <time>2022-08-08T08:47:56Z</time>
      </trkpt>
      <trkpt lat="44.30447" lon="3.65778">
        <ele>679.79</ele>
        <time>2022-08-08T08:48:08Z</time>
      </trkpt>
      <trkpt lat="44.30439" lon="3.65797">
        <ele>677.87</ele>
        <time>2022-08-08T08:48:21Z</time>
      </trkpt>
      <trkpt lat="44.30437" lon="3.658">
        <ele>677.39</ele>
        <time>2022-08-08T08:48:24Z</time>
      </trkpt>
      <trkpt lat="44.3042" lon="3.65815">
        <ele>676.91</ele>
        <time>2022-08-08T08:48:40Z</time>
      </trkpt>
      <trkpt lat="44.30409" lon="3.65829">
        <ele>675.94</ele>
        <time>2022-08-08T08:48:54Z</time>
      </trkpt>
      <trkpt lat="44.30399" lon="3.6585">
        <ele>672.1</ele>
        <time>2022-08-08T08:49:09Z</time>
      </trkpt>
      <trkpt lat="44.30394" lon="3.65867">
        <ele>672.58</ele>
        <time>2022-08-08T08:49:21Z</time>
      </trkpt>
      <trkpt lat="44.30382" lon="3.6589">
        <ele>668.25</ele>
        <time>2022-08-08T08:49:37Z</time>
      </trkpt>
      <trkpt lat="44.30373" lon="3.65906">
        <ele>665.37</ele>
        <time>2022-08-08T08:49:51Z</time>
      </trkpt>
      <trkpt lat="44.30362" lon="3.65928">
        <ele>665.85</ele>
        <time>2022-08-08T08:50:08Z</time>
      </trkpt>
      <trkpt lat="44.30356" lon="3.65952">
        <ele>662.49</ele>
        <time>2022-08-08T08:50:25Z</time>
      </trkpt>
      <trkpt lat="44.30349" lon="3.65971">
        <ele>660.08</ele>
        <time>2022-08-08T08:50:38Z</time>
      </trkpt>
      <trkpt lat="44.30344" lon="3.65988">
        <ele>656.24</ele>
        <time>2022-08-08T08:50:50Z</time>
      </trkpt>
      <trkpt lat="44.30339" lon="3.66011">
        <ele>652.87</ele>
        <time>2022-08-08T08:51:04Z</time>
      </trkpt>
      <trkpt lat="44.30334" lon="3.66027">
        <ele>649.99</ele>
        <time>2022-08-08T08:51:16Z</time>
      </trkpt>
      <trkpt lat="44.30326" lon="3.66048">
        <ele>645.18</ele>
        <time>2022-08-08T08:51:31Z</time>
      </trkpt>
      <trkpt lat="44.30318" lon="3.66064">
        <ele>642.78</ele>
        <time>2022-08-08T08:51:43Z</time>
      </trkpt>
      <trkpt lat="44.30308" lon="3.66086">
        <ele>642.3</ele>
        <time>2022-08-08T08:51:59Z</time>
      </trkpt>
      <trkpt lat="44.30299" lon="3.66106">
        <ele>641.82</ele>
        <time>2022-08-08T08:52:14Z</time>
      </trkpt>
      <trkpt lat="44.30289" lon="3.66128">
        <ele>637.01</ele>
        <time>2022-08-08T08:52:29Z</time>
      </trkpt>
      <trkpt lat="44.30281" lon="3.66146">
        <ele>635.09</ele>
        <time>2022-08-08T08:52:44Z</time>
      </trkpt>
      <trkpt lat="44.30275" lon="3.66167">
        <ele>636.05</ele>
        <time>2022-08-08T08:53:00Z</time>
      </trkpt>
      <trkpt lat="44.30266" lon="3.66189">
        <ele>634.61</ele>
        <time>2022-08-08T08:53:13Z</time>
      </trkpt>
      <trkpt lat="44.30259" lon="3.66206">
        <ele>631.24</ele>
        <time>2022-08-08T08:53:27Z</time>
      </trkpt>
      <trkpt lat="44.30252" lon="3.66221">
        <ele>628.36</ele>
        <time>2022-08-08T08:53:41Z</time>
      </trkpt>
      <trkpt lat="44.30239" lon="3.66237">
        <ele>624.03</ele>
        <time>2022-08-08T08:53:56Z</time>
      </trkpt>
      <trkpt lat="44.30227" lon="3.66259">
        <ele>617.3</ele>
        <time>2022-08-08T08:54:14Z</time>
      </trkpt>
      <trkpt lat="44.30215" lon="3.6628">
        <ele>616.82</ele>
        <time>2022-08-08T08:54:29Z</time>
      </trkpt>
      <trkpt lat="44.30208" lon="3.663">
        <ele>616.34</ele>
        <time>2022-08-08T08:54:45Z</time>
      </trkpt>
      <trkpt lat="44.30208" lon="3.66303">
        <ele>616.34</ele>
        <time>2022-08-08T08:54:46Z</time>
      </trkpt>
      <trkpt lat="44.30212" lon="3.66307">
        <ele>614.9</ele>
        <time>2022-08-08T08:54:51Z</time>
      </trkpt>
      <trkpt lat="44.30219" lon="3.66307">
        <ele>614.42</ele>
        <time>2022-08-08T08:55:02Z</time>
      </trkpt>
      <trkpt lat="44.30234" lon="3.66304">
        <ele>613.94</ele>
        <time>2022-08-08T08:55:17Z</time>
      </trkpt>
      <trkpt lat="44.30236" lon="3.66301">
        <ele>613.94</ele>
        <time>2022-08-08T08:55:37Z</time>
      </trkpt>
      <trkpt lat="44.30232" lon="3.66305">
        <ele>609.13</ele>
        <time>2022-08-08T08:56:00Z</time>
      </trkpt>
      <trkpt lat="44.30236" lon="3.66296">
        <ele>609.13</ele>
        <time>2022-08-08T08:56:15Z</time>
      </trkpt>
      <trkpt lat="44.30242" lon="3.66291">
        <ele>609.13</ele>
        <time>2022-08-08T08:56:22Z</time>
      </trkpt>
      <trkpt lat="44.30247" lon="3.66286">
        <ele>609.13</ele>
        <time>2022-08-08T08:56:28Z</time>
      </trkpt>
      <trkpt lat="44.30251" lon="3.6629">
        <ele>609.61</ele>
        <time>2022-08-08T08:56:39Z</time>
      </trkpt>
      <trkpt lat="44.30238" lon="3.66307">
        <ele>609.61</ele>
        <time>2022-08-08T08:56:54Z</time>
      </trkpt>
      <trkpt lat="44.30232" lon="3.66322">
        <ele>613.94</ele>
        <time>2022-08-08T08:57:05Z</time>
      </trkpt>
      <trkpt lat="44.30231" lon="3.66329">
        <ele>614.9</ele>
        <time>2022-08-08T08:57:09Z</time>
      </trkpt>
      <trkpt lat="44.30216" lon="3.66343">
        <ele>616.82</ele>
        <time>2022-08-08T08:57:24Z</time>
      </trkpt>
      <trkpt lat="44.302" lon="3.66351">
        <ele>617.3</ele>
        <time>2022-08-08T08:57:38Z</time>
      </trkpt>
      <trkpt lat="44.30196" lon="3.66352">
        <ele>617.78</ele>
        <time>2022-08-08T08:57:42Z</time>
      </trkpt>
      <trkpt lat="44.30179" lon="3.66351">
        <ele>618.75</ele>
        <time>2022-08-08T08:57:56Z</time>
      </trkpt>
      <trkpt lat="44.30167" lon="3.66349">
        <ele>619.23</ele>
        <time>2022-08-08T08:58:08Z</time>
      </trkpt>
      <trkpt lat="44.30161" lon="3.66347">
        <ele>619.23</ele>
        <time>2022-08-08T08:58:13Z</time>
      </trkpt>
      <trkpt lat="44.30146" lon="3.66341">
        <ele>619.23</ele>
        <time>2022-08-08T08:58:27Z</time>
      </trkpt>
      <trkpt lat="44.30139" lon="3.66336">
        <ele>619.23</ele>
        <time>2022-08-08T08:58:34Z</time>
      </trkpt>
      <trkpt lat="44.30132" lon="3.66337">
        <ele>619.71</ele>
        <time>2022-08-08T08:58:40Z</time>
      </trkpt>
      <trkpt lat="44.30124" lon="3.66349">
        <ele>619.23</ele>
        <time>2022-08-08T08:58:54Z</time>
      </trkpt>
      <trkpt lat="44.30121" lon="3.66354">
        <ele>618.26</ele>
        <time>2022-08-08T08:59:13Z</time>
      </trkpt>
      <trkpt lat="44.30113" lon="3.66372">
        <ele>616.34</ele>
        <time>2022-08-08T08:59:28Z</time>
      </trkpt>
      <trkpt lat="44.30106" lon="3.66383">
        <ele>614.9</ele>
        <time>2022-08-08T08:59:38Z</time>
      </trkpt>
      <trkpt lat="44.30098" lon="3.66388">
        <ele>613.94</ele>
        <time>2022-08-08T08:59:48Z</time>
      </trkpt>
      <trkpt lat="44.30083" lon="3.6638">
        <ele>614.42</ele>
        <time>2022-08-08T09:00:04Z</time>
      </trkpt>
      <trkpt lat="44.30071" lon="3.66374">
        <ele>613.46</ele>
        <time>2022-08-08T09:00:18Z</time>
      </trkpt>
      <trkpt lat="44.30056" lon="3.66371">
        <ele>611.54</ele>
        <time>2022-08-08T09:00:32Z</time>
      </trkpt>
      <trkpt lat="44.30045" lon="3.66375">
        <ele>609.61</ele>
        <time>2022-08-08T09:00:44Z</time>
      </trkpt>
      <trkpt lat="44.30041" lon="3.66376">
        <ele>610.09</ele>
        <time>2022-08-08T09:00:47Z</time>
      </trkpt>
      <trkpt lat="44.30036" lon="3.66382">
        <ele>609.61</ele>
        <time>2022-08-08T09:01:02Z</time>
      </trkpt>
      <trkpt lat="44.30038" lon="3.66386">
        <ele>608.65</ele>
        <time>2022-08-08T09:01:22Z</time>
      </trkpt>
      <trkpt lat="44.30042" lon="3.66388">
        <ele>610.57</ele>
        <time>2022-08-08T09:01:47Z</time>
      </trkpt>
      <trkpt lat="44.30038" lon="3.66391">
        <ele>612.02</ele>
        <time>2022-08-08T09:02:21Z</time>
      </trkpt>
      <trkpt lat="44.30045" lon="3.66391">
        <ele>612.98</ele>
        <time>2022-08-08T09:02:48Z</time>
      </trkpt>
      <trkpt lat="44.30043" lon="3.66386">
        <ele>612.98</ele>
        <time>2022-08-08T09:03:08Z</time>
      </trkpt>
      <trkpt lat="44.30045" lon="3.6638">
        <ele>612.02</ele>
        <time>2022-08-08T09:03:29Z</time>
      </trkpt>
      <trkpt lat="44.3004" lon="3.66381">
        <ele>612.98</ele>
        <time>2022-08-08T09:03:53Z</time>
      </trkpt>
      <trkpt lat="44.30032" lon="3.66397">
        <ele>621.63</ele>
        <time>2022-08-08T09:04:15Z</time>
      </trkpt>
      <trkpt lat="44.30034" lon="3.6639">
        <ele>618.75</ele>
        <time>2022-08-08T09:04:49Z</time>
      </trkpt>
      <trkpt lat="44.30037" lon="3.66386">
        <ele>621.15</ele>
        <time>2022-08-08T09:05:23Z</time>
      </trkpt>
      <trkpt lat="44.30028" lon="3.66388">
        <ele>620.19</ele>
        <time>2022-08-08T09:05:30Z</time>
      </trkpt>
      <trkpt lat="44.30024" lon="3.66389">
        <ele>619.71</ele>
        <time>2022-08-08T09:05:33Z</time>
      </trkpt>
      <trkpt lat="44.3002" lon="3.6639">
        <ele>619.23</ele>
        <time>2022-08-08T09:05:36Z</time>
      </trkpt>
      <trkpt lat="44.29994" lon="3.66389">
        <ele>629.32</ele>
        <time>2022-08-08T09:05:53Z</time>
      </trkpt>
      <trkpt lat="44.29978" lon="3.66401">
        <ele>628.36</ele>
        <time>2022-08-08T09:06:09Z</time>
      </trkpt>
      <trkpt lat="44.29974" lon="3.66405">
        <ele>628.36</ele>
        <time>2022-08-08T09:06:13Z</time>
      </trkpt>
      <trkpt lat="44.29969" lon="3.6641">
        <ele>627.4</ele>
        <time>2022-08-08T09:06:20Z</time>
      </trkpt>
      <trkpt lat="44.29967" lon="3.66411">
        <ele>626.44</ele>
        <time>2022-08-08T09:06:22Z</time>
      </trkpt>
      <trkpt lat="44.29961" lon="3.66417">
        <ele>624.51</ele>
        <time>2022-08-08T09:06:29Z</time>
      </trkpt>
      <trkpt lat="44.29953" lon="3.66422">
        <ele>622.59</ele>
        <time>2022-08-08T09:06:36Z</time>
      </trkpt>
      <trkpt lat="44.29942" lon="3.66432">
        <ele>622.11</ele>
        <time>2022-08-08T09:06:47Z</time>
      </trkpt>
      <trkpt lat="44.29938" lon="3.66435">
        <ele>622.59</ele>
        <time>2022-08-08T09:06:51Z</time>
      </trkpt>
      <trkpt lat="44.29925" lon="3.66442">
        <ele>622.11</ele>
        <time>2022-08-08T09:07:03Z</time>
      </trkpt>
      <trkpt lat="44.29914" lon="3.66453">
        <ele>620.19</ele>
        <time>2022-08-08T09:07:17Z</time>
      </trkpt>
      <trkpt lat="44.29902" lon="3.66462">
        <ele>616.82</ele>
        <time>2022-08-08T09:07:31Z</time>
      </trkpt>
      <trkpt lat="44.29884" lon="3.66472">
        <ele>614.42</ele>
        <time>2022-08-08T09:07:45Z</time>
      </trkpt>
      <trkpt lat="44.29881" lon="3.66473">
        <ele>613.94</ele>
        <time>2022-08-08T09:07:54Z</time>
      </trkpt>
      <trkpt lat="44.29868" lon="3.66476">
        <ele>614.42</ele>
        <time>2022-08-08T09:08:08Z</time>
      </trkpt>
      <trkpt lat="44.29854" lon="3.66483">
        <ele>621.63</ele>
        <time>2022-08-08T09:08:23Z</time>
      </trkpt>
      <trkpt lat="44.29851" lon="3.66487">
        <ele>621.63</ele>
        <time>2022-08-08T09:08:39Z</time>
      </trkpt>
      <trkpt lat="44.29843" lon="3.6649">
        <ele>622.11</ele>
        <time>2022-08-08T09:08:45Z</time>
      </trkpt>
      <trkpt lat="44.29824" lon="3.66502">
        <ele>624.03</ele>
        <time>2022-08-08T09:09:01Z</time>
      </trkpt>
      <trkpt lat="44.29808" lon="3.66518">
        <ele>624.99</ele>
        <time>2022-08-08T09:09:16Z</time>
      </trkpt>
      <trkpt lat="44.29798" lon="3.66534">
        <ele>624.51</ele>
        <time>2022-08-08T09:09:29Z</time>
      </trkpt>
      <trkpt lat="44.29794" lon="3.66544">
        <ele>623.55</ele>
        <time>2022-08-08T09:09:36Z</time>
      </trkpt>
      <trkpt lat="44.29793" lon="3.66549">
        <ele>622.59</ele>
        <time>2022-08-08T09:09:39Z</time>
      </trkpt>
      <trkpt lat="44.29783" lon="3.66576">
        <ele>622.59</ele>
        <time>2022-08-08T09:09:56Z</time>
      </trkpt>
      <trkpt lat="44.29781" lon="3.66583">
        <ele>623.07</ele>
        <time>2022-08-08T09:10:00Z</time>
      </trkpt>
      <trkpt lat="44.29776" lon="3.66609">
        <ele>624.51</ele>
        <time>2022-08-08T09:10:16Z</time>
      </trkpt>
      <trkpt lat="44.29775" lon="3.66637">
        <ele>619.23</ele>
        <time>2022-08-08T09:10:31Z</time>
      </trkpt>
      <trkpt lat="44.29775" lon="3.66651">
        <ele>619.23</ele>
        <time>2022-08-08T09:10:44Z</time>
      </trkpt>
      <trkpt lat="44.29773" lon="3.66657">
        <ele>619.23</ele>
        <time>2022-08-08T09:10:50Z</time>
      </trkpt>
      <trkpt lat="44.29772" lon="3.66678">
        <ele>617.78</ele>
        <time>2022-08-08T09:11:05Z</time>
      </trkpt>
      <trkpt lat="44.29769" lon="3.667">
        <ele>618.26</ele>
        <time>2022-08-08T09:11:19Z</time>
      </trkpt>
      <trkpt lat="44.29766" lon="3.66728">
        <ele>619.23</ele>
        <time>2022-08-08T09:11:36Z</time>
      </trkpt>
      <trkpt lat="44.29765" lon="3.6674">
        <ele>621.15</ele>
        <time>2022-08-08T09:11:43Z</time>
      </trkpt>
      <trkpt lat="44.29763" lon="3.66748">
        <ele>621.15</ele>
        <time>2022-08-08T09:11:48Z</time>
      </trkpt>
      <trkpt lat="44.29762" lon="3.66771">
        <ele>619.23</ele>
        <time>2022-08-08T09:12:01Z</time>
      </trkpt>
      <trkpt lat="44.29759" lon="3.66791">
        <ele>619.23</ele>
        <time>2022-08-08T09:12:14Z</time>
      </trkpt>
      <trkpt lat="44.29758" lon="3.6682">
        <ele>617.78</ele>
        <time>2022-08-08T09:12:29Z</time>
      </trkpt>
      <trkpt lat="44.29758" lon="3.66845">
        <ele>617.3</ele>
        <time>2022-08-08T09:12:44Z</time>
      </trkpt>
      <trkpt lat="44.29758" lon="3.66873">
        <ele>616.34</ele>
        <time>2022-08-08T09:13:01Z</time>
      </trkpt>
      <trkpt lat="44.29759" lon="3.66896">
        <ele>613.46</ele>
        <time>2022-08-08T09:13:16Z</time>
      </trkpt>
      <trkpt lat="44.29761" lon="3.66922">
        <ele>611.06</ele>
        <time>2022-08-08T09:13:33Z</time>
      </trkpt>
      <trkpt lat="44.29762" lon="3.66944">
        <ele>613.46</ele>
        <time>2022-08-08T09:13:46Z</time>
      </trkpt>
      <trkpt lat="44.29763" lon="3.66967">
        <ele>619.71</ele>
        <time>2022-08-08T09:13:59Z</time>
      </trkpt>
      <trkpt lat="44.29767" lon="3.66988">
        <ele>625.47</ele>
        <time>2022-08-08T09:14:13Z</time>
      </trkpt>
      <trkpt lat="44.2977" lon="3.66999">
        <ele>629.32</ele>
        <time>2022-08-08T09:14:20Z</time>
      </trkpt>
      <trkpt lat="44.29779" lon="3.67024">
        <ele>634.61</ele>
        <time>2022-08-08T09:14:36Z</time>
      </trkpt>
      <trkpt lat="44.29783" lon="3.67042">
        <ele>633.65</ele>
        <time>2022-08-08T09:14:49Z</time>
      </trkpt>
      <trkpt lat="44.29784" lon="3.67046">
        <ele>633.17</ele>
        <time>2022-08-08T09:14:51Z</time>
      </trkpt>
      <trkpt lat="44.29789" lon="3.6707">
        <ele>632.2</ele>
        <time>2022-08-08T09:15:06Z</time>
      </trkpt>
      <trkpt lat="44.29794" lon="3.67086">
        <ele>632.68</ele>
        <time>2022-08-08T09:15:18Z</time>
      </trkpt>
      <trkpt lat="44.29803" lon="3.67108">
        <ele>629.32</ele>
        <time>2022-08-08T09:15:31Z</time>
      </trkpt>
      <trkpt lat="44.29817" lon="3.6713">
        <ele>621.15</ele>
        <time>2022-08-08T09:15:48Z</time>
      </trkpt>
      <trkpt lat="44.29826" lon="3.67146">
        <ele>618.26</ele>
        <time>2022-08-08T09:16:02Z</time>
      </trkpt>
      <trkpt lat="44.29838" lon="3.67159">
        <ele>620.19</ele>
        <time>2022-08-08T09:16:16Z</time>
      </trkpt>
      <trkpt lat="44.29852" lon="3.67167">
        <ele>623.07</ele>
        <time>2022-08-08T09:16:31Z</time>
      </trkpt>
      <trkpt lat="44.29853" lon="3.67169">
        <ele>623.07</ele>
        <time>2022-08-08T09:16:33Z</time>
      </trkpt>
      <trkpt lat="44.29863" lon="3.67184">
        <ele>622.59</ele>
        <time>2022-08-08T09:16:45Z</time>
      </trkpt>
      <trkpt lat="44.2988" lon="3.672">
        <ele>624.51</ele>
        <time>2022-08-08T09:17:01Z</time>
      </trkpt>
      <trkpt lat="44.2989" lon="3.67211">
        <ele>627.88</ele>
        <time>2022-08-08T09:17:14Z</time>
      </trkpt>
      <trkpt lat="44.29902" lon="3.67226">
        <ele>629.8</ele>
        <time>2022-08-08T09:17:29Z</time>
      </trkpt>
      <trkpt lat="44.29909" lon="3.67246">
        <ele>632.2</ele>
        <time>2022-08-08T09:17:42Z</time>
      </trkpt>
      <trkpt lat="44.29912" lon="3.67253">
        <ele>632.68</ele>
        <time>2022-08-08T09:17:47Z</time>
      </trkpt>
      <trkpt lat="44.2992" lon="3.67274">
        <ele>635.09</ele>
        <time>2022-08-08T09:18:02Z</time>
      </trkpt>
      <trkpt lat="44.29925" lon="3.67297">
        <ele>638.93</ele>
        <time>2022-08-08T09:18:18Z</time>
      </trkpt>
      <trkpt lat="44.29926" lon="3.67299">
        <ele>639.41</ele>
        <time>2022-08-08T09:18:20Z</time>
      </trkpt>
      <trkpt lat="44.29928" lon="3.67304">
        <ele>639.41</ele>
        <time>2022-08-08T09:18:25Z</time>
      </trkpt>
      <trkpt lat="44.29932" lon="3.67319">
        <ele>636.53</ele>
        <time>2022-08-08T09:18:40Z</time>
      </trkpt>
      <trkpt lat="44.29929" lon="3.67337">
        <ele>635.57</ele>
        <time>2022-08-08T09:18:54Z</time>
      </trkpt>
      <trkpt lat="44.29929" lon="3.67348">
        <ele>637.49</ele>
        <time>2022-08-08T09:19:02Z</time>
      </trkpt>
      <trkpt lat="44.29926" lon="3.67365">
        <ele>641.82</ele>
        <time>2022-08-08T09:19:15Z</time>
      </trkpt>
      <trkpt lat="44.29924" lon="3.67379">
        <ele>648.55</ele>
        <time>2022-08-08T09:19:25Z</time>
      </trkpt>
      <trkpt lat="44.29915" lon="3.67397">
        <ele>655.76</ele>
        <time>2022-08-08T09:19:39Z</time>
      </trkpt>
      <trkpt lat="44.29914" lon="3.67418">
        <ele>659.6</ele>
        <time>2022-08-08T09:19:53Z</time>
      </trkpt>
      <trkpt lat="44.29915" lon="3.67427">
        <ele>659.6</ele>
        <time>2022-08-08T09:19:58Z</time>
      </trkpt>
      <trkpt lat="44.29919" lon="3.6745">
        <ele>658.64</ele>
        <time>2022-08-08T09:20:12Z</time>
      </trkpt>
      <trkpt lat="44.29924" lon="3.67474">
        <ele>657.68</ele>
        <time>2022-08-08T09:20:26Z</time>
      </trkpt>
      <trkpt lat="44.2992" lon="3.67508">
        <ele>641.82</ele>
        <time>2022-08-08T09:20:39Z</time>
      </trkpt>
      <trkpt lat="44.29924" lon="3.67518">
        <ele>639.41</ele>
        <time>2022-08-08T09:20:45Z</time>
      </trkpt>
      <trkpt lat="44.29928" lon="3.67535">
        <ele>635.57</ele>
        <time>2022-08-08T09:20:54Z</time>
      </trkpt>
      <trkpt lat="44.29932" lon="3.67547">
        <ele>633.65</ele>
        <time>2022-08-08T09:21:01Z</time>
      </trkpt>
      <trkpt lat="44.29933" lon="3.67551">
        <ele>633.65</ele>
        <time>2022-08-08T09:21:04Z</time>
      </trkpt>
      <trkpt lat="44.2994" lon="3.67574">
        <ele>633.65</ele>
        <time>2022-08-08T09:21:18Z</time>
      </trkpt>
      <trkpt lat="44.29947" lon="3.67596">
        <ele>632.68</ele>
        <time>2022-08-08T09:21:33Z</time>
      </trkpt>
      <trkpt lat="44.29954" lon="3.67617">
        <ele>631.72</ele>
        <time>2022-08-08T09:21:46Z</time>
      </trkpt>
      <trkpt lat="44.29963" lon="3.67638">
        <ele>630.28</ele>
        <time>2022-08-08T09:22:01Z</time>
      </trkpt>
      <trkpt lat="44.29964" lon="3.6764">
        <ele>630.28</ele>
        <time>2022-08-08T09:22:03Z</time>
      </trkpt>
      <trkpt lat="44.29972" lon="3.67655">
        <ele>629.8</ele>
        <time>2022-08-08T09:22:15Z</time>
      </trkpt>
      <trkpt lat="44.29978" lon="3.67664">
        <ele>630.28</ele>
        <time>2022-08-08T09:22:22Z</time>
      </trkpt>
      <trkpt lat="44.2999" lon="3.67682">
        <ele>631.24</ele>
        <time>2022-08-08T09:22:36Z</time>
      </trkpt>
      <trkpt lat="44.30001" lon="3.67698">
        <ele>632.2</ele>
        <time>2022-08-08T09:22:49Z</time>
      </trkpt>
      <trkpt lat="44.30009" lon="3.67717">
        <ele>631.72</ele>
        <time>2022-08-08T09:23:02Z</time>
      </trkpt>
      <trkpt lat="44.30009" lon="3.6772">
        <ele>631.72</ele>
        <time>2022-08-08T09:23:04Z</time>
      </trkpt>
      <trkpt lat="44.30015" lon="3.67738">
        <ele>629.8</ele>
        <time>2022-08-08T09:23:18Z</time>
      </trkpt>
      <trkpt lat="44.30015" lon="3.67741">
        <ele>629.8</ele>
        <time>2022-08-08T09:23:20Z</time>
      </trkpt>
      <trkpt lat="44.30015" lon="3.67758">
        <ele>630.76</ele>
        <time>2022-08-08T09:23:33Z</time>
      </trkpt>
      <trkpt lat="44.30019" lon="3.67779">
        <ele>633.65</ele>
        <time>2022-08-08T09:23:45Z</time>
      </trkpt>
      <trkpt lat="44.30022" lon="3.67803">
        <ele>632.2</ele>
        <time>2022-08-08T09:24:01Z</time>
      </trkpt>
      <trkpt lat="44.30019" lon="3.67827">
        <ele>632.2</ele>
        <time>2022-08-08T09:24:17Z</time>
      </trkpt>
      <trkpt lat="44.30013" lon="3.67849">
        <ele>636.05</ele>
        <time>2022-08-08T09:24:33Z</time>
      </trkpt>
      <trkpt lat="44.30004" lon="3.67864">
        <ele>637.49</ele>
        <time>2022-08-08T09:24:44Z</time>
      </trkpt>
      <trkpt lat="44.29996" lon="3.67881">
        <ele>637.97</ele>
        <time>2022-08-08T09:24:58Z</time>
      </trkpt>
      <trkpt lat="44.29995" lon="3.67883">
        <ele>637.97</ele>
        <time>2022-08-08T09:25:00Z</time>
      </trkpt>
      <trkpt lat="44.29989" lon="3.67894">
        <ele>637.97</ele>
        <time>2022-08-08T09:25:08Z</time>
      </trkpt>
      <trkpt lat="44.2998" lon="3.67913">
        <ele>638.45</ele>
        <time>2022-08-08T09:25:23Z</time>
      </trkpt>
      <trkpt lat="44.29967" lon="3.67928">
        <ele>642.3</ele>
        <time>2022-08-08T09:25:37Z</time>
      </trkpt>
      <trkpt lat="44.29957" lon="3.67946">
        <ele>643.26</ele>
        <time>2022-08-08T09:25:50Z</time>
      </trkpt>
      <trkpt lat="44.29955" lon="3.67953">
        <ele>641.82</ele>
        <time>2022-08-08T09:25:57Z</time>
      </trkpt>
      <trkpt lat="44.29939" lon="3.67975">
        <ele>642.3</ele>
        <time>2022-08-08T09:26:13Z</time>
      </trkpt>
      <trkpt lat="44.29934" lon="3.67983">
        <ele>642.3</ele>
        <time>2022-08-08T09:26:19Z</time>
      </trkpt>
      <trkpt lat="44.29934" lon="3.67985">
        <ele>642.3</ele>
        <time>2022-08-08T09:26:21Z</time>
      </trkpt>
      <trkpt lat="44.29922" lon="3.67996">
        <ele>644.7</ele>
        <time>2022-08-08T09:26:32Z</time>
      </trkpt>
      <trkpt lat="44.29915" lon="3.6801">
        <ele>647.59</ele>
        <time>2022-08-08T09:26:43Z</time>
      </trkpt>
      <trkpt lat="44.29915" lon="3.68015">
        <ele>648.55</ele>
        <time>2022-08-08T09:26:50Z</time>
      </trkpt>
      <trkpt lat="44.2991" lon="3.68078">
        <ele>648.07</ele>
        <time>2022-08-08T09:27:16Z</time>
      </trkpt>
      <trkpt lat="44.29905" lon="3.68088">
        <ele>647.59</ele>
        <time>2022-08-08T09:27:20Z</time>
      </trkpt>
      <trkpt lat="44.29896" lon="3.68092">
        <ele>644.7</ele>
        <time>2022-08-08T09:27:33Z</time>
      </trkpt>
      <trkpt lat="44.29888" lon="3.68106">
        <ele>640.38</ele>
        <time>2022-08-08T09:27:45Z</time>
      </trkpt>
      <trkpt lat="44.29881" lon="3.68121">
        <ele>637.49</ele>
        <time>2022-08-08T09:27:56Z</time>
      </trkpt>
      <trkpt lat="44.29881" lon="3.68129">
        <ele>637.97</ele>
        <time>2022-08-08T09:28:01Z</time>
      </trkpt>
      <trkpt lat="44.29884" lon="3.68143">
        <ele>637.49</ele>
        <time>2022-08-08T09:28:09Z</time>
      </trkpt>
      <trkpt lat="44.29876" lon="3.68165">
        <ele>637.01</ele>
        <time>2022-08-08T09:28:26Z</time>
      </trkpt>
      <trkpt lat="44.29869" lon="3.68184">
        <ele>637.49</ele>
        <time>2022-08-08T09:28:41Z</time>
      </trkpt>
      <trkpt lat="44.29868" lon="3.68189">
        <ele>638.45</ele>
        <time>2022-08-08T09:28:44Z</time>
      </trkpt>
      <trkpt lat="44.29856" lon="3.68203">
        <ele>647.59</ele>
        <time>2022-08-08T09:28:59Z</time>
      </trkpt>
      <trkpt lat="44.2985" lon="3.6821">
        <ele>651.91</ele>
        <time>2022-08-08T09:29:06Z</time>
      </trkpt>
      <trkpt lat="44.2984" lon="3.68214">
        <ele>650.95</ele>
        <time>2022-08-08T09:29:21Z</time>
      </trkpt>
      <trkpt lat="44.29855" lon="3.68236">
        <ele>646.62</ele>
        <time>2022-08-08T09:29:49Z</time>
      </trkpt>
      <trkpt lat="44.29853" lon="3.68241">
        <ele>646.14</ele>
        <time>2022-08-08T09:29:59Z</time>
      </trkpt>
      <trkpt lat="44.29845" lon="3.68256">
        <ele>648.55</ele>
        <time>2022-08-08T09:30:13Z</time>
      </trkpt>
      <trkpt lat="44.29835" lon="3.68268">
        <ele>651.91</ele>
        <time>2022-08-08T09:30:26Z</time>
      </trkpt>
      <trkpt lat="44.29825" lon="3.68284">
        <ele>656.24</ele>
        <time>2022-08-08T09:30:41Z</time>
      </trkpt>
      <trkpt lat="44.29807" lon="3.683">
        <ele>665.37</ele>
        <time>2022-08-08T09:30:57Z</time>
      </trkpt>
      <trkpt lat="44.29805" lon="3.68301">
        <ele>666.81</ele>
        <time>2022-08-08T09:30:59Z</time>
      </trkpt>
      <trkpt lat="44.29799" lon="3.68304">
        <ele>669.7</ele>
        <time>2022-08-08T09:31:04Z</time>
      </trkpt>
      <trkpt lat="44.29787" lon="3.68319">
        <ele>670.18</ele>
        <time>2022-08-08T09:31:18Z</time>
      </trkpt>
      <trkpt lat="44.2977" lon="3.68328">
        <ele>675.46</ele>
        <time>2022-08-08T09:31:32Z</time>
      </trkpt>
      <trkpt lat="44.29761" lon="3.68344">
        <ele>669.7</ele>
        <time>2022-08-08T09:31:47Z</time>
      </trkpt>
      <trkpt lat="44.29754" lon="3.6835">
        <ele>666.33</ele>
        <time>2022-08-08T09:32:00Z</time>
      </trkpt>
      <trkpt lat="44.29751" lon="3.6835">
        <ele>666.33</ele>
        <time>2022-08-08T09:32:02Z</time>
      </trkpt>
      <trkpt lat="44.29737" lon="3.68352">
        <ele>665.37</ele>
        <time>2022-08-08T09:32:16Z</time>
      </trkpt>
      <trkpt lat="44.29715" lon="3.68349">
        <ele>665.37</ele>
        <time>2022-08-08T09:32:31Z</time>
      </trkpt>
      <trkpt lat="44.29702" lon="3.68355">
        <ele>666.81</ele>
        <time>2022-08-08T09:32:42Z</time>
      </trkpt>
      <trkpt lat="44.29683" lon="3.68356">
        <ele>665.37</ele>
        <time>2022-08-08T09:32:57Z</time>
      </trkpt>
      <trkpt lat="44.29671" lon="3.6836">
        <ele>666.33</ele>
        <time>2022-08-08T09:33:10Z</time>
      </trkpt>
      <trkpt lat="44.29662" lon="3.68367">
        <ele>666.81</ele>
        <time>2022-08-08T09:33:24Z</time>
      </trkpt>
      <trkpt lat="44.29651" lon="3.68373">
        <ele>665.85</ele>
        <time>2022-08-08T09:33:37Z</time>
      </trkpt>
      <trkpt lat="44.29639" lon="3.68379">
        <ele>665.85</ele>
        <time>2022-08-08T09:33:50Z</time>
      </trkpt>
      <trkpt lat="44.29625" lon="3.68385">
        <ele>666.81</ele>
        <time>2022-08-08T09:34:02Z</time>
      </trkpt>
      <trkpt lat="44.29609" lon="3.68389">
        <ele>665.85</ele>
        <time>2022-08-08T09:34:14Z</time>
      </trkpt>
      <trkpt lat="44.29595" lon="3.68384">
        <ele>662.49</ele>
        <time>2022-08-08T09:34:30Z</time>
      </trkpt>
      <trkpt lat="44.29583" lon="3.68372">
        <ele>660.56</ele>
        <time>2022-08-08T09:34:44Z</time>
      </trkpt>
      <trkpt lat="44.29583" lon="3.68371">
        <ele>660.56</ele>
        <time>2022-08-08T09:34:45Z</time>
      </trkpt>
      <trkpt lat="44.29558" lon="3.68355">
        <ele>664.89</ele>
        <time>2022-08-08T09:35:02Z</time>
      </trkpt>
      <trkpt lat="44.29548" lon="3.68346">
        <ele>662.97</ele>
        <time>2022-08-08T09:35:16Z</time>
      </trkpt>
      <trkpt lat="44.29545" lon="3.68338">
        <ele>660.56</ele>
        <time>2022-08-08T09:35:29Z</time>
      </trkpt>
      <trkpt lat="44.29444" lon="3.68374">
        <ele>656.24</ele>
        <time>2022-08-08T09:36:41Z</time>
      </trkpt>
      <trkpt lat="44.29444" lon="3.68375">
        <ele>652.39</ele>
        <time>2022-08-08T09:36:42Z</time>
      </trkpt>
      <trkpt lat="44.29375" lon="3.68349">
        <ele>717.28</ele>
        <time>2022-08-08T09:36:59Z</time>
      </trkpt>
      <trkpt lat="44.29355" lon="3.68359">
        <ele>732.18</ele>
        <time>2022-08-08T09:37:14Z</time>
      </trkpt>
      <trkpt lat="44.29353" lon="3.6836">
        <ele>732.18</ele>
        <time>2022-08-08T09:37:16Z</time>
      </trkpt>
      <trkpt lat="44.29351" lon="3.68365">
        <ele>732.18</ele>
        <time>2022-08-08T09:37:19Z</time>
      </trkpt>
      <trkpt lat="44.29341" lon="3.68379">
        <ele>733.14</ele>
        <time>2022-08-08T09:37:32Z</time>
      </trkpt>
      <trkpt lat="44.29335" lon="3.68388">
        <ele>731.7</ele>
        <time>2022-08-08T09:37:42Z</time>
      </trkpt>
      <trkpt lat="44.29317" lon="3.68397">
        <ele>733.14</ele>
        <time>2022-08-08T09:37:56Z</time>
      </trkpt>
      <trkpt lat="44.29306" lon="3.68409">
        <ele>726.89</ele>
        <time>2022-08-08T09:38:10Z</time>
      </trkpt>
      <trkpt lat="44.29302" lon="3.68418">
        <ele>718.72</ele>
        <time>2022-08-08T09:38:19Z</time>
      </trkpt>
      <trkpt lat="44.29297" lon="3.6843">
        <ele>710.07</ele>
        <time>2022-08-08T09:38:32Z</time>
      </trkpt>
      <trkpt lat="44.29291" lon="3.6844">
        <ele>701.9</ele>
        <time>2022-08-08T09:38:44Z</time>
      </trkpt>
      <trkpt lat="44.29288" lon="3.68452">
        <ele>691.33</ele>
        <time>2022-08-08T09:38:57Z</time>
      </trkpt>
      <trkpt lat="44.29281" lon="3.6846">
        <ele>683.63</ele>
        <time>2022-08-08T09:39:11Z</time>
      </trkpt>
      <trkpt lat="44.29267" lon="3.6847">
        <ele>675.94</ele>
        <time>2022-08-08T09:39:24Z</time>
      </trkpt>
      <trkpt lat="44.29264" lon="3.68471">
        <ele>675.46</ele>
        <time>2022-08-08T09:39:26Z</time>
      </trkpt>
      <trkpt lat="44.2925" lon="3.68483">
        <ele>671.62</ele>
        <time>2022-08-08T09:39:38Z</time>
      </trkpt>
      <trkpt lat="44.29242" lon="3.68499">
        <ele>663.45</ele>
        <time>2022-08-08T09:39:47Z</time>
      </trkpt>
      <trkpt lat="44.29235" lon="3.68522">
        <ele>656.24</ele>
        <time>2022-08-08T09:40:03Z</time>
      </trkpt>
      <trkpt lat="44.29234" lon="3.68529">
        <ele>654.31</ele>
        <time>2022-08-08T09:40:08Z</time>
      </trkpt>
      <trkpt lat="44.29231" lon="3.68555">
        <ele>649.99</ele>
        <time>2022-08-08T09:40:23Z</time>
      </trkpt>
      <trkpt lat="44.29226" lon="3.68578">
        <ele>648.55</ele>
        <time>2022-08-08T09:40:38Z</time>
      </trkpt>
      <trkpt lat="44.29225" lon="3.68586">
        <ele>648.55</ele>
        <time>2022-08-08T09:40:43Z</time>
      </trkpt>
      <trkpt lat="44.29226" lon="3.68595">
        <ele>649.51</ele>
        <time>2022-08-08T09:40:48Z</time>
      </trkpt>
      <trkpt lat="44.29229" lon="3.68604">
        <ele>650.95</ele>
        <time>2022-08-08T09:40:53Z</time>
      </trkpt>
      <trkpt lat="44.29229" lon="3.68626">
        <ele>650.95</ele>
        <time>2022-08-08T09:41:07Z</time>
      </trkpt>
      <trkpt lat="44.29229" lon="3.68628">
        <ele>651.43</ele>
        <time>2022-08-08T09:41:08Z</time>
      </trkpt>
      <trkpt lat="44.29227" lon="3.68637">
        <ele>651.43</ele>
        <time>2022-08-08T09:41:14Z</time>
      </trkpt>
      <trkpt lat="44.29222" lon="3.68657">
        <ele>652.39</ele>
        <time>2022-08-08T09:41:27Z</time>
      </trkpt>
      <trkpt lat="44.29221" lon="3.68662">
        <ele>652.87</ele>
        <time>2022-08-08T09:41:31Z</time>
      </trkpt>
      <trkpt lat="44.29215" lon="3.68673">
        <ele>654.8</ele>
        <time>2022-08-08T09:41:39Z</time>
      </trkpt>
      <trkpt lat="44.29205" lon="3.68701">
        <ele>654.8</ele>
        <time>2022-08-08T09:41:59Z</time>
      </trkpt>
      <trkpt lat="44.29204" lon="3.68703">
        <ele>654.8</ele>
        <time>2022-08-08T09:42:01Z</time>
      </trkpt>
      <trkpt lat="44.29195" lon="3.68718">
        <ele>654.8</ele>
        <time>2022-08-08T09:42:14Z</time>
      </trkpt>
      <trkpt lat="44.29186" lon="3.68729">
        <ele>653.83</ele>
        <time>2022-08-08T09:42:28Z</time>
      </trkpt>
      <trkpt lat="44.29178" lon="3.68742">
        <ele>653.35</ele>
        <time>2022-08-08T09:42:42Z</time>
      </trkpt>
      <trkpt lat="44.2917" lon="3.68753">
        <ele>653.35</ele>
        <time>2022-08-08T09:42:52Z</time>
      </trkpt>
      <trkpt lat="44.29162" lon="3.68765">
        <ele>652.87</ele>
        <time>2022-08-08T09:43:04Z</time>
      </trkpt>
      <trkpt lat="44.29146" lon="3.68772">
        <ele>652.87</ele>
        <time>2022-08-08T09:43:18Z</time>
      </trkpt>
      <trkpt lat="44.29132" lon="3.6878">
        <ele>652.39</ele>
        <time>2022-08-08T09:43:32Z</time>
      </trkpt>
      <trkpt lat="44.29121" lon="3.68787">
        <ele>651.43</ele>
        <time>2022-08-08T09:43:45Z</time>
      </trkpt>
      <trkpt lat="44.2911" lon="3.68794">
        <ele>650.95</ele>
        <time>2022-08-08T09:43:58Z</time>
      </trkpt>
      <trkpt lat="44.291" lon="3.688">
        <ele>649.99</ele>
        <time>2022-08-08T09:44:10Z</time>
      </trkpt>
      <trkpt lat="44.29088" lon="3.68811">
        <ele>648.07</ele>
        <time>2022-08-08T09:44:24Z</time>
      </trkpt>
      <trkpt lat="44.29076" lon="3.68817">
        <ele>646.62</ele>
        <time>2022-08-08T09:44:37Z</time>
      </trkpt>
      <trkpt lat="44.29059" lon="3.68822">
        <ele>646.14</ele>
        <time>2022-08-08T09:44:49Z</time>
      </trkpt>
      <trkpt lat="44.29038" lon="3.68836">
        <ele>645.18</ele>
        <time>2022-08-08T09:45:03Z</time>
      </trkpt>
      <trkpt lat="44.29029" lon="3.68852">
        <ele>647.1</ele>
        <time>2022-08-08T09:45:15Z</time>
      </trkpt>
      <trkpt lat="44.29016" lon="3.68865">
        <ele>650.47</ele>
        <time>2022-08-08T09:45:28Z</time>
      </trkpt>
      <trkpt lat="44.29007" lon="3.68869">
        <ele>651.91</ele>
        <time>2022-08-08T09:45:32Z</time>
      </trkpt>
      <trkpt lat="44.28991" lon="3.68885">
        <ele>655.76</ele>
        <time>2022-08-08T09:45:44Z</time>
      </trkpt>
      <trkpt lat="44.28973" lon="3.68901">
        <ele>656.72</ele>
        <time>2022-08-08T09:45:58Z</time>
      </trkpt>
      <trkpt lat="44.28949" lon="3.68912">
        <ele>658.64</ele>
        <time>2022-08-08T09:46:12Z</time>
      </trkpt>
      <trkpt lat="44.28934" lon="3.68929">
        <ele>661.04</ele>
        <time>2022-08-08T09:46:26Z</time>
      </trkpt>
      <trkpt lat="44.28923" lon="3.68941">
        <ele>662.01</ele>
        <time>2022-08-08T09:46:38Z</time>
      </trkpt>
      <trkpt lat="44.28911" lon="3.68954">
        <ele>662.49</ele>
        <time>2022-08-08T09:46:55Z</time>
      </trkpt>
      <trkpt lat="44.28902" lon="3.6896">
        <ele>660.56</ele>
        <time>2022-08-08T09:47:09Z</time>
      </trkpt>
      <trkpt lat="44.28893" lon="3.68964">
        <ele>659.6</ele>
        <time>2022-08-08T09:47:23Z</time>
      </trkpt>
      <trkpt lat="44.28883" lon="3.68962">
        <ele>660.56</ele>
        <time>2022-08-08T09:47:35Z</time>
      </trkpt>
      <trkpt lat="44.28867" lon="3.68955">
        <ele>661.04</ele>
        <time>2022-08-08T09:47:49Z</time>
      </trkpt>
      <trkpt lat="44.28865" lon="3.68952">
        <ele>661.52</ele>
        <time>2022-08-08T09:47:52Z</time>
      </trkpt>
      <trkpt lat="44.28861" lon="3.68949">
        <ele>661.52</ele>
        <time>2022-08-08T09:47:59Z</time>
      </trkpt>
      <trkpt lat="44.28842" lon="3.68935">
        <ele>662.49</ele>
        <time>2022-08-08T09:48:14Z</time>
      </trkpt>
      <trkpt lat="44.28836" lon="3.68933">
        <ele>662.97</ele>
        <time>2022-08-08T09:48:18Z</time>
      </trkpt>
      <trkpt lat="44.28821" lon="3.68926">
        <ele>662.97</ele>
        <time>2022-08-08T09:48:30Z</time>
      </trkpt>
      <trkpt lat="44.28806" lon="3.68918">
        <ele>663.45</ele>
        <time>2022-08-08T09:48:41Z</time>
      </trkpt>
      <trkpt lat="44.28782" lon="3.68921">
        <ele>661.52</ele>
        <time>2022-08-08T09:48:55Z</time>
      </trkpt>
      <trkpt lat="44.28762" lon="3.6893">
        <ele>659.6</ele>
        <time>2022-08-08T09:49:10Z</time>
      </trkpt>
      <trkpt lat="44.2875" lon="3.68935">
        <ele>659.6</ele>
        <time>2022-08-08T09:49:19Z</time>
      </trkpt>
      <trkpt lat="44.28731" lon="3.68943">
        <ele>658.64</ele>
        <time>2022-08-08T09:49:34Z</time>
      </trkpt>
      <trkpt lat="44.28716" lon="3.68952">
        <ele>658.64</ele>
        <time>2022-08-08T09:49:46Z</time>
      </trkpt>
      <trkpt lat="44.287" lon="3.68962">
        <ele>658.64</ele>
        <time>2022-08-08T09:49:59Z</time>
      </trkpt>
      <trkpt lat="44.28699" lon="3.68963">
        <ele>658.64</ele>
        <time>2022-08-08T09:50:00Z</time>
      </trkpt>
      <trkpt lat="44.28696" lon="3.68966">
        <ele>658.64</ele>
        <time>2022-08-08T09:50:04Z</time>
      </trkpt>
      <trkpt lat="44.28674" lon="3.68977">
        <ele>658.16</ele>
        <time>2022-08-08T09:50:20Z</time>
      </trkpt>
      <trkpt lat="44.28662" lon="3.68984">
        <ele>658.16</ele>
        <time>2022-08-08T09:50:29Z</time>
      </trkpt>
      <trkpt lat="44.28649" lon="3.68995">
        <ele>657.68</ele>
        <time>2022-08-08T09:50:42Z</time>
      </trkpt>
      <trkpt lat="44.28639" lon="3.69006">
        <ele>657.2</ele>
        <time>2022-08-08T09:50:53Z</time>
      </trkpt>
      <trkpt lat="44.28633" lon="3.69009">
        <ele>657.2</ele>
        <time>2022-08-08T09:50:58Z</time>
      </trkpt>
      <trkpt lat="44.2862" lon="3.69027">
        <ele>656.24</ele>
        <time>2022-08-08T09:51:15Z</time>
      </trkpt>
      <trkpt lat="44.28617" lon="3.69032">
        <ele>656.24</ele>
        <time>2022-08-08T09:51:19Z</time>
      </trkpt>
      <trkpt lat="44.28613" lon="3.69036">
        <ele>655.76</ele>
        <time>2022-08-08T09:51:24Z</time>
      </trkpt>
      <trkpt lat="44.28601" lon="3.69047">
        <ele>655.76</ele>
        <time>2022-08-08T09:51:36Z</time>
      </trkpt>
      <trkpt lat="44.28587" lon="3.69063">
        <ele>656.24</ele>
        <time>2022-08-08T09:51:51Z</time>
      </trkpt>
      <trkpt lat="44.28582" lon="3.69068">
        <ele>656.72</ele>
        <time>2022-08-08T09:51:56Z</time>
      </trkpt>
      <trkpt lat="44.28573" lon="3.69079">
        <ele>658.16</ele>
        <time>2022-08-08T09:52:06Z</time>
      </trkpt>
      <trkpt lat="44.28567" lon="3.69086">
        <ele>659.12</ele>
        <time>2022-08-08T09:52:12Z</time>
      </trkpt>
      <trkpt lat="44.28556" lon="3.69103">
        <ele>657.68</ele>
        <time>2022-08-08T09:52:26Z</time>
      </trkpt>
      <trkpt lat="44.28553" lon="3.69107">
        <ele>657.2</ele>
        <time>2022-08-08T09:52:29Z</time>
      </trkpt>
      <trkpt lat="44.28542" lon="3.69125">
        <ele>657.2</ele>
        <time>2022-08-08T09:52:41Z</time>
      </trkpt>
      <trkpt lat="44.28537" lon="3.69142">
        <ele>656.72</ele>
        <time>2022-08-08T09:52:51Z</time>
      </trkpt>
      <trkpt lat="44.28534" lon="3.69158">
        <ele>656.72</ele>
        <time>2022-08-08T09:53:00Z</time>
      </trkpt>
      <trkpt lat="44.2853" lon="3.69163">
        <ele>656.72</ele>
        <time>2022-08-08T09:53:04Z</time>
      </trkpt>
      <trkpt lat="44.28524" lon="3.69173">
        <ele>657.2</ele>
        <time>2022-08-08T09:53:12Z</time>
      </trkpt>
      <trkpt lat="44.28518" lon="3.6918">
        <ele>657.68</ele>
        <time>2022-08-08T09:53:18Z</time>
      </trkpt>
      <trkpt lat="44.28518" lon="3.69183">
        <ele>657.68</ele>
        <time>2022-08-08T09:53:20Z</time>
      </trkpt>
      <trkpt lat="44.28499" lon="3.69201">
        <ele>662.49</ele>
        <time>2022-08-08T09:53:34Z</time>
      </trkpt>
      <trkpt lat="44.28458" lon="3.69195">
        <ele>686.04</ele>
        <time>2022-08-08T09:53:48Z</time>
      </trkpt>
      <trkpt lat="44.28454" lon="3.69209">
        <ele>687</ele>
        <time>2022-08-08T09:54:00Z</time>
      </trkpt>
      <trkpt lat="44.28449" lon="3.69221">
        <ele>685.08</ele>
        <time>2022-08-08T09:54:11Z</time>
      </trkpt>
      <trkpt lat="44.28442" lon="3.69242">
        <ele>682.67</ele>
        <time>2022-08-08T09:54:25Z</time>
      </trkpt>
      <trkpt lat="44.28438" lon="3.69248">
        <ele>681.71</ele>
        <time>2022-08-08T09:54:29Z</time>
      </trkpt>
      <trkpt lat="44.28435" lon="3.69258">
        <ele>680.75</ele>
        <time>2022-08-08T09:54:35Z</time>
      </trkpt>
      <trkpt lat="44.28425" lon="3.69275">
        <ele>680.75</ele>
        <time>2022-08-08T09:54:48Z</time>
      </trkpt>
      <trkpt lat="44.28417" lon="3.69286">
        <ele>681.23</ele>
        <time>2022-08-08T09:54:59Z</time>
      </trkpt>
      <trkpt lat="44.28404" lon="3.69294">
        <ele>682.67</ele>
        <time>2022-08-08T09:55:10Z</time>
      </trkpt>
      <trkpt lat="44.284" lon="3.69299">
        <ele>683.15</ele>
        <time>2022-08-08T09:55:14Z</time>
      </trkpt>
      <trkpt lat="44.28397" lon="3.69303">
        <ele>682.19</ele>
        <time>2022-08-08T09:55:17Z</time>
      </trkpt>
      <trkpt lat="44.28382" lon="3.69319">
        <ele>682.19</ele>
        <time>2022-08-08T09:55:31Z</time>
      </trkpt>
      <trkpt lat="44.28369" lon="3.69325">
        <ele>682.67</ele>
        <time>2022-08-08T09:55:39Z</time>
      </trkpt>
      <trkpt lat="44.28352" lon="3.69345">
        <ele>680.27</ele>
        <time>2022-08-08T09:55:55Z</time>
      </trkpt>
      <trkpt lat="44.28337" lon="3.69357">
        <ele>680.27</ele>
        <time>2022-08-08T09:56:09Z</time>
      </trkpt>
      <trkpt lat="44.28336" lon="3.69358">
        <ele>680.27</ele>
        <time>2022-08-08T09:56:10Z</time>
      </trkpt>
      <trkpt lat="44.28331" lon="3.69362">
        <ele>680.27</ele>
        <time>2022-08-08T09:56:14Z</time>
      </trkpt>
      <trkpt lat="44.28323" lon="3.69364">
        <ele>680.75</ele>
        <time>2022-08-08T09:56:19Z</time>
      </trkpt>
      <trkpt lat="44.28309" lon="3.69377">
        <ele>682.19</ele>
        <time>2022-08-08T09:56:34Z</time>
      </trkpt>
      <trkpt lat="44.28296" lon="3.6939">
        <ele>682.19</ele>
        <time>2022-08-08T09:56:48Z</time>
      </trkpt>
      <trkpt lat="44.28289" lon="3.69404">
        <ele>681.23</ele>
        <time>2022-08-08T09:56:59Z</time>
      </trkpt>
      <trkpt lat="44.28283" lon="3.69424">
        <ele>679.79</ele>
        <time>2022-08-08T09:57:13Z</time>
      </trkpt>
      <trkpt lat="44.28276" lon="3.69438">
        <ele>678.35</ele>
        <time>2022-08-08T09:57:25Z</time>
      </trkpt>
      <trkpt lat="44.28264" lon="3.69452">
        <ele>676.42</ele>
        <time>2022-08-08T09:57:39Z</time>
      </trkpt>
      <trkpt lat="44.28256" lon="3.6946">
        <ele>674.98</ele>
        <time>2022-08-08T09:57:46Z</time>
      </trkpt>
      <trkpt lat="44.28244" lon="3.69476">
        <ele>671.62</ele>
        <time>2022-08-08T09:57:58Z</time>
      </trkpt>
      <trkpt lat="44.2824" lon="3.69507">
        <ele>669.7</ele>
        <time>2022-08-08T09:58:14Z</time>
      </trkpt>
      <trkpt lat="44.28239" lon="3.69534">
        <ele>669.22</ele>
        <time>2022-08-08T09:58:28Z</time>
      </trkpt>
      <trkpt lat="44.28237" lon="3.69546">
        <ele>668.25</ele>
        <time>2022-08-08T09:58:35Z</time>
      </trkpt>
      <trkpt lat="44.28229" lon="3.69574">
        <ele>667.77</ele>
        <time>2022-08-08T09:58:52Z</time>
      </trkpt>
      <trkpt lat="44.28227" lon="3.69581">
        <ele>667.77</ele>
        <time>2022-08-08T09:58:56Z</time>
      </trkpt>
      <trkpt lat="44.28226" lon="3.69589">
        <ele>667.29</ele>
        <time>2022-08-08T09:59:01Z</time>
      </trkpt>
      <trkpt lat="44.28217" lon="3.69609">
        <ele>666.81</ele>
        <time>2022-08-08T09:59:16Z</time>
      </trkpt>
      <trkpt lat="44.28214" lon="3.69613">
        <ele>665.85</ele>
        <time>2022-08-08T09:59:20Z</time>
      </trkpt>
      <trkpt lat="44.28207" lon="3.69617">
        <ele>664.41</ele>
        <time>2022-08-08T09:59:25Z</time>
      </trkpt>
      <trkpt lat="44.28196" lon="3.69629">
        <ele>663.45</ele>
        <time>2022-08-08T09:59:36Z</time>
      </trkpt>
      <trkpt lat="44.28181" lon="3.69636">
        <ele>663.45</ele>
        <time>2022-08-08T09:59:48Z</time>
      </trkpt>
      <trkpt lat="44.28171" lon="3.69644">
        <ele>663.45</ele>
        <time>2022-08-08T10:00:03Z</time>
      </trkpt>
      <trkpt lat="44.28158" lon="3.69649">
        <ele>665.37</ele>
        <time>2022-08-08T10:00:17Z</time>
      </trkpt>
      <trkpt lat="44.2814" lon="3.6965">
        <ele>666.33</ele>
        <time>2022-08-08T10:00:31Z</time>
      </trkpt>
      <trkpt lat="44.28138" lon="3.69651">
        <ele>666.81</ele>
        <time>2022-08-08T10:00:33Z</time>
      </trkpt>
      <trkpt lat="44.28123" lon="3.69659">
        <ele>665.85</ele>
        <time>2022-08-08T10:00:50Z</time>
      </trkpt>
      <trkpt lat="44.28127" lon="3.69663">
        <ele>664.41</ele>
        <time>2022-08-08T10:01:01Z</time>
      </trkpt>
      <trkpt lat="44.28129" lon="3.69664">
        <ele>663.93</ele>
        <time>2022-08-08T10:01:13Z</time>
      </trkpt>
      <trkpt lat="44.28126" lon="3.69663">
        <ele>662.97</ele>
        <time>2022-08-08T10:01:19Z</time>
      </trkpt>
      <trkpt lat="44.28108" lon="3.6966">
        <ele>662.97</ele>
        <time>2022-08-08T10:01:34Z</time>
      </trkpt>
      <trkpt lat="44.28096" lon="3.69667">
        <ele>662.01</ele>
        <time>2022-08-08T10:01:48Z</time>
      </trkpt>
      <trkpt lat="44.28095" lon="3.69665">
        <ele>662.01</ele>
        <time>2022-08-08T10:01:55Z</time>
      </trkpt>
      <trkpt lat="44.28087" lon="3.69656">
        <ele>661.04</ele>
        <time>2022-08-08T10:02:06Z</time>
      </trkpt>
      <trkpt lat="44.28081" lon="3.69661">
        <ele>661.04</ele>
        <time>2022-08-08T10:02:12Z</time>
      </trkpt>
      <trkpt lat="44.28074" lon="3.69663">
        <ele>661.04</ele>
        <time>2022-08-08T10:02:17Z</time>
      </trkpt>
      <trkpt lat="44.28056" lon="3.69669">
        <ele>660.08</ele>
        <time>2022-08-08T10:02:31Z</time>
      </trkpt>
      <trkpt lat="44.28036" lon="3.69674">
        <ele>659.6</ele>
        <time>2022-08-08T10:02:48Z</time>
      </trkpt>
      <trkpt lat="44.28026" lon="3.69679">
        <ele>659.6</ele>
        <time>2022-08-08T10:02:56Z</time>
      </trkpt>
      <trkpt lat="44.28011" lon="3.69696">
        <ele>659.12</ele>
        <time>2022-08-08T10:03:12Z</time>
      </trkpt>
      <trkpt lat="44.28" lon="3.69709">
        <ele>659.12</ele>
        <time>2022-08-08T10:03:24Z</time>
      </trkpt>
      <trkpt lat="44.27998" lon="3.69711">
        <ele>658.64</ele>
        <time>2022-08-08T10:03:26Z</time>
      </trkpt>
      <trkpt lat="44.28002" lon="3.69717">
        <ele>657.68</ele>
        <time>2022-08-08T10:03:42Z</time>
      </trkpt>
      <trkpt lat="44.28003" lon="3.69718">
        <ele>658.16</ele>
        <time>2022-08-08T10:04:08Z</time>
      </trkpt>
      <trkpt lat="44.28001" lon="3.69718">
        <ele>661.52</ele>
        <time>2022-08-08T10:04:34Z</time>
      </trkpt>
      <trkpt lat="44.28" lon="3.69722">
        <ele>661.52</ele>
        <time>2022-08-08T10:04:45Z</time>
      </trkpt>
      <trkpt lat="44.27994" lon="3.69743">
        <ele>663.45</ele>
        <time>2022-08-08T10:05:00Z</time>
      </trkpt>
      <trkpt lat="44.27987" lon="3.69762">
        <ele>660.08</ele>
        <time>2022-08-08T10:05:14Z</time>
      </trkpt>
      <trkpt lat="44.27986" lon="3.69785">
        <ele>658.16</ele>
        <time>2022-08-08T10:05:29Z</time>
      </trkpt>
      <trkpt lat="44.27987" lon="3.69806">
        <ele>658.16</ele>
        <time>2022-08-08T10:05:42Z</time>
      </trkpt>
      <trkpt lat="44.27989" lon="3.6983">
        <ele>657.68</ele>
        <time>2022-08-08T10:05:57Z</time>
      </trkpt>
      <trkpt lat="44.27991" lon="3.69853">
        <ele>657.68</ele>
        <time>2022-08-08T10:06:12Z</time>
      </trkpt>
      <trkpt lat="44.27994" lon="3.69874">
        <ele>660.08</ele>
        <time>2022-08-08T10:06:26Z</time>
      </trkpt>
      <trkpt lat="44.27993" lon="3.69896">
        <ele>662.01</ele>
        <time>2022-08-08T10:06:39Z</time>
      </trkpt>
      <trkpt lat="44.27991" lon="3.69915">
        <ele>662.97</ele>
        <time>2022-08-08T10:06:50Z</time>
      </trkpt>
      <trkpt lat="44.27988" lon="3.69941">
        <ele>664.89</ele>
        <time>2022-08-08T10:07:06Z</time>
      </trkpt>
      <trkpt lat="44.27984" lon="3.69961">
        <ele>665.37</ele>
        <time>2022-08-08T10:07:20Z</time>
      </trkpt>
      <trkpt lat="44.27983" lon="3.69981">
        <ele>663.45</ele>
        <time>2022-08-08T10:07:33Z</time>
      </trkpt>
      <trkpt lat="44.27984" lon="3.70001">
        <ele>664.41</ele>
        <time>2022-08-08T10:07:47Z</time>
      </trkpt>
      <trkpt lat="44.27985" lon="3.70004">
        <ele>664.41</ele>
        <time>2022-08-08T10:07:49Z</time>
      </trkpt>
      <trkpt lat="44.27984" lon="3.70029">
        <ele>663.93</ele>
        <time>2022-08-08T10:08:05Z</time>
      </trkpt>
      <trkpt lat="44.27986" lon="3.70055">
        <ele>663.93</ele>
        <time>2022-08-08T10:08:19Z</time>
      </trkpt>
      <trkpt lat="44.27986" lon="3.70075">
        <ele>664.89</ele>
        <time>2022-08-08T10:08:31Z</time>
      </trkpt>
      <trkpt lat="44.27988" lon="3.701">
        <ele>666.33</ele>
        <time>2022-08-08T10:08:46Z</time>
      </trkpt>
      <trkpt lat="44.27989" lon="3.70119">
        <ele>665.85</ele>
        <time>2022-08-08T10:09:00Z</time>
      </trkpt>
      <trkpt lat="44.27991" lon="3.70132">
        <ele>664.41</ele>
        <time>2022-08-08T10:09:08Z</time>
      </trkpt>
      <trkpt lat="44.27988" lon="3.70147">
        <ele>663.45</ele>
        <time>2022-08-08T10:09:22Z</time>
      </trkpt>
      <trkpt lat="44.27984" lon="3.70149">
        <ele>663.45</ele>
        <time>2022-08-08T10:09:40Z</time>
      </trkpt>
      <trkpt lat="44.27982" lon="3.70155">
        <ele>666.33</ele>
        <time>2022-08-08T10:10:18Z</time>
      </trkpt>
      <trkpt lat="44.2798" lon="3.7016">
        <ele>660.56</ele>
        <time>2022-08-08T10:10:38Z</time>
      </trkpt>
      <trkpt lat="44.27979" lon="3.70168">
        <ele>661.52</ele>
        <time>2022-08-08T10:10:45Z</time>
      </trkpt>
      <trkpt lat="44.2798" lon="3.70182">
        <ele>660.56</ele>
        <time>2022-08-08T10:10:55Z</time>
      </trkpt>
      <trkpt lat="44.27977" lon="3.70195">
        <ele>659.6</ele>
        <time>2022-08-08T10:11:04Z</time>
      </trkpt>
      <trkpt lat="44.27972" lon="3.70215">
        <ele>657.68</ele>
        <time>2022-08-08T10:11:18Z</time>
      </trkpt>
      <trkpt lat="44.27967" lon="3.70232">
        <ele>657.68</ele>
        <time>2022-08-08T10:11:30Z</time>
      </trkpt>
      <trkpt lat="44.27957" lon="3.70246">
        <ele>661.52</ele>
        <time>2022-08-08T10:11:39Z</time>
      </trkpt>
      <trkpt lat="44.27949" lon="3.70257">
        <ele>662.01</ele>
        <time>2022-08-08T10:11:52Z</time>
      </trkpt>
      <trkpt lat="44.27945" lon="3.70254">
        <ele>661.52</ele>
        <time>2022-08-08T10:12:03Z</time>
      </trkpt>
      <trkpt lat="44.27933" lon="3.70239">
        <ele>659.6</ele>
        <time>2022-08-08T10:12:19Z</time>
      </trkpt>
      <trkpt lat="44.27926" lon="3.70221">
        <ele>660.56</ele>
        <time>2022-08-08T10:12:32Z</time>
      </trkpt>
      <trkpt lat="44.27924" lon="3.70206">
        <ele>658.16</ele>
        <time>2022-08-08T10:12:44Z</time>
      </trkpt>
      <trkpt lat="44.27925" lon="3.70194">
        <ele>657.2</ele>
        <time>2022-08-08T10:12:52Z</time>
      </trkpt>
      <trkpt lat="44.27927" lon="3.70179">
        <ele>654.8</ele>
        <time>2022-08-08T10:13:06Z</time>
      </trkpt>
      <trkpt lat="44.27927" lon="3.70168">
        <ele>653.83</ele>
        <time>2022-08-08T10:13:26Z</time>
      </trkpt>
      <trkpt lat="44.27926" lon="3.70169">
        <ele>657.2</ele>
        <time>2022-08-08T10:13:50Z</time>
      </trkpt>
      <trkpt lat="44.27925" lon="3.70171">
        <ele>659.12</ele>
        <time>2022-08-08T10:14:14Z</time>
      </trkpt>
      <trkpt lat="44.27933" lon="3.70167">
        <ele>659.12</ele>
        <time>2022-08-08T10:14:34Z</time>
      </trkpt>
      <trkpt lat="44.27936" lon="3.70163">
        <ele>657.68</ele>
        <time>2022-08-08T10:14:51Z</time>
      </trkpt>
      <trkpt lat="44.27939" lon="3.70163">
        <ele>656.72</ele>
        <time>2022-08-08T10:15:10Z</time>
      </trkpt>
      <trkpt lat="44.27942" lon="3.70156">
        <ele>656.72</ele>
        <time>2022-08-08T10:15:24Z</time>
      </trkpt>
      <trkpt lat="44.27942" lon="3.70148">
        <ele>656.72</ele>
        <time>2022-08-08T10:15:40Z</time>
      </trkpt>
      <trkpt lat="44.27943" lon="3.70149">
        <ele>655.76</ele>
        <time>2022-08-08T10:16:04Z</time>
      </trkpt>
      <trkpt lat="44.27943" lon="3.70151">
        <ele>656.24</ele>
        <time>2022-08-08T10:16:21Z</time>
      </trkpt>
      <trkpt lat="44.27944" lon="3.70149">
        <ele>659.6</ele>
        <time>2022-08-08T10:16:35Z</time>
      </trkpt>
      <trkpt lat="44.27945" lon="3.70152">
        <ele>662.01</ele>
        <time>2022-08-08T10:16:54Z</time>
      </trkpt>
      <trkpt lat="44.27948" lon="3.70155">
        <ele>662.97</ele>
        <time>2022-08-08T10:17:23Z</time>
      </trkpt>
      <trkpt lat="44.27948" lon="3.70153">
        <ele>662.97</ele>
        <time>2022-08-08T10:17:58Z</time>
      </trkpt>
      <trkpt lat="44.27945" lon="3.70154">
        <ele>660.56</ele>
        <time>2022-08-08T10:18:40Z</time>
      </trkpt>
      <trkpt lat="44.27948" lon="3.70156">
        <ele>665.37</ele>
        <time>2022-08-08T10:19:12Z</time>
      </trkpt>
      <trkpt lat="44.27943" lon="3.70155">
        <ele>666.33</ele>
        <time>2022-08-08T10:19:50Z</time>
      </trkpt>
      <trkpt lat="44.27947" lon="3.70161">
        <ele>666.81</ele>
        <time>2022-08-08T10:20:22Z</time>
      </trkpt>
      <trkpt lat="44.27945" lon="3.70157">
        <ele>666.33</ele>
        <time>2022-08-08T10:20:57Z</time>
      </trkpt>
      <trkpt lat="44.27941" lon="3.70153">
        <ele>663.93</ele>
        <time>2022-08-08T10:21:32Z</time>
      </trkpt>
      <trkpt lat="44.27941" lon="3.70159">
        <ele>663.45</ele>
        <time>2022-08-08T10:22:05Z</time>
      </trkpt>
      <trkpt lat="44.27941" lon="3.70157">
        <ele>665.37</ele>
        <time>2022-08-08T10:22:41Z</time>
      </trkpt>
      <trkpt lat="44.27938" lon="3.70151">
        <ele>672.58</ele>
        <time>2022-08-08T10:23:15Z</time>
      </trkpt>
      <trkpt lat="44.2794" lon="3.70156">
        <ele>675.46</ele>
        <time>2022-08-08T10:23:41Z</time>
      </trkpt>
      <trkpt lat="44.27939" lon="3.70158">
        <ele>670.18</ele>
        <time>2022-08-08T10:24:13Z</time>
      </trkpt>
      <trkpt lat="44.27941" lon="3.70155">
        <ele>672.1</ele>
        <time>2022-08-08T10:24:39Z</time>
      </trkpt>
      <trkpt lat="44.27936" lon="3.70145">
        <ele>675.46</ele>
        <time>2022-08-08T10:25:12Z</time>
      </trkpt>
      <trkpt lat="44.27941" lon="3.7015">
        <ele>672.58</ele>
        <time>2022-08-08T10:25:58Z</time>
      </trkpt>
      <trkpt lat="44.27942" lon="3.70148">
        <ele>666.33</ele>
        <time>2022-08-08T10:26:39Z</time>
      </trkpt>
      <trkpt lat="44.2794" lon="3.70152">
        <ele>665.85</ele>
        <time>2022-08-08T10:27:11Z</time>
      </trkpt>
      <trkpt lat="44.27939" lon="3.70152">
        <ele>665.85</ele>
        <time>2022-08-08T10:27:40Z</time>
      </trkpt>
      <trkpt lat="44.27941" lon="3.70152">
        <ele>668.25</ele>
        <time>2022-08-08T10:28:18Z</time>
      </trkpt>
      <trkpt lat="44.27938" lon="3.70154">
        <ele>676.91</ele>
        <time>2022-08-08T10:29:03Z</time>
      </trkpt>
      <trkpt lat="44.27939" lon="3.70144">
        <ele>676.91</ele>
        <time>2022-08-08T10:29:38Z</time>
      </trkpt>
      <trkpt lat="44.27941" lon="3.70148">
        <ele>677.39</ele>
        <time>2022-08-08T10:30:09Z</time>
      </trkpt>
      <trkpt lat="44.2794" lon="3.70147">
        <ele>675.94</ele>
        <time>2022-08-08T10:30:38Z</time>
      </trkpt>
      <trkpt lat="44.27939" lon="3.70147">
        <ele>679.79</ele>
        <time>2022-08-08T10:31:21Z</time>
      </trkpt>
      <trkpt lat="44.27941" lon="3.7014">
        <ele>679.31</ele>
        <time>2022-08-08T10:31:59Z</time>
      </trkpt>
      <trkpt lat="44.27936" lon="3.70143">
        <ele>673.54</ele>
        <time>2022-08-08T10:32:38Z</time>
      </trkpt>
      <trkpt lat="44.27944" lon="3.7015">
        <ele>668.25</ele>
        <time>2022-08-08T10:33:14Z</time>
      </trkpt>
      <trkpt lat="44.27943" lon="3.70154">
        <ele>660.08</ele>
        <time>2022-08-08T10:33:55Z</time>
      </trkpt>
      <trkpt lat="44.27944" lon="3.70154">
        <ele>660.08</ele>
        <time>2022-08-08T10:34:28Z</time>
      </trkpt>
      <trkpt lat="44.27944" lon="3.7015">
        <ele>661.04</ele>
        <time>2022-08-08T10:35:07Z</time>
      </trkpt>
      <trkpt lat="44.27942" lon="3.70151">
        <ele>661.04</ele>
        <time>2022-08-08T10:35:49Z</time>
      </trkpt>
      <trkpt lat="44.27942" lon="3.70151">
        <ele>666.33</ele>
        <time>2022-08-08T10:36:38Z</time>
      </trkpt>
      <trkpt lat="44.27943" lon="3.70153">
        <ele>672.58</ele>
        <time>2022-08-08T10:37:18Z</time>
      </trkpt>
      <trkpt lat="44.27946" lon="3.70149">
        <ele>670.66</ele>
        <time>2022-08-08T10:37:56Z</time>
      </trkpt>
      <trkpt lat="44.27946" lon="3.70155">
        <ele>666.81</ele>
        <time>2022-08-08T10:38:37Z</time>
      </trkpt>
      <trkpt lat="44.27949" lon="3.70158">
        <ele>662.01</ele>
        <time>2022-08-08T10:39:13Z</time>
      </trkpt>
      <trkpt lat="44.27949" lon="3.70157">
        <ele>660.08</ele>
        <time>2022-08-08T10:39:47Z</time>
      </trkpt>
      <trkpt lat="44.27943" lon="3.70153">
        <ele>662.01</ele>
        <time>2022-08-08T10:40:31Z</time>
      </trkpt>
      <trkpt lat="44.27946" lon="3.70152">
        <ele>661.52</ele>
        <time>2022-08-08T10:41:09Z</time>
      </trkpt>
      <trkpt lat="44.27947" lon="3.7015">
        <ele>661.04</ele>
        <time>2022-08-08T10:41:41Z</time>
      </trkpt>
      <trkpt lat="44.27947" lon="3.70155">
        <ele>662.49</ele>
        <time>2022-08-08T10:42:12Z</time>
      </trkpt>
      <trkpt lat="44.27948" lon="3.70154">
        <ele>661.04</ele>
        <time>2022-08-08T10:42:45Z</time>
      </trkpt>
      <trkpt lat="44.27945" lon="3.70157">
        <ele>662.01</ele>
        <time>2022-08-08T10:43:22Z</time>
      </trkpt>
      <trkpt lat="44.27943" lon="3.70157">
        <ele>656.72</ele>
        <time>2022-08-08T10:43:57Z</time>
      </trkpt>
      <trkpt lat="44.27947" lon="3.70159">
        <ele>659.6</ele>
        <time>2022-08-08T10:44:27Z</time>
      </trkpt>
      <trkpt lat="44.27944" lon="3.70159">
        <ele>661.04</ele>
        <time>2022-08-08T10:44:59Z</time>
      </trkpt>
      <trkpt lat="44.27947" lon="3.70157">
        <ele>662.49</ele>
        <time>2022-08-08T10:45:27Z</time>
      </trkpt>
      <trkpt lat="44.27948" lon="3.70149">
        <ele>663.45</ele>
        <time>2022-08-08T10:45:52Z</time>
      </trkpt>
      <trkpt lat="44.27955" lon="3.70151">
        <ele>665.85</ele>
        <time>2022-08-08T10:46:23Z</time>
      </trkpt>
      <trkpt lat="44.27947" lon="3.7015">
        <ele>660.56</ele>
        <time>2022-08-08T10:46:48Z</time>
      </trkpt>
      <trkpt lat="44.27948" lon="3.70147">
        <ele>664.89</ele>
        <time>2022-08-08T10:47:26Z</time>
      </trkpt>
      <trkpt lat="44.27946" lon="3.70145">
        <ele>667.29</ele>
        <time>2022-08-08T10:48:04Z</time>
      </trkpt>
      <trkpt lat="44.27945" lon="3.70147">
        <ele>674.98</ele>
        <time>2022-08-08T10:48:41Z</time>
      </trkpt>
      <trkpt lat="44.27946" lon="3.7015">
        <ele>672.1</ele>
        <time>2022-08-08T10:49:15Z</time>
      </trkpt>
      <trkpt lat="44.27947" lon="3.7015">
        <ele>670.66</ele>
        <time>2022-08-08T10:49:49Z</time>
      </trkpt>
      <trkpt lat="44.27949" lon="3.70149">
        <ele>668.73</ele>
        <time>2022-08-08T10:50:21Z</time>
      </trkpt>
      <trkpt lat="44.2795" lon="3.70153">
        <ele>669.22</ele>
        <time>2022-08-08T10:51:02Z</time>
      </trkpt>
      <trkpt lat="44.27948" lon="3.70151">
        <ele>666.33</ele>
        <time>2022-08-08T10:51:44Z</time>
      </trkpt>
      <trkpt lat="44.27952" lon="3.70152">
        <ele>662.97</ele>
        <time>2022-08-08T10:52:22Z</time>
      </trkpt>
      <trkpt lat="44.27952" lon="3.70156">
        <ele>658.16</ele>
        <time>2022-08-08T10:52:58Z</time>
      </trkpt>
      <trkpt lat="44.27945" lon="3.70155">
        <ele>660.56</ele>
        <time>2022-08-08T10:53:29Z</time>
      </trkpt>
      <trkpt lat="44.27943" lon="3.70156">
        <ele>656.72</ele>
        <time>2022-08-08T10:53:55Z</time>
      </trkpt>
      <trkpt lat="44.27943" lon="3.70158">
        <ele>655.76</ele>
        <time>2022-08-08T10:54:23Z</time>
      </trkpt>
      <trkpt lat="44.27946" lon="3.70147">
        <ele>657.2</ele>
        <time>2022-08-08T10:54:51Z</time>
      </trkpt>
      <trkpt lat="44.27947" lon="3.7015">
        <ele>659.12</ele>
        <time>2022-08-08T10:55:15Z</time>
      </trkpt>
      <trkpt lat="44.27942" lon="3.70152">
        <ele>656.24</ele>
        <time>2022-08-08T10:55:38Z</time>
      </trkpt>
      <trkpt lat="44.27939" lon="3.70151">
        <ele>656.24</ele>
        <time>2022-08-08T10:56:06Z</time>
      </trkpt>
      <trkpt lat="44.27944" lon="3.70154">
        <ele>659.6</ele>
        <time>2022-08-08T10:56:37Z</time>
      </trkpt>
      <trkpt lat="44.27947" lon="3.70157">
        <ele>661.52</ele>
        <time>2022-08-08T10:57:05Z</time>
      </trkpt>
      <trkpt lat="44.27945" lon="3.70155">
        <ele>656.72</ele>
        <time>2022-08-08T10:57:29Z</time>
      </trkpt>
      <trkpt lat="44.27943" lon="3.70156">
        <ele>657.2</ele>
        <time>2022-08-08T10:57:55Z</time>
      </trkpt>
      <trkpt lat="44.27942" lon="3.70153">
        <ele>661.04</ele>
        <time>2022-08-08T10:58:19Z</time>
      </trkpt>
      <trkpt lat="44.27942" lon="3.70157">
        <ele>658.64</ele>
        <time>2022-08-08T10:58:47Z</time>
      </trkpt>
      <trkpt lat="44.27945" lon="3.70155">
        <ele>662.49</ele>
        <time>2022-08-08T10:59:17Z</time>
      </trkpt>
      <trkpt lat="44.27944" lon="3.70158">
        <ele>664.41</ele>
        <time>2022-08-08T10:59:42Z</time>
      </trkpt>
      <trkpt lat="44.27942" lon="3.70154">
        <ele>661.52</ele>
        <time>2022-08-08T11:00:13Z</time>
      </trkpt>
      <trkpt lat="44.2794" lon="3.70153">
        <ele>663.45</ele>
        <time>2022-08-08T11:00:36Z</time>
      </trkpt>
      <trkpt lat="44.27945" lon="3.70156">
        <ele>673.54</ele>
        <time>2022-08-08T11:01:02Z</time>
      </trkpt>
      <trkpt lat="44.27944" lon="3.70153">
        <ele>678.35</ele>
        <time>2022-08-08T11:01:25Z</time>
      </trkpt>
      <trkpt lat="44.27944" lon="3.70155">
        <ele>678.35</ele>
        <time>2022-08-08T11:01:52Z</time>
      </trkpt>
      <trkpt lat="44.27946" lon="3.70157">
        <ele>676.91</ele>
        <time>2022-08-08T11:02:23Z</time>
      </trkpt>
      <trkpt lat="44.27944" lon="3.70154">
        <ele>670.66</ele>
        <time>2022-08-08T11:02:47Z</time>
      </trkpt>
      <trkpt lat="44.27942" lon="3.7015">
        <ele>672.1</ele>
        <time>2022-08-08T11:03:21Z</time>
      </trkpt>
      <trkpt lat="44.2794" lon="3.70151">
        <ele>673.54</ele>
        <time>2022-08-08T11:03:51Z</time>
      </trkpt>
      <trkpt lat="44.27941" lon="3.70152">
        <ele>673.06</ele>
        <time>2022-08-08T11:04:17Z</time>
      </trkpt>
      <trkpt lat="44.27942" lon="3.7015">
        <ele>673.06</ele>
        <time>2022-08-08T11:04:49Z</time>
      </trkpt>
      <trkpt lat="44.27941" lon="3.70152">
        <ele>667.29</ele>
        <time>2022-08-08T11:05:15Z</time>
      </trkpt>
      <trkpt lat="44.27939" lon="3.70151">
        <ele>664.89</ele>
        <time>2022-08-08T11:05:45Z</time>
      </trkpt>
      <trkpt lat="44.27939" lon="3.7015">
        <ele>658.16</ele>
        <time>2022-08-08T11:06:12Z</time>
      </trkpt>
      <trkpt lat="44.2794" lon="3.70148">
        <ele>662.97</ele>
        <time>2022-08-08T11:06:46Z</time>
      </trkpt>
      <trkpt lat="44.27939" lon="3.70152">
        <ele>668.25</ele>
        <time>2022-08-08T11:07:19Z</time>
      </trkpt>
      <trkpt lat="44.27941" lon="3.7015">
        <ele>670.18</ele>
        <time>2022-08-08T11:07:47Z</time>
      </trkpt>
      <trkpt lat="44.2794" lon="3.70152">
        <ele>671.62</ele>
        <time>2022-08-08T11:08:19Z</time>
      </trkpt>
      <trkpt lat="44.27944" lon="3.70147">
        <ele>667.77</ele>
        <time>2022-08-08T11:08:32Z</time>
      </trkpt>
      <trkpt lat="44.27949" lon="3.70145">
        <ele>664.89</ele>
        <time>2022-08-08T11:08:51Z</time>
      </trkpt>
      <trkpt lat="44.27947" lon="3.70141">
        <ele>661.04</ele>
        <time>2022-08-08T11:09:26Z</time>
      </trkpt>
      <trkpt lat="44.2795" lon="3.70138">
        <ele>666.33</ele>
        <time>2022-08-08T11:10:03Z</time>
      </trkpt>
      <trkpt lat="44.27949" lon="3.70135">
        <ele>668.73</ele>
        <time>2022-08-08T11:10:41Z</time>
      </trkpt>
      <trkpt lat="44.27951" lon="3.70139">
        <ele>662.49</ele>
        <time>2022-08-08T11:11:26Z</time>
      </trkpt>
      <trkpt lat="44.27951" lon="3.70136">
        <ele>667.77</ele>
        <time>2022-08-08T11:12:04Z</time>
      </trkpt>
      <trkpt lat="44.27952" lon="3.70131">
        <ele>676.42</ele>
        <time>2022-08-08T11:12:51Z</time>
      </trkpt>
      <trkpt lat="44.27948" lon="3.70129">
        <ele>675.46</ele>
        <time>2022-08-08T11:13:37Z</time>
      </trkpt>
      <trkpt lat="44.27949" lon="3.70134">
        <ele>675.94</ele>
        <time>2022-08-08T11:14:22Z</time>
      </trkpt>
      <trkpt lat="44.27947" lon="3.70136">
        <ele>672.58</ele>
        <time>2022-08-08T11:15:05Z</time>
      </trkpt>
      <trkpt lat="44.27948" lon="3.70133">
        <ele>674.5</ele>
        <time>2022-08-08T11:15:39Z</time>
      </trkpt>
      <trkpt lat="44.27948" lon="3.70139">
        <ele>669.7</ele>
        <time>2022-08-08T11:16:23Z</time>
      </trkpt>
      <trkpt lat="44.27948" lon="3.70142">
        <ele>672.1</ele>
        <time>2022-08-08T11:17:09Z</time>
      </trkpt>
      <trkpt lat="44.27948" lon="3.70139">
        <ele>673.54</ele>
        <time>2022-08-08T11:17:47Z</time>
      </trkpt>
      <trkpt lat="44.27947" lon="3.70141">
        <ele>671.62</ele>
        <time>2022-08-08T11:18:18Z</time>
      </trkpt>
      <trkpt lat="44.27948" lon="3.70141">
        <ele>668.73</ele>
        <time>2022-08-08T11:18:59Z</time>
      </trkpt>
      <trkpt lat="44.27948" lon="3.7014">
        <ele>666.33</ele>
        <time>2022-08-08T11:19:30Z</time>
      </trkpt>
      <trkpt lat="44.27947" lon="3.70144">
        <ele>663.45</ele>
        <time>2022-08-08T11:20:04Z</time>
      </trkpt>
      <trkpt lat="44.2795" lon="3.70145">
        <ele>667.29</ele>
        <time>2022-08-08T11:20:40Z</time>
      </trkpt>
      <trkpt lat="44.2795" lon="3.70146">
        <ele>663.45</ele>
        <time>2022-08-08T11:21:14Z</time>
      </trkpt>
      <trkpt lat="44.27947" lon="3.70144">
        <ele>661.04</ele>
        <time>2022-08-08T11:21:48Z</time>
      </trkpt>
      <trkpt lat="44.27949" lon="3.70148">
        <ele>661.04</ele>
        <time>2022-08-08T11:22:20Z</time>
      </trkpt>
      <trkpt lat="44.27948" lon="3.70147">
        <ele>660.08</ele>
        <time>2022-08-08T11:23:03Z</time>
      </trkpt>
      <trkpt lat="44.27948" lon="3.70146">
        <ele>662.49</ele>
        <time>2022-08-08T11:23:30Z</time>
      </trkpt>
      <trkpt lat="44.27945" lon="3.70145">
        <ele>661.52</ele>
        <time>2022-08-08T11:23:41Z</time>
      </trkpt>
      <trkpt lat="44.27946" lon="3.70146">
        <ele>662.01</ele>
        <time>2022-08-08T11:23:55Z</time>
      </trkpt>
      <trkpt lat="44.27945" lon="3.70143">
        <ele>661.52</ele>
        <time>2022-08-08T11:24:21Z</time>
      </trkpt>
      <trkpt lat="44.27945" lon="3.70144">
        <ele>662.49</ele>
        <time>2022-08-08T11:24:48Z</time>
      </trkpt>
      <trkpt lat="44.27938" lon="3.70144">
        <ele>660.08</ele>
        <time>2022-08-08T11:24:59Z</time>
      </trkpt>
      <trkpt lat="44.27937" lon="3.70148">
        <ele>655.28</ele>
        <time>2022-08-08T11:25:19Z</time>
      </trkpt>
      <trkpt lat="44.27936" lon="3.70153">
        <ele>653.35</ele>
        <time>2022-08-08T11:25:33Z</time>
      </trkpt>
      <trkpt lat="44.27938" lon="3.70158">
        <ele>653.83</ele>
        <time>2022-08-08T11:25:49Z</time>
      </trkpt>
      <trkpt lat="44.27933" lon="3.70156">
        <ele>653.35</ele>
        <time>2022-08-08T11:26:02Z</time>
      </trkpt>
      <trkpt lat="44.27928" lon="3.70152">
        <ele>653.35</ele>
        <time>2022-08-08T11:26:16Z</time>
      </trkpt>
      <trkpt lat="44.27921" lon="3.70156">
        <ele>653.35</ele>
        <time>2022-08-08T11:26:30Z</time>
      </trkpt>
      <trkpt lat="44.2792" lon="3.70172">
        <ele>654.8</ele>
        <time>2022-08-08T11:26:45Z</time>
      </trkpt>
      <trkpt lat="44.27922" lon="3.70186">
        <ele>654.31</ele>
        <time>2022-08-08T11:26:58Z</time>
      </trkpt>
      <trkpt lat="44.27921" lon="3.70206">
        <ele>654.31</ele>
        <time>2022-08-08T11:27:14Z</time>
      </trkpt>
      <trkpt lat="44.27926" lon="3.70227">
        <ele>655.76</ele>
        <time>2022-08-08T11:27:28Z</time>
      </trkpt>
      <trkpt lat="44.27933" lon="3.70244">
        <ele>656.72</ele>
        <time>2022-08-08T11:27:43Z</time>
      </trkpt>
      <trkpt lat="44.27942" lon="3.7026">
        <ele>660.56</ele>
        <time>2022-08-08T11:27:57Z</time>
      </trkpt>
      <trkpt lat="44.27948" lon="3.70271">
        <ele>661.52</ele>
        <time>2022-08-08T11:28:11Z</time>
      </trkpt>
      <trkpt lat="44.27945" lon="3.70282">
        <ele>664.89</ele>
        <time>2022-08-08T11:28:25Z</time>
      </trkpt>
      <trkpt lat="44.27939" lon="3.70298">
        <ele>667.29</ele>
        <time>2022-08-08T11:28:41Z</time>
      </trkpt>
      <trkpt lat="44.27932" lon="3.70317">
        <ele>668.25</ele>
        <time>2022-08-08T11:28:58Z</time>
      </trkpt>
      <trkpt lat="44.27932" lon="3.70319">
        <ele>668.73</ele>
        <time>2022-08-08T11:28:59Z</time>
      </trkpt>
      <trkpt lat="44.27924" lon="3.7034">
        <ele>667.29</ele>
        <time>2022-08-08T11:29:16Z</time>
      </trkpt>
      <trkpt lat="44.27917" lon="3.7036">
        <ele>667.29</ele>
        <time>2022-08-08T11:29:33Z</time>
      </trkpt>
      <trkpt lat="44.27913" lon="3.70378">
        <ele>665.85</ele>
        <time>2022-08-08T11:29:47Z</time>
      </trkpt>
      <trkpt lat="44.27905" lon="3.70397">
        <ele>665.85</ele>
        <time>2022-08-08T11:30:04Z</time>
      </trkpt>
      <trkpt lat="44.27899" lon="3.70415">
        <ele>667.77</ele>
        <time>2022-08-08T11:30:17Z</time>
      </trkpt>
      <trkpt lat="44.27894" lon="3.70431">
        <ele>670.18</ele>
        <time>2022-08-08T11:30:29Z</time>
      </trkpt>
      <trkpt lat="44.27889" lon="3.70446">
        <ele>672.1</ele>
        <time>2022-08-08T11:30:41Z</time>
      </trkpt>
      <trkpt lat="44.27884" lon="3.70465">
        <ele>672.58</ele>
        <time>2022-08-08T11:30:54Z</time>
      </trkpt>
      <trkpt lat="44.27882" lon="3.70486">
        <ele>675.46</ele>
        <time>2022-08-08T11:31:09Z</time>
      </trkpt>
      <trkpt lat="44.2788" lon="3.70508">
        <ele>673.06</ele>
        <time>2022-08-08T11:31:24Z</time>
      </trkpt>
      <trkpt lat="44.27878" lon="3.7053">
        <ele>669.22</ele>
        <time>2022-08-08T11:31:39Z</time>
      </trkpt>
      <trkpt lat="44.27877" lon="3.70552">
        <ele>665.85</ele>
        <time>2022-08-08T11:31:54Z</time>
      </trkpt>
      <trkpt lat="44.27876" lon="3.70575">
        <ele>665.37</ele>
        <time>2022-08-08T11:32:10Z</time>
      </trkpt>
      <trkpt lat="44.27876" lon="3.70579">
        <ele>665.37</ele>
        <time>2022-08-08T11:32:13Z</time>
      </trkpt>
      <trkpt lat="44.27875" lon="3.70598">
        <ele>666.81</ele>
        <time>2022-08-08T11:32:25Z</time>
      </trkpt>
      <trkpt lat="44.27873" lon="3.70621">
        <ele>667.77</ele>
        <time>2022-08-08T11:32:40Z</time>
      </trkpt>
      <trkpt lat="44.27871" lon="3.70645">
        <ele>666.33</ele>
        <time>2022-08-08T11:32:58Z</time>
      </trkpt>
      <trkpt lat="44.27865" lon="3.70662">
        <ele>664.41</ele>
        <time>2022-08-08T11:33:12Z</time>
      </trkpt>
      <trkpt lat="44.27864" lon="3.70664">
        <ele>664.41</ele>
        <time>2022-08-08T11:33:14Z</time>
      </trkpt>
      <trkpt lat="44.27857" lon="3.70677">
        <ele>663.45</ele>
        <time>2022-08-08T11:33:25Z</time>
      </trkpt>
      <trkpt lat="44.27849" lon="3.7069">
        <ele>666.81</ele>
        <time>2022-08-08T11:33:34Z</time>
      </trkpt>
      <trkpt lat="44.27836" lon="3.70707">
        <ele>671.14</ele>
        <time>2022-08-08T11:33:51Z</time>
      </trkpt>
      <trkpt lat="44.27823" lon="3.70717">
        <ele>670.66</ele>
        <time>2022-08-08T11:34:04Z</time>
      </trkpt>
      <trkpt lat="44.2781" lon="3.70727">
        <ele>672.1</ele>
        <time>2022-08-08T11:34:17Z</time>
      </trkpt>
      <trkpt lat="44.27798" lon="3.70738">
        <ele>673.06</ele>
        <time>2022-08-08T11:34:29Z</time>
      </trkpt>
      <trkpt lat="44.27797" lon="3.70739">
        <ele>673.06</ele>
        <time>2022-08-08T11:34:30Z</time>
      </trkpt>
      <trkpt lat="44.27788" lon="3.70749">
        <ele>671.14</ele>
        <time>2022-08-08T11:34:42Z</time>
      </trkpt>
      <trkpt lat="44.27775" lon="3.7076">
        <ele>673.06</ele>
        <time>2022-08-08T11:34:55Z</time>
      </trkpt>
      <trkpt lat="44.27766" lon="3.70775">
        <ele>674.02</ele>
        <time>2022-08-08T11:35:08Z</time>
      </trkpt>
      <trkpt lat="44.2776" lon="3.70793">
        <ele>673.06</ele>
        <time>2022-08-08T11:35:22Z</time>
      </trkpt>
      <trkpt lat="44.27754" lon="3.70818">
        <ele>674.5</ele>
        <time>2022-08-08T11:35:37Z</time>
      </trkpt>
      <trkpt lat="44.27752" lon="3.70845">
        <ele>675.46</ele>
        <time>2022-08-08T11:35:52Z</time>
      </trkpt>
      <trkpt lat="44.27751" lon="3.70862">
        <ele>676.42</ele>
        <time>2022-08-08T11:36:02Z</time>
      </trkpt>
      <trkpt lat="44.27754" lon="3.70886">
        <ele>682.19</ele>
        <time>2022-08-08T11:36:17Z</time>
      </trkpt>
      <trkpt lat="44.27757" lon="3.70896">
        <ele>683.63</ele>
        <time>2022-08-08T11:36:23Z</time>
      </trkpt>
      <trkpt lat="44.2776" lon="3.70904">
        <ele>682.19</ele>
        <time>2022-08-08T11:36:28Z</time>
      </trkpt>
      <trkpt lat="44.27765" lon="3.70913">
        <ele>681.71</ele>
        <time>2022-08-08T11:36:35Z</time>
      </trkpt>
      <trkpt lat="44.27774" lon="3.70933">
        <ele>680.75</ele>
        <time>2022-08-08T11:36:49Z</time>
      </trkpt>
      <trkpt lat="44.27781" lon="3.70943">
        <ele>680.27</ele>
        <time>2022-08-08T11:36:58Z</time>
      </trkpt>
      <trkpt lat="44.27793" lon="3.70959">
        <ele>680.75</ele>
        <time>2022-08-08T11:37:12Z</time>
      </trkpt>
      <trkpt lat="44.27807" lon="3.70974">
        <ele>679.79</ele>
        <time>2022-08-08T11:37:27Z</time>
      </trkpt>
      <trkpt lat="44.27809" lon="3.70976">
        <ele>679.79</ele>
        <time>2022-08-08T11:37:29Z</time>
      </trkpt>
      <trkpt lat="44.27813" lon="3.70981">
        <ele>679.31</ele>
        <time>2022-08-08T11:37:34Z</time>
      </trkpt>
      <trkpt lat="44.27822" lon="3.70995">
        <ele>678.35</ele>
        <time>2022-08-08T11:37:47Z</time>
      </trkpt>
      <trkpt lat="44.27827" lon="3.71002">
        <ele>677.87</ele>
        <time>2022-08-08T11:37:54Z</time>
      </trkpt>
      <trkpt lat="44.27834" lon="3.71021">
        <ele>676.91</ele>
        <time>2022-08-08T11:38:08Z</time>
      </trkpt>
      <trkpt lat="44.27839" lon="3.71038">
        <ele>675.46</ele>
        <time>2022-08-08T11:38:20Z</time>
      </trkpt>
      <trkpt lat="44.27844" lon="3.71058">
        <ele>676.42</ele>
        <time>2022-08-08T11:38:37Z</time>
      </trkpt>
      <trkpt lat="44.27847" lon="3.71083">
        <ele>675.94</ele>
        <time>2022-08-08T11:38:53Z</time>
      </trkpt>
      <trkpt lat="44.27849" lon="3.71107">
        <ele>676.42</ele>
        <time>2022-08-08T11:39:07Z</time>
      </trkpt>
      <trkpt lat="44.27852" lon="3.71126">
        <ele>675.94</ele>
        <time>2022-08-08T11:39:19Z</time>
      </trkpt>
      <trkpt lat="44.27851" lon="3.71153">
        <ele>676.42</ele>
        <time>2022-08-08T11:39:33Z</time>
      </trkpt>
      <trkpt lat="44.27852" lon="3.71184">
        <ele>680.27</ele>
        <time>2022-08-08T11:39:48Z</time>
      </trkpt>
      <trkpt lat="44.27848" lon="3.71207">
        <ele>677.87</ele>
        <time>2022-08-08T11:40:02Z</time>
      </trkpt>
      <trkpt lat="44.27841" lon="3.71226">
        <ele>684.6</ele>
        <time>2022-08-08T11:40:14Z</time>
      </trkpt>
      <trkpt lat="44.27836" lon="3.71242">
        <ele>679.79</ele>
        <time>2022-08-08T11:40:28Z</time>
      </trkpt>
      <trkpt lat="44.27826" lon="3.71262">
        <ele>674.5</ele>
        <time>2022-08-08T11:40:42Z</time>
      </trkpt>
      <trkpt lat="44.27816" lon="3.71279">
        <ele>672.1</ele>
        <time>2022-08-08T11:40:56Z</time>
      </trkpt>
      <trkpt lat="44.27802" lon="3.71304">
        <ele>677.87</ele>
        <time>2022-08-08T11:41:12Z</time>
      </trkpt>
      <trkpt lat="44.27792" lon="3.71326">
        <ele>676.91</ele>
        <time>2022-08-08T11:41:27Z</time>
      </trkpt>
      <trkpt lat="44.27787" lon="3.71351">
        <ele>674.02</ele>
        <time>2022-08-08T11:41:42Z</time>
      </trkpt>
      <trkpt lat="44.27785" lon="3.71436">
        <ele>675.94</ele>
        <time>2022-08-08T11:42:36Z</time>
      </trkpt>
      <trkpt lat="44.278" lon="3.71458">
        <ele>682.19</ele>
        <time>2022-08-08T11:42:48Z</time>
      </trkpt>
      <trkpt lat="44.27805" lon="3.71482">
        <ele>681.71</ele>
        <time>2022-08-08T11:43:02Z</time>
      </trkpt>
      <trkpt lat="44.27813" lon="3.71505">
        <ele>682.19</ele>
        <time>2022-08-08T11:43:17Z</time>
      </trkpt>
      <trkpt lat="44.27818" lon="3.71528">
        <ele>679.79</ele>
        <time>2022-08-08T11:43:32Z</time>
      </trkpt>
      <trkpt lat="44.2782" lon="3.71546">
        <ele>678.35</ele>
        <time>2022-08-08T11:43:45Z</time>
      </trkpt>
      <trkpt lat="44.27819" lon="3.71567">
        <ele>674.5</ele>
        <time>2022-08-08T11:44:00Z</time>
      </trkpt>
      <trkpt lat="44.27819" lon="3.71569">
        <ele>674.02</ele>
        <time>2022-08-08T11:44:02Z</time>
      </trkpt>
      <trkpt lat="44.27816" lon="3.71591">
        <ele>673.54</ele>
        <time>2022-08-08T11:44:15Z</time>
      </trkpt>
      <trkpt lat="44.27809" lon="3.71614">
        <ele>674.98</ele>
        <time>2022-08-08T11:44:29Z</time>
      </trkpt>
      <trkpt lat="44.27804" lon="3.71636">
        <ele>673.54</ele>
        <time>2022-08-08T11:44:45Z</time>
      </trkpt>
      <trkpt lat="44.27802" lon="3.71659">
        <ele>670.66</ele>
        <time>2022-08-08T11:45:00Z</time>
      </trkpt>
      <trkpt lat="44.27802" lon="3.71675">
        <ele>670.18</ele>
        <time>2022-08-08T11:45:12Z</time>
      </trkpt>
      <trkpt lat="44.27801" lon="3.71695">
        <ele>674.02</ele>
        <time>2022-08-08T11:45:24Z</time>
      </trkpt>
      <trkpt lat="44.278" lon="3.71725">
        <ele>679.79</ele>
        <time>2022-08-08T11:45:39Z</time>
      </trkpt>
      <trkpt lat="44.278" lon="3.71747">
        <ele>680.27</ele>
        <time>2022-08-08T11:45:53Z</time>
      </trkpt>
      <trkpt lat="44.27801" lon="3.71766">
        <ele>680.75</ele>
        <time>2022-08-08T11:46:06Z</time>
      </trkpt>
      <trkpt lat="44.27802" lon="3.71792">
        <ele>681.71</ele>
        <time>2022-08-08T11:46:21Z</time>
      </trkpt>
      <trkpt lat="44.27801" lon="3.71814">
        <ele>682.67</ele>
        <time>2022-08-08T11:46:32Z</time>
      </trkpt>
      <trkpt lat="44.27801" lon="3.71834">
        <ele>680.75</ele>
        <time>2022-08-08T11:46:44Z</time>
      </trkpt>
      <trkpt lat="44.278" lon="3.71857">
        <ele>677.39</ele>
        <time>2022-08-08T11:46:58Z</time>
      </trkpt>
      <trkpt lat="44.27797" lon="3.71876">
        <ele>676.42</ele>
        <time>2022-08-08T11:47:09Z</time>
      </trkpt>
      <trkpt lat="44.27794" lon="3.71895">
        <ele>673.54</ele>
        <time>2022-08-08T11:47:22Z</time>
      </trkpt>
      <trkpt lat="44.27791" lon="3.71917">
        <ele>671.14</ele>
        <time>2022-08-08T11:47:34Z</time>
      </trkpt>
      <trkpt lat="44.27789" lon="3.71933">
        <ele>670.18</ele>
        <time>2022-08-08T11:47:46Z</time>
      </trkpt>
      <trkpt lat="44.27786" lon="3.71955">
        <ele>672.1</ele>
        <time>2022-08-08T11:47:59Z</time>
      </trkpt>
      <trkpt lat="44.27785" lon="3.71978">
        <ele>673.06</ele>
        <time>2022-08-08T11:48:14Z</time>
      </trkpt>
      <trkpt lat="44.27779" lon="3.72014">
        <ele>686.04</ele>
        <time>2022-08-08T11:48:27Z</time>
      </trkpt>
      <trkpt lat="44.27782" lon="3.72043">
        <ele>685.56</ele>
        <time>2022-08-08T11:48:43Z</time>
      </trkpt>
      <trkpt lat="44.27783" lon="3.72045">
        <ele>685.08</ele>
        <time>2022-08-08T11:48:44Z</time>
      </trkpt>
      <trkpt lat="44.27786" lon="3.72063">
        <ele>684.6</ele>
        <time>2022-08-08T11:48:58Z</time>
      </trkpt>
      <trkpt lat="44.27789" lon="3.72092">
        <ele>684.6</ele>
        <time>2022-08-08T11:49:12Z</time>
      </trkpt>
      <trkpt lat="44.27789" lon="3.721">
        <ele>684.6</ele>
        <time>2022-08-08T11:49:15Z</time>
      </trkpt>
      <trkpt lat="44.27792" lon="3.7213">
        <ele>686.52</ele>
        <time>2022-08-08T11:49:31Z</time>
      </trkpt>
      <trkpt lat="44.27794" lon="3.72152">
        <ele>689.88</ele>
        <time>2022-08-08T11:49:44Z</time>
      </trkpt>
      <trkpt lat="44.27796" lon="3.72161">
        <ele>689.88</ele>
        <time>2022-08-08T11:49:50Z</time>
      </trkpt>
      <trkpt lat="44.27802" lon="3.72186">
        <ele>687</ele>
        <time>2022-08-08T11:50:05Z</time>
      </trkpt>
      <trkpt lat="44.27804" lon="3.7221">
        <ele>686.04</ele>
        <time>2022-08-08T11:50:21Z</time>
      </trkpt>
      <trkpt lat="44.27807" lon="3.72238">
        <ele>683.15</ele>
        <time>2022-08-08T11:50:38Z</time>
      </trkpt>
      <trkpt lat="44.27807" lon="3.72259">
        <ele>680.75</ele>
        <time>2022-08-08T11:50:53Z</time>
      </trkpt>
      <trkpt lat="44.27806" lon="3.72271">
        <ele>680.75</ele>
        <time>2022-08-08T11:50:59Z</time>
      </trkpt>
      <trkpt lat="44.27801" lon="3.72293">
        <ele>682.19</ele>
        <time>2022-08-08T11:51:13Z</time>
      </trkpt>
      <trkpt lat="44.27796" lon="3.72312">
        <ele>681.71</ele>
        <time>2022-08-08T11:51:26Z</time>
      </trkpt>
      <trkpt lat="44.2779" lon="3.72334">
        <ele>684.12</ele>
        <time>2022-08-08T11:51:39Z</time>
      </trkpt>
      <trkpt lat="44.27784" lon="3.72353">
        <ele>685.08</ele>
        <time>2022-08-08T11:51:52Z</time>
      </trkpt>
      <trkpt lat="44.27771" lon="3.72376">
        <ele>687.48</ele>
        <time>2022-08-08T11:52:08Z</time>
      </trkpt>
      <trkpt lat="44.27759" lon="3.72392">
        <ele>685.08</ele>
        <time>2022-08-08T11:52:24Z</time>
      </trkpt>
      <trkpt lat="44.27743" lon="3.72405">
        <ele>684.12</ele>
        <time>2022-08-08T11:52:39Z</time>
      </trkpt>
      <trkpt lat="44.27733" lon="3.72417">
        <ele>680.75</ele>
        <time>2022-08-08T11:52:52Z</time>
      </trkpt>
      <trkpt lat="44.27721" lon="3.72425">
        <ele>674.02</ele>
        <time>2022-08-08T11:53:05Z</time>
      </trkpt>
      <trkpt lat="44.27712" lon="3.72429">
        <ele>668.73</ele>
        <time>2022-08-08T11:53:17Z</time>
      </trkpt>
      <trkpt lat="44.27699" lon="3.7244">
        <ele>667.29</ele>
        <time>2022-08-08T11:53:30Z</time>
      </trkpt>
      <trkpt lat="44.27688" lon="3.72454">
        <ele>664.89</ele>
        <time>2022-08-08T11:53:43Z</time>
      </trkpt>
      <trkpt lat="44.27683" lon="3.72457">
        <ele>664.89</ele>
        <time>2022-08-08T11:53:47Z</time>
      </trkpt>
      <trkpt lat="44.27669" lon="3.72471">
        <ele>667.77</ele>
        <time>2022-08-08T11:54:00Z</time>
      </trkpt>
      <trkpt lat="44.27668" lon="3.72472">
        <ele>668.25</ele>
        <time>2022-08-08T11:54:01Z</time>
      </trkpt>
      <trkpt lat="44.27655" lon="3.72476">
        <ele>674.5</ele>
        <time>2022-08-08T11:54:07Z</time>
      </trkpt>
      <trkpt lat="44.27653" lon="3.72478">
        <ele>674.98</ele>
        <time>2022-08-08T11:54:09Z</time>
      </trkpt>
      <trkpt lat="44.27636" lon="3.72495">
        <ele>683.15</ele>
        <time>2022-08-08T11:54:23Z</time>
      </trkpt>
      <trkpt lat="44.27617" lon="3.72513">
        <ele>690.36</ele>
        <time>2022-08-08T11:54:38Z</time>
      </trkpt>
      <trkpt lat="44.27616" lon="3.72514">
        <ele>690.36</ele>
        <time>2022-08-08T11:54:39Z</time>
      </trkpt>
      <trkpt lat="44.27603" lon="3.72532">
        <ele>687.96</ele>
        <time>2022-08-08T11:54:55Z</time>
      </trkpt>
      <trkpt lat="44.27589" lon="3.72549">
        <ele>688.92</ele>
        <time>2022-08-08T11:55:10Z</time>
      </trkpt>
      <trkpt lat="44.27578" lon="3.72562">
        <ele>687</ele>
        <time>2022-08-08T11:55:22Z</time>
      </trkpt>
      <trkpt lat="44.27566" lon="3.72576">
        <ele>688.44</ele>
        <time>2022-08-08T11:55:36Z</time>
      </trkpt>
      <trkpt lat="44.27554" lon="3.72596">
        <ele>691.33</ele>
        <time>2022-08-08T11:55:50Z</time>
      </trkpt>
      <trkpt lat="44.27543" lon="3.72617">
        <ele>692.29</ele>
        <time>2022-08-08T11:56:05Z</time>
      </trkpt>
      <trkpt lat="44.27534" lon="3.72637">
        <ele>692.77</ele>
        <time>2022-08-08T11:56:18Z</time>
      </trkpt>
      <trkpt lat="44.27527" lon="3.7266">
        <ele>692.29</ele>
        <time>2022-08-08T11:56:32Z</time>
      </trkpt>
      <trkpt lat="44.27519" lon="3.72683">
        <ele>691.81</ele>
        <time>2022-08-08T11:56:46Z</time>
      </trkpt>
      <trkpt lat="44.27511" lon="3.72699">
        <ele>692.29</ele>
        <time>2022-08-08T11:56:58Z</time>
      </trkpt>
      <trkpt lat="44.27502" lon="3.72723">
        <ele>691.33</ele>
        <time>2022-08-08T11:57:14Z</time>
      </trkpt>
      <trkpt lat="44.27494" lon="3.72747">
        <ele>690.84</ele>
        <time>2022-08-08T11:57:28Z</time>
      </trkpt>
      <trkpt lat="44.27488" lon="3.72773">
        <ele>692.29</ele>
        <time>2022-08-08T11:57:43Z</time>
      </trkpt>
      <trkpt lat="44.27486" lon="3.72805">
        <ele>692.77</ele>
        <time>2022-08-08T11:58:02Z</time>
      </trkpt>
      <trkpt lat="44.27485" lon="3.72828">
        <ele>692.29</ele>
        <time>2022-08-08T11:58:16Z</time>
      </trkpt>
      <trkpt lat="44.27484" lon="3.72843">
        <ele>693.25</ele>
        <time>2022-08-08T11:58:25Z</time>
      </trkpt>
      <trkpt lat="44.27483" lon="3.72846">
        <ele>693.25</ele>
        <time>2022-08-08T11:58:27Z</time>
      </trkpt>
      <trkpt lat="44.27481" lon="3.72874">
        <ele>692.29</ele>
        <time>2022-08-08T11:58:44Z</time>
      </trkpt>
      <trkpt lat="44.27476" lon="3.72897">
        <ele>692.77</ele>
        <time>2022-08-08T11:58:56Z</time>
      </trkpt>
      <trkpt lat="44.27474" lon="3.72915">
        <ele>692.77</ele>
        <time>2022-08-08T11:59:07Z</time>
      </trkpt>
      <trkpt lat="44.2747" lon="3.72924">
        <ele>694.21</ele>
        <time>2022-08-08T11:59:12Z</time>
      </trkpt>
      <trkpt lat="44.27458" lon="3.72945">
        <ele>696.61</ele>
        <time>2022-08-08T11:59:26Z</time>
      </trkpt>
      <trkpt lat="44.27452" lon="3.72954">
        <ele>696.61</ele>
        <time>2022-08-08T11:59:33Z</time>
      </trkpt>
      <trkpt lat="44.27449" lon="3.72956">
        <ele>697.09</ele>
        <time>2022-08-08T11:59:36Z</time>
      </trkpt>
      <trkpt lat="44.27447" lon="3.72958">
        <ele>696.61</ele>
        <time>2022-08-08T11:59:38Z</time>
      </trkpt>
      <trkpt lat="44.27434" lon="3.72971">
        <ele>692.77</ele>
        <time>2022-08-08T11:59:53Z</time>
      </trkpt>
      <trkpt lat="44.27419" lon="3.72978">
        <ele>692.77</ele>
        <time>2022-08-08T12:00:05Z</time>
      </trkpt>
      <trkpt lat="44.27418" lon="3.72978">
        <ele>692.77</ele>
        <time>2022-08-08T12:00:06Z</time>
      </trkpt>
      <trkpt lat="44.27401" lon="3.72981">
        <ele>690.36</ele>
        <time>2022-08-08T12:00:21Z</time>
      </trkpt>
      <trkpt lat="44.27385" lon="3.7298">
        <ele>687.96</ele>
        <time>2022-08-08T12:00:35Z</time>
      </trkpt>
      <trkpt lat="44.27373" lon="3.72981">
        <ele>685.56</ele>
        <time>2022-08-08T12:00:48Z</time>
      </trkpt>
      <trkpt lat="44.27359" lon="3.72977">
        <ele>685.08</ele>
        <time>2022-08-08T12:01:01Z</time>
      </trkpt>
      <trkpt lat="44.27338" lon="3.72972">
        <ele>686.52</ele>
        <time>2022-08-08T12:01:15Z</time>
      </trkpt>
      <trkpt lat="44.27314" lon="3.72966">
        <ele>686.52</ele>
        <time>2022-08-08T12:01:30Z</time>
      </trkpt>
      <trkpt lat="44.27302" lon="3.72965">
        <ele>685.56</ele>
        <time>2022-08-08T12:01:39Z</time>
      </trkpt>
      <trkpt lat="44.2729" lon="3.72963">
        <ele>685.08</ele>
        <time>2022-08-08T12:01:48Z</time>
      </trkpt>
      <trkpt lat="44.27287" lon="3.72963">
        <ele>684.6</ele>
        <time>2022-08-08T12:01:50Z</time>
      </trkpt>
      <trkpt lat="44.27273" lon="3.72963">
        <ele>682.19</ele>
        <time>2022-08-08T12:02:03Z</time>
      </trkpt>
      <trkpt lat="44.27259" lon="3.72962">
        <ele>677.39</ele>
        <time>2022-08-08T12:02:18Z</time>
      </trkpt>
      <trkpt lat="44.2724" lon="3.72966">
        <ele>674.02</ele>
        <time>2022-08-08T12:02:32Z</time>
      </trkpt>
      <trkpt lat="44.2723" lon="3.72974">
        <ele>678.35</ele>
        <time>2022-08-08T12:02:38Z</time>
      </trkpt>
      <trkpt lat="44.2721" lon="3.72987">
        <ele>683.63</ele>
        <time>2022-08-08T12:02:52Z</time>
      </trkpt>
      <trkpt lat="44.27204" lon="3.7299">
        <ele>683.63</ele>
        <time>2022-08-08T12:02:57Z</time>
      </trkpt>
      <trkpt lat="44.27185" lon="3.73004">
        <ele>688.44</ele>
        <time>2022-08-08T12:03:12Z</time>
      </trkpt>
      <trkpt lat="44.27175" lon="3.73013">
        <ele>689.4</ele>
        <time>2022-08-08T12:03:22Z</time>
      </trkpt>
      <trkpt lat="44.27161" lon="3.73025">
        <ele>689.4</ele>
        <time>2022-08-08T12:03:35Z</time>
      </trkpt>
      <trkpt lat="44.27148" lon="3.73036">
        <ele>689.88</ele>
        <time>2022-08-08T12:03:48Z</time>
      </trkpt>
      <trkpt lat="44.27145" lon="3.73039">
        <ele>690.36</ele>
        <time>2022-08-08T12:03:51Z</time>
      </trkpt>
      <trkpt lat="44.27142" lon="3.7304">
        <ele>690.36</ele>
        <time>2022-08-08T12:03:54Z</time>
      </trkpt>
      <trkpt lat="44.27137" lon="3.7305">
        <ele>691.33</ele>
        <time>2022-08-08T12:04:02Z</time>
      </trkpt>
      <trkpt lat="44.27136" lon="3.73061">
        <ele>692.77</ele>
        <time>2022-08-08T12:04:09Z</time>
      </trkpt>
      <trkpt lat="44.27139" lon="3.73068">
        <ele>692.29</ele>
        <time>2022-08-08T12:04:16Z</time>
      </trkpt>
      <trkpt lat="44.27144" lon="3.73075">
        <ele>689.4</ele>
        <time>2022-08-08T12:04:29Z</time>
      </trkpt>
      <trkpt lat="44.27153" lon="3.73066">
        <ele>687.96</ele>
        <time>2022-08-08T12:04:42Z</time>
      </trkpt>
      <trkpt lat="44.27164" lon="3.73053">
        <ele>689.4</ele>
        <time>2022-08-08T12:04:57Z</time>
      </trkpt>
      <trkpt lat="44.27166" lon="3.7305">
        <ele>692.29</ele>
        <time>2022-08-08T12:05:16Z</time>
      </trkpt>
      <trkpt lat="44.27169" lon="3.73052">
        <ele>692.77</ele>
        <time>2022-08-08T12:05:32Z</time>
      </trkpt>
      <trkpt lat="44.2717" lon="3.73041">
        <ele>693.73</ele>
        <time>2022-08-08T12:05:47Z</time>
      </trkpt>
      <trkpt lat="44.27165" lon="3.73031">
        <ele>695.65</ele>
        <time>2022-08-08T12:06:11Z</time>
      </trkpt>
      <trkpt lat="44.27163" lon="3.73028">
        <ele>694.69</ele>
        <time>2022-08-08T12:06:30Z</time>
      </trkpt>
      <trkpt lat="44.27167" lon="3.73036">
        <ele>694.69</ele>
        <time>2022-08-08T12:06:53Z</time>
      </trkpt>
      <trkpt lat="44.27172" lon="3.73043">
        <ele>692.29</ele>
        <time>2022-08-08T12:07:14Z</time>
      </trkpt>
      <trkpt lat="44.27171" lon="3.73046">
        <ele>684.6</ele>
        <time>2022-08-08T12:07:40Z</time>
      </trkpt>
      <trkpt lat="44.27167" lon="3.73032">
        <ele>675.94</ele>
        <time>2022-08-08T12:08:02Z</time>
      </trkpt>
      <trkpt lat="44.27168" lon="3.73037">
        <ele>678.35</ele>
        <time>2022-08-08T12:08:28Z</time>
      </trkpt>
      <trkpt lat="44.27169" lon="3.73032">
        <ele>676.42</ele>
        <time>2022-08-08T12:08:47Z</time>
      </trkpt>
      <trkpt lat="44.27162" lon="3.73011">
        <ele>668.25</ele>
        <time>2022-08-08T12:09:11Z</time>
      </trkpt>
      <trkpt lat="44.27157" lon="3.72998">
        <ele>668.73</ele>
        <time>2022-08-08T12:10:16Z</time>
      </trkpt>
      <trkpt lat="44.2715" lon="3.72976">
        <ele>668.73</ele>
        <time>2022-08-08T12:10:38Z</time>
      </trkpt>
      <trkpt lat="44.27168" lon="3.73023">
        <ele>692.77</ele>
        <time>2022-08-08T12:11:03Z</time>
      </trkpt>
      <trkpt lat="44.27177" lon="3.73044">
        <ele>702.38</ele>
        <time>2022-08-08T12:11:12Z</time>
      </trkpt>
      <trkpt lat="44.27176" lon="3.73044">
        <ele>702.86</ele>
        <time>2022-08-08T12:11:25Z</time>
      </trkpt>
      <trkpt lat="44.27177" lon="3.73048">
        <ele>705.75</ele>
        <time>2022-08-08T12:12:08Z</time>
      </trkpt>
      <trkpt lat="44.27179" lon="3.73044">
        <ele>705.75</ele>
        <time>2022-08-08T12:12:51Z</time>
      </trkpt>
      <trkpt lat="44.27182" lon="3.73048">
        <ele>697.09</ele>
        <time>2022-08-08T12:13:27Z</time>
      </trkpt>
      <trkpt lat="44.27179" lon="3.73027">
        <ele>691.33</ele>
        <time>2022-08-08T12:14:11Z</time>
      </trkpt>
      <trkpt lat="44.27181" lon="3.73033">
        <ele>690.84</ele>
        <time>2022-08-08T12:14:47Z</time>
      </trkpt>
      <trkpt lat="44.27181" lon="3.73032">
        <ele>692.77</ele>
        <time>2022-08-08T12:15:25Z</time>
      </trkpt>
      <trkpt lat="44.27175" lon="3.73026">
        <ele>691.81</ele>
        <time>2022-08-08T12:16:04Z</time>
      </trkpt>
      <trkpt lat="44.27175" lon="3.73027">
        <ele>694.21</ele>
        <time>2022-08-08T12:16:41Z</time>
      </trkpt>
      <trkpt lat="44.27178" lon="3.73031">
        <ele>696.13</ele>
        <time>2022-08-08T12:17:17Z</time>
      </trkpt>
      <trkpt lat="44.27178" lon="3.7303">
        <ele>694.69</ele>
        <time>2022-08-08T12:17:58Z</time>
      </trkpt>
      <trkpt lat="44.27174" lon="3.73021">
        <ele>691.81</ele>
        <time>2022-08-08T12:18:35Z</time>
      </trkpt>
      <trkpt lat="44.27176" lon="3.73017">
        <ele>688.92</ele>
        <time>2022-08-08T12:19:13Z</time>
      </trkpt>
      <trkpt lat="44.2718" lon="3.73036">
        <ele>686.52</ele>
        <time>2022-08-08T12:19:54Z</time>
      </trkpt>
      <trkpt lat="44.27176" lon="3.73026">
        <ele>693.25</ele>
        <time>2022-08-08T12:20:37Z</time>
      </trkpt>
      <trkpt lat="44.27179" lon="3.73034">
        <ele>696.13</ele>
        <time>2022-08-08T12:21:09Z</time>
      </trkpt>
      <trkpt lat="44.27181" lon="3.73035">
        <ele>694.21</ele>
        <time>2022-08-08T12:21:53Z</time>
      </trkpt>
      <trkpt lat="44.27181" lon="3.73037">
        <ele>696.61</ele>
        <time>2022-08-08T12:22:32Z</time>
      </trkpt>
      <trkpt lat="44.27176" lon="3.73028">
        <ele>700.94</ele>
        <time>2022-08-08T12:23:08Z</time>
      </trkpt>
      <trkpt lat="44.2718" lon="3.73029">
        <ele>699.5</ele>
        <time>2022-08-08T12:23:48Z</time>
      </trkpt>
      <trkpt lat="44.27183" lon="3.73034">
        <ele>700.46</ele>
        <time>2022-08-08T12:24:29Z</time>
      </trkpt>
      <trkpt lat="44.27176" lon="3.73026">
        <ele>704.78</ele>
        <time>2022-08-08T12:25:06Z</time>
      </trkpt>
      <trkpt lat="44.27178" lon="3.73029">
        <ele>699.5</ele>
        <time>2022-08-08T12:25:33Z</time>
      </trkpt>
      <trkpt lat="44.27178" lon="3.7303">
        <ele>702.38</ele>
        <time>2022-08-08T12:25:56Z</time>
      </trkpt>
      <trkpt lat="44.27186" lon="3.73031">
        <ele>704.78</ele>
        <time>2022-08-08T12:26:24Z</time>
      </trkpt>
      <trkpt lat="44.27186" lon="3.73039">
        <ele>700.46</ele>
        <time>2022-08-08T12:26:56Z</time>
      </trkpt>
      <trkpt lat="44.27181" lon="3.73038">
        <ele>699.5</ele>
        <time>2022-08-08T12:27:23Z</time>
      </trkpt>
      <trkpt lat="44.27177" lon="3.73033">
        <ele>700.94</ele>
        <time>2022-08-08T12:27:47Z</time>
      </trkpt>
      <trkpt lat="44.27174" lon="3.73035">
        <ele>700.46</ele>
        <time>2022-08-08T12:28:05Z</time>
      </trkpt>
      <trkpt lat="44.27174" lon="3.73042">
        <ele>703.34</ele>
        <time>2022-08-08T12:28:27Z</time>
      </trkpt>
      <trkpt lat="44.27168" lon="3.73034">
        <ele>700.94</ele>
        <time>2022-08-08T12:28:59Z</time>
      </trkpt>
      <trkpt lat="44.27164" lon="3.73033">
        <ele>699.5</ele>
        <time>2022-08-08T12:29:04Z</time>
      </trkpt>
      <trkpt lat="44.27157" lon="3.73046">
        <ele>700.46</ele>
        <time>2022-08-08T12:29:16Z</time>
      </trkpt>
      <trkpt lat="44.27152" lon="3.73057">
        <ele>702.38</ele>
        <time>2022-08-08T12:29:24Z</time>
      </trkpt>
      <trkpt lat="44.27139" lon="3.73062">
        <ele>700.46</ele>
        <time>2022-08-08T12:29:36Z</time>
      </trkpt>
      <trkpt lat="44.2713" lon="3.73057">
        <ele>699.02</ele>
        <time>2022-08-08T12:29:48Z</time>
      </trkpt>
      <trkpt lat="44.2712" lon="3.73046">
        <ele>698.05</ele>
        <time>2022-08-08T12:30:00Z</time>
      </trkpt>
      <trkpt lat="44.2711" lon="3.73037">
        <ele>699.5</ele>
        <time>2022-08-08T12:30:13Z</time>
      </trkpt>
      <trkpt lat="44.27107" lon="3.73035">
        <ele>699.02</ele>
        <time>2022-08-08T12:30:17Z</time>
      </trkpt>
      <trkpt lat="44.27097" lon="3.73024">
        <ele>695.65</ele>
        <time>2022-08-08T12:30:30Z</time>
      </trkpt>
      <trkpt lat="44.27086" lon="3.73013">
        <ele>691.81</ele>
        <time>2022-08-08T12:30:43Z</time>
      </trkpt>
      <trkpt lat="44.27081" lon="3.73007">
        <ele>691.33</ele>
        <time>2022-08-08T12:30:49Z</time>
      </trkpt>
      <trkpt lat="44.27068" lon="3.73003">
        <ele>693.25</ele>
        <time>2022-08-08T12:31:01Z</time>
      </trkpt>
      <trkpt lat="44.27058" lon="3.73012">
        <ele>693.25</ele>
        <time>2022-08-08T12:31:12Z</time>
      </trkpt>
      <trkpt lat="44.27046" lon="3.73031">
        <ele>694.21</ele>
        <time>2022-08-08T12:31:27Z</time>
      </trkpt>
      <trkpt lat="44.27045" lon="3.73033">
        <ele>694.21</ele>
        <time>2022-08-08T12:31:29Z</time>
      </trkpt>
      <trkpt lat="44.27043" lon="3.73036">
        <ele>694.21</ele>
        <time>2022-08-08T12:31:32Z</time>
      </trkpt>
      <trkpt lat="44.27031" lon="3.73057">
        <ele>693.73</ele>
        <time>2022-08-08T12:31:48Z</time>
      </trkpt>
      <trkpt lat="44.27016" lon="3.7307">
        <ele>694.69</ele>
        <time>2022-08-08T12:32:07Z</time>
      </trkpt>
      <trkpt lat="44.27003" lon="3.7308">
        <ele>696.13</ele>
        <time>2022-08-08T12:32:20Z</time>
      </trkpt>
      <trkpt lat="44.26985" lon="3.73081">
        <ele>697.09</ele>
        <time>2022-08-08T12:32:34Z</time>
      </trkpt>
      <trkpt lat="44.26971" lon="3.7308">
        <ele>691.81</ele>
        <time>2022-08-08T12:32:50Z</time>
      </trkpt>
      <trkpt lat="44.26956" lon="3.73072">
        <ele>685.56</ele>
        <time>2022-08-08T12:33:07Z</time>
      </trkpt>
      <trkpt lat="44.26942" lon="3.73068">
        <ele>686.04</ele>
        <time>2022-08-08T12:33:21Z</time>
      </trkpt>
      <trkpt lat="44.26929" lon="3.73067">
        <ele>687.48</ele>
        <time>2022-08-08T12:33:34Z</time>
      </trkpt>
      <trkpt lat="44.2692" lon="3.73064">
        <ele>689.88</ele>
        <time>2022-08-08T12:33:40Z</time>
      </trkpt>
      <trkpt lat="44.26907" lon="3.73064">
        <ele>691.81</ele>
        <time>2022-08-08T12:33:53Z</time>
      </trkpt>
      <trkpt lat="44.26891" lon="3.7307">
        <ele>695.65</ele>
        <time>2022-08-08T12:34:06Z</time>
      </trkpt>
      <trkpt lat="44.26881" lon="3.73096">
        <ele>699.98</ele>
        <time>2022-08-08T12:34:19Z</time>
      </trkpt>
      <trkpt lat="44.26876" lon="3.73104">
        <ele>702.86</ele>
        <time>2022-08-08T12:34:33Z</time>
      </trkpt>
      <trkpt lat="44.26901" lon="3.7312">
        <ele>706.23</ele>
        <time>2022-08-08T12:34:50Z</time>
      </trkpt>
      <trkpt lat="44.26921" lon="3.73136">
        <ele>708.63</ele>
        <time>2022-08-08T12:35:08Z</time>
      </trkpt>
      <trkpt lat="44.2694" lon="3.7315">
        <ele>711.03</ele>
        <time>2022-08-08T12:35:27Z</time>
      </trkpt>
      <trkpt lat="44.26956" lon="3.73164">
        <ele>708.63</ele>
        <time>2022-08-08T12:35:45Z</time>
      </trkpt>
      <trkpt lat="44.26977" lon="3.73178">
        <ele>708.63</ele>
        <time>2022-08-08T12:36:05Z</time>
      </trkpt>
      <trkpt lat="44.26989" lon="3.73192">
        <ele>703.82</ele>
        <time>2022-08-08T12:36:20Z</time>
      </trkpt>
      <trkpt lat="44.26996" lon="3.73207">
        <ele>700.46</ele>
        <time>2022-08-08T12:36:34Z</time>
      </trkpt>
      <trkpt lat="44.27001" lon="3.73224">
        <ele>698.05</ele>
        <time>2022-08-08T12:36:48Z</time>
      </trkpt>
      <trkpt lat="44.27001" lon="3.73245">
        <ele>699.02</ele>
        <time>2022-08-08T12:37:02Z</time>
      </trkpt>
      <trkpt lat="44.27002" lon="3.73254">
        <ele>699.5</ele>
        <time>2022-08-08T12:37:08Z</time>
      </trkpt>
      <trkpt lat="44.27003" lon="3.73274">
        <ele>699.98</ele>
        <time>2022-08-08T12:37:22Z</time>
      </trkpt>
      <trkpt lat="44.27004" lon="3.7329">
        <ele>699.02</ele>
        <time>2022-08-08T12:37:35Z</time>
      </trkpt>
      <trkpt lat="44.27002" lon="3.7331">
        <ele>699.98</ele>
        <time>2022-08-08T12:37:48Z</time>
      </trkpt>
      <trkpt lat="44.26994" lon="3.73331">
        <ele>702.38</ele>
        <time>2022-08-08T12:38:03Z</time>
      </trkpt>
      <trkpt lat="44.26986" lon="3.73346">
        <ele>704.3</ele>
        <time>2022-08-08T12:38:16Z</time>
      </trkpt>
      <trkpt lat="44.26973" lon="3.73365">
        <ele>706.23</ele>
        <time>2022-08-08T12:38:33Z</time>
      </trkpt>
      <trkpt lat="44.26961" lon="3.73381">
        <ele>706.71</ele>
        <time>2022-08-08T12:38:49Z</time>
      </trkpt>
      <trkpt lat="44.26949" lon="3.734">
        <ele>705.26</ele>
        <time>2022-08-08T12:39:08Z</time>
      </trkpt>
      <trkpt lat="44.26938" lon="3.73415">
        <ele>706.71</ele>
        <time>2022-08-08T12:39:24Z</time>
      </trkpt>
      <trkpt lat="44.26924" lon="3.73429">
        <ele>709.11</ele>
        <time>2022-08-08T12:39:41Z</time>
      </trkpt>
      <trkpt lat="44.26909" lon="3.73443">
        <ele>710.07</ele>
        <time>2022-08-08T12:39:58Z</time>
      </trkpt>
      <trkpt lat="44.26898" lon="3.73452">
        <ele>710.55</ele>
        <time>2022-08-08T12:40:13Z</time>
      </trkpt>
      <trkpt lat="44.26888" lon="3.73463">
        <ele>712.47</ele>
        <time>2022-08-08T12:40:27Z</time>
      </trkpt>
      <trkpt lat="44.26875" lon="3.73475">
        <ele>715.84</ele>
        <time>2022-08-08T12:40:43Z</time>
      </trkpt>
      <trkpt lat="44.26863" lon="3.73485">
        <ele>717.76</ele>
        <time>2022-08-08T12:40:59Z</time>
      </trkpt>
      <trkpt lat="44.26856" lon="3.7351">
        <ele>720.65</ele>
        <time>2022-08-08T12:41:18Z</time>
      </trkpt>
      <trkpt lat="44.26849" lon="3.73528">
        <ele>720.65</ele>
        <time>2022-08-08T12:41:33Z</time>
      </trkpt>
      <trkpt lat="44.26835" lon="3.73541">
        <ele>721.61</ele>
        <time>2022-08-08T12:41:51Z</time>
      </trkpt>
      <trkpt lat="44.26825" lon="3.73558">
        <ele>723.53</ele>
        <time>2022-08-08T12:42:07Z</time>
      </trkpt>
      <trkpt lat="44.26822" lon="3.7358">
        <ele>723.53</ele>
        <time>2022-08-08T12:42:24Z</time>
      </trkpt>
      <trkpt lat="44.26818" lon="3.73604">
        <ele>724.97</ele>
        <time>2022-08-08T12:42:40Z</time>
      </trkpt>
      <trkpt lat="44.26816" lon="3.73614">
        <ele>725.45</ele>
        <time>2022-08-08T12:42:50Z</time>
      </trkpt>
      <trkpt lat="44.26813" lon="3.73615">
        <ele>726.41</ele>
        <time>2022-08-08T12:42:54Z</time>
      </trkpt>
      <trkpt lat="44.26799" lon="3.73601">
        <ele>729.78</ele>
        <time>2022-08-08T12:43:11Z</time>
      </trkpt>
      <trkpt lat="44.26783" lon="3.73592">
        <ele>735.55</ele>
        <time>2022-08-08T12:43:29Z</time>
      </trkpt>
      <trkpt lat="44.26767" lon="3.73579">
        <ele>737.95</ele>
        <time>2022-08-08T12:43:50Z</time>
      </trkpt>
      <trkpt lat="44.26754" lon="3.73571">
        <ele>738.91</ele>
        <time>2022-08-08T12:44:06Z</time>
      </trkpt>
      <trkpt lat="44.26738" lon="3.7356">
        <ele>738.43</ele>
        <time>2022-08-08T12:44:25Z</time>
      </trkpt>
      <trkpt lat="44.26727" lon="3.73552">
        <ele>735.07</ele>
        <time>2022-08-08T12:44:39Z</time>
      </trkpt>
      <trkpt lat="44.26714" lon="3.73546">
        <ele>736.51</ele>
        <time>2022-08-08T12:44:53Z</time>
      </trkpt>
      <trkpt lat="44.26699" lon="3.73548">
        <ele>740.35</ele>
        <time>2022-08-08T12:45:07Z</time>
      </trkpt>
      <trkpt lat="44.26681" lon="3.73548">
        <ele>743.72</ele>
        <time>2022-08-08T12:45:26Z</time>
      </trkpt>
      <trkpt lat="44.26667" lon="3.73544">
        <ele>745.64</ele>
        <time>2022-08-08T12:45:44Z</time>
      </trkpt>
      <trkpt lat="44.26653" lon="3.73539">
        <ele>745.64</ele>
        <time>2022-08-08T12:45:58Z</time>
      </trkpt>
      <trkpt lat="44.26641" lon="3.73531">
        <ele>745.64</ele>
        <time>2022-08-08T12:46:15Z</time>
      </trkpt>
      <trkpt lat="44.26629" lon="3.73524">
        <ele>747.08</ele>
        <time>2022-08-08T12:46:32Z</time>
      </trkpt>
      <trkpt lat="44.26604" lon="3.73537">
        <ele>753.81</ele>
        <time>2022-08-08T12:46:51Z</time>
      </trkpt>
      <trkpt lat="44.26591" lon="3.73543">
        <ele>753.81</ele>
        <time>2022-08-08T12:47:07Z</time>
      </trkpt>
      <trkpt lat="44.26579" lon="3.7355">
        <ele>751.89</ele>
        <time>2022-08-08T12:47:23Z</time>
      </trkpt>
      <trkpt lat="44.26564" lon="3.73562">
        <ele>749.97</ele>
        <time>2022-08-08T12:47:41Z</time>
      </trkpt>
      <trkpt lat="44.26547" lon="3.73575">
        <ele>753.33</ele>
        <time>2022-08-08T12:47:57Z</time>
      </trkpt>
      <trkpt lat="44.2653" lon="3.73576">
        <ele>750.93</ele>
        <time>2022-08-08T12:48:15Z</time>
      </trkpt>
      <trkpt lat="44.26514" lon="3.73565">
        <ele>749.49</ele>
        <time>2022-08-08T12:48:34Z</time>
      </trkpt>
      <trkpt lat="44.26524" lon="3.73557">
        <ele>754.77</ele>
        <time>2022-08-08T12:48:49Z</time>
      </trkpt>
      <trkpt lat="44.26538" lon="3.73556">
        <ele>757.66</ele>
        <time>2022-08-08T12:49:06Z</time>
      </trkpt>
      <trkpt lat="44.26554" lon="3.73545">
        <ele>762.46</ele>
        <time>2022-08-08T12:49:21Z</time>
      </trkpt>
      <trkpt lat="44.26563" lon="3.73533">
        <ele>765.83</ele>
        <time>2022-08-08T12:49:34Z</time>
      </trkpt>
      <trkpt lat="44.26571" lon="3.73523">
        <ele>767.27</ele>
        <time>2022-08-08T12:49:48Z</time>
      </trkpt>
      <trkpt lat="44.26582" lon="3.73511">
        <ele>770.63</ele>
        <time>2022-08-08T12:50:02Z</time>
      </trkpt>
      <trkpt lat="44.26592" lon="3.73498">
        <ele>771.11</ele>
        <time>2022-08-08T12:50:16Z</time>
      </trkpt>
      <trkpt lat="44.26604" lon="3.73483">
        <ele>771.11</ele>
        <time>2022-08-08T12:50:32Z</time>
      </trkpt>
      <trkpt lat="44.26608" lon="3.73476">
        <ele>772.56</ele>
        <time>2022-08-08T12:50:40Z</time>
      </trkpt>
      <trkpt lat="44.26618" lon="3.73466">
        <ele>775.44</ele>
        <time>2022-08-08T12:50:55Z</time>
      </trkpt>
      <trkpt lat="44.26629" lon="3.73473">
        <ele>776.88</ele>
        <time>2022-08-08T12:51:06Z</time>
      </trkpt>
      <trkpt lat="44.26645" lon="3.73473">
        <ele>776.88</ele>
        <time>2022-08-08T12:51:21Z</time>
      </trkpt>
      <trkpt lat="44.2666" lon="3.73468">
        <ele>777.36</ele>
        <time>2022-08-08T12:51:37Z</time>
      </trkpt>
      <trkpt lat="44.26677" lon="3.73468">
        <ele>777.84</ele>
        <time>2022-08-08T12:51:53Z</time>
      </trkpt>
      <trkpt lat="44.26689" lon="3.73471">
        <ele>780.25</ele>
        <time>2022-08-08T12:52:09Z</time>
      </trkpt>
      <trkpt lat="44.26703" lon="3.73471">
        <ele>783.13</ele>
        <time>2022-08-08T12:52:23Z</time>
      </trkpt>
      <trkpt lat="44.26718" lon="3.73467">
        <ele>780.73</ele>
        <time>2022-08-08T12:52:38Z</time>
      </trkpt>
      <trkpt lat="44.26733" lon="3.73468">
        <ele>779.77</ele>
        <time>2022-08-08T12:52:54Z</time>
      </trkpt>
      <trkpt lat="44.2675" lon="3.73465">
        <ele>781.69</ele>
        <time>2022-08-08T12:53:10Z</time>
      </trkpt>
      <trkpt lat="44.26765" lon="3.73455">
        <ele>784.09</ele>
        <time>2022-08-08T12:53:26Z</time>
      </trkpt>
      <trkpt lat="44.2677" lon="3.73449">
        <ele>784.57</ele>
        <time>2022-08-08T12:53:32Z</time>
      </trkpt>
      <trkpt lat="44.26779" lon="3.73431">
        <ele>787.94</ele>
        <time>2022-08-08T12:53:49Z</time>
      </trkpt>
      <trkpt lat="44.26784" lon="3.73413">
        <ele>789.86</ele>
        <time>2022-08-08T12:54:05Z</time>
      </trkpt>
      <trkpt lat="44.2679" lon="3.7339">
        <ele>790.34</ele>
        <time>2022-08-08T12:54:23Z</time>
      </trkpt>
      <trkpt lat="44.26794" lon="3.73377">
        <ele>792.26</ele>
        <time>2022-08-08T12:54:35Z</time>
      </trkpt>
      <trkpt lat="44.268" lon="3.7336">
        <ele>796.11</ele>
        <time>2022-08-08T12:54:50Z</time>
      </trkpt>
      <trkpt lat="44.26807" lon="3.73348">
        <ele>797.55</ele>
        <time>2022-08-08T12:55:05Z</time>
      </trkpt>
      <trkpt lat="44.26814" lon="3.73335">
        <ele>799.95</ele>
        <time>2022-08-08T12:55:20Z</time>
      </trkpt>
      <trkpt lat="44.26824" lon="3.73313">
        <ele>800.44</ele>
        <time>2022-08-08T12:55:37Z</time>
      </trkpt>
      <trkpt lat="44.26827" lon="3.73294">
        <ele>802.36</ele>
        <time>2022-08-08T12:55:51Z</time>
      </trkpt>
      <trkpt lat="44.26828" lon="3.73293">
        <ele>802.36</ele>
        <time>2022-08-08T12:55:52Z</time>
      </trkpt>
      <trkpt lat="44.26826" lon="3.73276">
        <ele>801.88</ele>
        <time>2022-08-08T12:56:04Z</time>
      </trkpt>
      <trkpt lat="44.26815" lon="3.73261">
        <ele>803.8</ele>
        <time>2022-08-08T12:56:19Z</time>
      </trkpt>
      <trkpt lat="44.26801" lon="3.73248">
        <ele>803.8</ele>
        <time>2022-08-08T12:56:35Z</time>
      </trkpt>
      <trkpt lat="44.26792" lon="3.7325">
        <ele>803.32</ele>
        <time>2022-08-08T12:56:46Z</time>
      </trkpt>
      <trkpt lat="44.2678" lon="3.73256">
        <ele>804.76</ele>
        <time>2022-08-08T12:57:00Z</time>
      </trkpt>
      <trkpt lat="44.26763" lon="3.73257">
        <ele>805.24</ele>
        <time>2022-08-08T12:57:14Z</time>
      </trkpt>
      <trkpt lat="44.26749" lon="3.73255">
        <ele>804.28</ele>
        <time>2022-08-08T12:57:28Z</time>
      </trkpt>
      <trkpt lat="44.26736" lon="3.73256">
        <ele>805.24</ele>
        <time>2022-08-08T12:57:43Z</time>
      </trkpt>
      <trkpt lat="44.26723" lon="3.73255">
        <ele>807.16</ele>
        <time>2022-08-08T12:57:58Z</time>
      </trkpt>
      <trkpt lat="44.26711" lon="3.73257">
        <ele>808.13</ele>
        <time>2022-08-08T12:58:13Z</time>
      </trkpt>
      <trkpt lat="44.26705" lon="3.73256">
        <ele>809.09</ele>
        <time>2022-08-08T12:58:18Z</time>
      </trkpt>
      <trkpt lat="44.26687" lon="3.73256">
        <ele>811.01</ele>
        <time>2022-08-08T12:58:35Z</time>
      </trkpt>
      <trkpt lat="44.26675" lon="3.73258">
        <ele>811.97</ele>
        <time>2022-08-08T12:58:47Z</time>
      </trkpt>
      <trkpt lat="44.26669" lon="3.73262">
        <ele>812.93</ele>
        <time>2022-08-08T12:58:54Z</time>
      </trkpt>
      <trkpt lat="44.26666" lon="3.73263">
        <ele>812.93</ele>
        <time>2022-08-08T12:58:58Z</time>
      </trkpt>
      <trkpt lat="44.2666" lon="3.73268">
        <ele>813.41</ele>
        <time>2022-08-08T12:59:13Z</time>
      </trkpt>
      <trkpt lat="44.26653" lon="3.7327">
        <ele>812.93</ele>
        <time>2022-08-08T12:59:26Z</time>
      </trkpt>
      <trkpt lat="44.26646" lon="3.73268">
        <ele>813.89</ele>
        <time>2022-08-08T12:59:40Z</time>
      </trkpt>
      <trkpt lat="44.26653" lon="3.73272">
        <ele>812.45</ele>
        <time>2022-08-08T12:59:54Z</time>
      </trkpt>
      <trkpt lat="44.26658" lon="3.73273">
        <ele>811.97</ele>
        <time>2022-08-08T13:00:08Z</time>
      </trkpt>
      <trkpt lat="44.26659" lon="3.73269">
        <ele>813.89</ele>
        <time>2022-08-08T13:00:22Z</time>
      </trkpt>
      <trkpt lat="44.26662" lon="3.73266">
        <ele>816.78</ele>
        <time>2022-08-08T13:00:42Z</time>
      </trkpt>
      <trkpt lat="44.26663" lon="3.73266">
        <ele>816.78</ele>
        <time>2022-08-08T13:01:04Z</time>
      </trkpt>
      <trkpt lat="44.26658" lon="3.73267">
        <ele>821.1</ele>
        <time>2022-08-08T13:01:29Z</time>
      </trkpt>
      <trkpt lat="44.26649" lon="3.73267">
        <ele>821.58</ele>
        <time>2022-08-08T13:01:40Z</time>
      </trkpt>
      <trkpt lat="44.26637" lon="3.73263">
        <ele>820.62</ele>
        <time>2022-08-08T13:01:52Z</time>
      </trkpt>
      <trkpt lat="44.26635" lon="3.73263">
        <ele>820.62</ele>
        <time>2022-08-08T13:01:54Z</time>
      </trkpt>
      <trkpt lat="44.2662" lon="3.73262">
        <ele>821.58</ele>
        <time>2022-08-08T13:02:08Z</time>
      </trkpt>
      <trkpt lat="44.26606" lon="3.73262">
        <ele>822.06</ele>
        <time>2022-08-08T13:02:23Z</time>
      </trkpt>
      <trkpt lat="44.26592" lon="3.73263">
        <ele>821.1</ele>
        <time>2022-08-08T13:02:38Z</time>
      </trkpt>
      <trkpt lat="44.26575" lon="3.73261">
        <ele>822.06</ele>
        <time>2022-08-08T13:02:54Z</time>
      </trkpt>
      <trkpt lat="44.2656" lon="3.73261">
        <ele>823.03</ele>
        <time>2022-08-08T13:03:07Z</time>
      </trkpt>
      <trkpt lat="44.26542" lon="3.73257">
        <ele>822.55</ele>
        <time>2022-08-08T13:03:23Z</time>
      </trkpt>
      <trkpt lat="44.26526" lon="3.73256">
        <ele>822.55</ele>
        <time>2022-08-08T13:03:38Z</time>
      </trkpt>
      <trkpt lat="44.26523" lon="3.73256">
        <ele>823.03</ele>
        <time>2022-08-08T13:03:41Z</time>
      </trkpt>
      <trkpt lat="44.26506" lon="3.73256">
        <ele>825.91</ele>
        <time>2022-08-08T13:03:58Z</time>
      </trkpt>
      <trkpt lat="44.26494" lon="3.73256">
        <ele>829.27</ele>
        <time>2022-08-08T13:04:11Z</time>
      </trkpt>
      <trkpt lat="44.26477" lon="3.73256">
        <ele>832.16</ele>
        <time>2022-08-08T13:04:28Z</time>
      </trkpt>
      <trkpt lat="44.26464" lon="3.7325">
        <ele>833.6</ele>
        <time>2022-08-08T13:04:43Z</time>
      </trkpt>
      <trkpt lat="44.26451" lon="3.73239">
        <ele>834.56</ele>
        <time>2022-08-08T13:05:00Z</time>
      </trkpt>
      <trkpt lat="44.26439" lon="3.73225">
        <ele>834.08</ele>
        <time>2022-08-08T13:05:18Z</time>
      </trkpt>
      <trkpt lat="44.26432" lon="3.73212">
        <ele>834.56</ele>
        <time>2022-08-08T13:05:31Z</time>
      </trkpt>
      <trkpt lat="44.26428" lon="3.73192">
        <ele>837.93</ele>
        <time>2022-08-08T13:05:46Z</time>
      </trkpt>
      <trkpt lat="44.26428" lon="3.73175">
        <ele>840.81</ele>
        <time>2022-08-08T13:05:59Z</time>
      </trkpt>
      <trkpt lat="44.26422" lon="3.73151">
        <ele>841.29</ele>
        <time>2022-08-08T13:06:15Z</time>
      </trkpt>
      <trkpt lat="44.26415" lon="3.73132">
        <ele>840.81</ele>
        <time>2022-08-08T13:06:31Z</time>
      </trkpt>
      <trkpt lat="44.2641" lon="3.73119">
        <ele>840.81</ele>
        <time>2022-08-08T13:06:43Z</time>
      </trkpt>
      <trkpt lat="44.26399" lon="3.73105">
        <ele>841.77</ele>
        <time>2022-08-08T13:06:57Z</time>
      </trkpt>
      <trkpt lat="44.26389" lon="3.73091">
        <ele>843.69</ele>
        <time>2022-08-08T13:07:11Z</time>
      </trkpt>
      <trkpt lat="44.26378" lon="3.73078">
        <ele>844.66</ele>
        <time>2022-08-08T13:07:24Z</time>
      </trkpt>
      <trkpt lat="44.2637" lon="3.7307">
        <ele>844.66</ele>
        <time>2022-08-08T13:07:37Z</time>
      </trkpt>
      <trkpt lat="44.26363" lon="3.73055">
        <ele>844.18</ele>
        <time>2022-08-08T13:07:49Z</time>
      </trkpt>
      <trkpt lat="44.26353" lon="3.73036">
        <ele>844.18</ele>
        <time>2022-08-08T13:08:04Z</time>
      </trkpt>
      <trkpt lat="44.26341" lon="3.73017">
        <ele>847.06</ele>
        <time>2022-08-08T13:08:17Z</time>
      </trkpt>
      <trkpt lat="44.26331" lon="3.73">
        <ele>847.54</ele>
        <time>2022-08-08T13:08:32Z</time>
      </trkpt>
      <trkpt lat="44.26325" lon="3.72984">
        <ele>848.5</ele>
        <time>2022-08-08T13:08:45Z</time>
      </trkpt>
      <trkpt lat="44.26323" lon="3.72965">
        <ele>848.98</ele>
        <time>2022-08-08T13:08:57Z</time>
      </trkpt>
      <trkpt lat="44.26326" lon="3.72943">
        <ele>849.94</ele>
        <time>2022-08-08T13:09:12Z</time>
      </trkpt>
      <trkpt lat="44.26328" lon="3.72923">
        <ele>848.5</ele>
        <time>2022-08-08T13:09:24Z</time>
      </trkpt>
      <trkpt lat="44.26326" lon="3.72908">
        <ele>845.14</ele>
        <time>2022-08-08T13:09:37Z</time>
      </trkpt>
      <trkpt lat="44.26324" lon="3.72887">
        <ele>842.73</ele>
        <time>2022-08-08T13:09:52Z</time>
      </trkpt>
      <trkpt lat="44.26317" lon="3.72867">
        <ele>841.29</ele>
        <time>2022-08-08T13:10:05Z</time>
      </trkpt>
      <trkpt lat="44.26317" lon="3.72849">
        <ele>839.85</ele>
        <time>2022-08-08T13:10:19Z</time>
      </trkpt>
      <trkpt lat="44.26309" lon="3.72826">
        <ele>837.45</ele>
        <time>2022-08-08T13:10:34Z</time>
      </trkpt>
      <trkpt lat="44.263" lon="3.72804">
        <ele>834.56</ele>
        <time>2022-08-08T13:10:49Z</time>
      </trkpt>
      <trkpt lat="44.26292" lon="3.72783">
        <ele>833.6</ele>
        <time>2022-08-08T13:11:04Z</time>
      </trkpt>
      <trkpt lat="44.26291" lon="3.7278">
        <ele>834.08</ele>
        <time>2022-08-08T13:11:06Z</time>
      </trkpt>
      <trkpt lat="44.26287" lon="3.72757">
        <ele>836.48</ele>
        <time>2022-08-08T13:11:24Z</time>
      </trkpt>
      <trkpt lat="44.26283" lon="3.72731">
        <ele>838.89</ele>
        <time>2022-08-08T13:11:41Z</time>
      </trkpt>
      <trkpt lat="44.26268" lon="3.72704">
        <ele>839.85</ele>
        <time>2022-08-08T13:11:59Z</time>
      </trkpt>
      <trkpt lat="44.26257" lon="3.72691">
        <ele>838.41</ele>
        <time>2022-08-08T13:12:14Z</time>
      </trkpt>
      <trkpt lat="44.26241" lon="3.72686">
        <ele>838.41</ele>
        <time>2022-08-08T13:12:29Z</time>
      </trkpt>
      <trkpt lat="44.26224" lon="3.72681">
        <ele>841.77</ele>
        <time>2022-08-08T13:12:44Z</time>
      </trkpt>
      <trkpt lat="44.26211" lon="3.7268">
        <ele>843.21</ele>
        <time>2022-08-08T13:12:56Z</time>
      </trkpt>
      <trkpt lat="44.26191" lon="3.72684">
        <ele>843.69</ele>
        <time>2022-08-08T13:13:12Z</time>
      </trkpt>
      <trkpt lat="44.26184" lon="3.72687">
        <ele>844.18</ele>
        <time>2022-08-08T13:13:19Z</time>
      </trkpt>
      <trkpt lat="44.26168" lon="3.72699">
        <ele>845.14</ele>
        <time>2022-08-08T13:13:34Z</time>
      </trkpt>
      <trkpt lat="44.2616" lon="3.72709">
        <ele>846.1</ele>
        <time>2022-08-08T13:13:43Z</time>
      </trkpt>
      <trkpt lat="44.26154" lon="3.72717">
        <ele>846.1</ele>
        <time>2022-08-08T13:13:50Z</time>
      </trkpt>
      <trkpt lat="44.26141" lon="3.72729">
        <ele>846.58</ele>
        <time>2022-08-08T13:14:04Z</time>
      </trkpt>
      <trkpt lat="44.2613" lon="3.72744">
        <ele>849.94</ele>
        <time>2022-08-08T13:14:20Z</time>
      </trkpt>
      <trkpt lat="44.26119" lon="3.72756">
        <ele>851.87</ele>
        <time>2022-08-08T13:14:35Z</time>
      </trkpt>
      <trkpt lat="44.26103" lon="3.72762">
        <ele>854.27</ele>
        <time>2022-08-08T13:14:50Z</time>
      </trkpt>
      <trkpt lat="44.26088" lon="3.72768">
        <ele>856.19</ele>
        <time>2022-08-08T13:15:06Z</time>
      </trkpt>
      <trkpt lat="44.26074" lon="3.72775">
        <ele>856.67</ele>
        <time>2022-08-08T13:15:19Z</time>
      </trkpt>
      <trkpt lat="44.26061" lon="3.72781">
        <ele>856.19</ele>
        <time>2022-08-08T13:15:32Z</time>
      </trkpt>
      <trkpt lat="44.26043" lon="3.72783">
        <ele>856.67</ele>
        <time>2022-08-08T13:15:48Z</time>
      </trkpt>
      <trkpt lat="44.2604" lon="3.72783">
        <ele>856.67</ele>
        <time>2022-08-08T13:15:51Z</time>
      </trkpt>
      <trkpt lat="44.26025" lon="3.72775">
        <ele>856.67</ele>
        <time>2022-08-08T13:16:07Z</time>
      </trkpt>
      <trkpt lat="44.26013" lon="3.7277">
        <ele>857.63</ele>
        <time>2022-08-08T13:16:20Z</time>
      </trkpt>
      <trkpt lat="44.25998" lon="3.7276">
        <ele>860.04</ele>
        <time>2022-08-08T13:16:33Z</time>
      </trkpt>
      <trkpt lat="44.25981" lon="3.72756">
        <ele>862.44</ele>
        <time>2022-08-08T13:16:47Z</time>
      </trkpt>
      <trkpt lat="44.25963" lon="3.7275">
        <ele>862.92</ele>
        <time>2022-08-08T13:17:02Z</time>
      </trkpt>
      <trkpt lat="44.25945" lon="3.72747">
        <ele>864.84</ele>
        <time>2022-08-08T13:17:15Z</time>
      </trkpt>
      <trkpt lat="44.25933" lon="3.72747">
        <ele>864.84</ele>
        <time>2022-08-08T13:17:29Z</time>
      </trkpt>
      <trkpt lat="44.25931" lon="3.72743">
        <ele>865.8</ele>
        <time>2022-08-08T13:17:34Z</time>
      </trkpt>
      <trkpt lat="44.25923" lon="3.72722">
        <ele>869.17</ele>
        <time>2022-08-08T13:17:51Z</time>
      </trkpt>
      <trkpt lat="44.25923" lon="3.72717">
        <ele>869.65</ele>
        <time>2022-08-08T13:17:55Z</time>
      </trkpt>
      <trkpt lat="44.2592" lon="3.72709">
        <ele>871.09</ele>
        <time>2022-08-08T13:18:02Z</time>
      </trkpt>
      <trkpt lat="44.25915" lon="3.72697">
        <ele>873.98</ele>
        <time>2022-08-08T13:18:08Z</time>
      </trkpt>
      <trkpt lat="44.25914" lon="3.72692">
        <ele>874.46</ele>
        <time>2022-08-08T13:18:11Z</time>
      </trkpt>
      <trkpt lat="44.25912" lon="3.72679">
        <ele>875.9</ele>
        <time>2022-08-08T13:18:23Z</time>
      </trkpt>
      <trkpt lat="44.25903" lon="3.72662">
        <ele>876.86</ele>
        <time>2022-08-08T13:18:38Z</time>
      </trkpt>
      <trkpt lat="44.25893" lon="3.72645">
        <ele>876.86</ele>
        <time>2022-08-08T13:18:54Z</time>
      </trkpt>
      <trkpt lat="44.25887" lon="3.72627">
        <ele>875.9</ele>
        <time>2022-08-08T13:19:10Z</time>
      </trkpt>
      <trkpt lat="44.25885" lon="3.72609">
        <ele>873.98</ele>
        <time>2022-08-08T13:19:26Z</time>
      </trkpt>
      <trkpt lat="44.25885" lon="3.72593">
        <ele>874.46</ele>
        <time>2022-08-08T13:19:38Z</time>
      </trkpt>
      <trkpt lat="44.25888" lon="3.72584">
        <ele>874.46</ele>
        <time>2022-08-08T13:19:51Z</time>
      </trkpt>
      <trkpt lat="44.25891" lon="3.72582">
        <ele>873.98</ele>
        <time>2022-08-08T13:19:55Z</time>
      </trkpt>
      <trkpt lat="44.25897" lon="3.72575">
        <ele>872.53</ele>
        <time>2022-08-08T13:20:04Z</time>
      </trkpt>
      <trkpt lat="44.25904" lon="3.72568">
        <ele>870.13</ele>
        <time>2022-08-08T13:20:17Z</time>
      </trkpt>
      <trkpt lat="44.25896" lon="3.7257">
        <ele>869.17</ele>
        <time>2022-08-08T13:20:35Z</time>
      </trkpt>
      <trkpt lat="44.25886" lon="3.72579">
        <ele>870.13</ele>
        <time>2022-08-08T13:20:49Z</time>
      </trkpt>
      <trkpt lat="44.25878" lon="3.72576">
        <ele>870.61</ele>
        <time>2022-08-08T13:21:02Z</time>
      </trkpt>
      <trkpt lat="44.25874" lon="3.72576">
        <ele>872.05</ele>
        <time>2022-08-08T13:21:27Z</time>
      </trkpt>
      <trkpt lat="44.25871" lon="3.72582">
        <ele>873.98</ele>
        <time>2022-08-08T13:22:02Z</time>
      </trkpt>
      <trkpt lat="44.2587" lon="3.72583">
        <ele>874.46</ele>
        <time>2022-08-08T13:22:21Z</time>
      </trkpt>
      <trkpt lat="44.25867" lon="3.72585">
        <ele>871.09</ele>
        <time>2022-08-08T13:22:52Z</time>
      </trkpt>
      <trkpt lat="44.25868" lon="3.72579">
        <ele>871.09</ele>
        <time>2022-08-08T13:23:20Z</time>
      </trkpt>
      <trkpt lat="44.25863" lon="3.72567">
        <ele>870.61</ele>
        <time>2022-08-08T13:23:33Z</time>
      </trkpt>
      <trkpt lat="44.25852" lon="3.72554">
        <ele>872.05</ele>
        <time>2022-08-08T13:23:48Z</time>
      </trkpt>
      <trkpt lat="44.2584" lon="3.72539">
        <ele>872.05</ele>
        <time>2022-08-08T13:24:04Z</time>
      </trkpt>
      <trkpt lat="44.25829" lon="3.72532">
        <ele>870.13</ele>
        <time>2022-08-08T13:24:18Z</time>
      </trkpt>
      <trkpt lat="44.25819" lon="3.72525">
        <ele>868.69</ele>
        <time>2022-08-08T13:24:33Z</time>
      </trkpt>
      <trkpt lat="44.25807" lon="3.72522">
        <ele>864.84</ele>
        <time>2022-08-08T13:24:47Z</time>
      </trkpt>
      <trkpt lat="44.25795" lon="3.72517">
        <ele>863.88</ele>
        <time>2022-08-08T13:25:03Z</time>
      </trkpt>
      <trkpt lat="44.25776" lon="3.72502">
        <ele>864.84</ele>
        <time>2022-08-08T13:25:21Z</time>
      </trkpt>
      <trkpt lat="44.25764" lon="3.7249">
        <ele>864.36</ele>
        <time>2022-08-08T13:25:38Z</time>
      </trkpt>
      <trkpt lat="44.25751" lon="3.72479">
        <ele>866.29</ele>
        <time>2022-08-08T13:25:57Z</time>
      </trkpt>
      <trkpt lat="44.25742" lon="3.72468">
        <ele>870.13</ele>
        <time>2022-08-08T13:26:07Z</time>
      </trkpt>
      <trkpt lat="44.25733" lon="3.72466">
        <ele>870.13</ele>
        <time>2022-08-08T13:26:19Z</time>
      </trkpt>
      <trkpt lat="44.25722" lon="3.72454">
        <ele>874.94</ele>
        <time>2022-08-08T13:26:36Z</time>
      </trkpt>
      <trkpt lat="44.25711" lon="3.72447">
        <ele>880.71</ele>
        <time>2022-08-08T13:26:50Z</time>
      </trkpt>
      <trkpt lat="44.25696" lon="3.72448">
        <ele>882.15</ele>
        <time>2022-08-08T13:27:06Z</time>
      </trkpt>
      <trkpt lat="44.25679" lon="3.72451">
        <ele>882.63</ele>
        <time>2022-08-08T13:27:23Z</time>
      </trkpt>
      <trkpt lat="44.25664" lon="3.72454">
        <ele>884.55</ele>
        <time>2022-08-08T13:27:37Z</time>
      </trkpt>
      <trkpt lat="44.25648" lon="3.72452">
        <ele>886.47</ele>
        <time>2022-08-08T13:27:54Z</time>
      </trkpt>
      <trkpt lat="44.25645" lon="3.72451">
        <ele>886.95</ele>
        <time>2022-08-08T13:27:57Z</time>
      </trkpt>
      <trkpt lat="44.25628" lon="3.72446">
        <ele>889.36</ele>
        <time>2022-08-08T13:28:12Z</time>
      </trkpt>
      <trkpt lat="44.25613" lon="3.72441">
        <ele>888.4</ele>
        <time>2022-08-08T13:28:26Z</time>
      </trkpt>
      <trkpt lat="44.25605" lon="3.72437">
        <ele>887.43</ele>
        <time>2022-08-08T13:28:37Z</time>
      </trkpt>
      <trkpt lat="44.25593" lon="3.72431">
        <ele>887.43</ele>
        <time>2022-08-08T13:28:53Z</time>
      </trkpt>
      <trkpt lat="44.2558" lon="3.7242">
        <ele>891.76</ele>
        <time>2022-08-08T13:29:08Z</time>
      </trkpt>
      <trkpt lat="44.25567" lon="3.72411">
        <ele>895.61</ele>
        <time>2022-08-08T13:29:24Z</time>
      </trkpt>
      <trkpt lat="44.25554" lon="3.72403">
        <ele>895.12</ele>
        <time>2022-08-08T13:29:39Z</time>
      </trkpt>
      <trkpt lat="44.2554" lon="3.72392">
        <ele>897.53</ele>
        <time>2022-08-08T13:29:54Z</time>
      </trkpt>
      <trkpt lat="44.25529" lon="3.72387">
        <ele>899.93</ele>
        <time>2022-08-08T13:30:08Z</time>
      </trkpt>
      <trkpt lat="44.25515" lon="3.72387">
        <ele>904.26</ele>
        <time>2022-08-08T13:30:23Z</time>
      </trkpt>
      <trkpt lat="44.25502" lon="3.72384">
        <ele>907.62</ele>
        <time>2022-08-08T13:30:36Z</time>
      </trkpt>
      <trkpt lat="44.25488" lon="3.72385">
        <ele>909.06</ele>
        <time>2022-08-08T13:30:49Z</time>
      </trkpt>
      <trkpt lat="44.25475" lon="3.72389">
        <ele>911.47</ele>
        <time>2022-08-08T13:31:03Z</time>
      </trkpt>
      <trkpt lat="44.25461" lon="3.72395">
        <ele>913.87</ele>
        <time>2022-08-08T13:31:18Z</time>
      </trkpt>
      <trkpt lat="44.25452" lon="3.72402">
        <ele>916.75</ele>
        <time>2022-08-08T13:31:28Z</time>
      </trkpt>
      <trkpt lat="44.2544" lon="3.72414">
        <ele>916.75</ele>
        <time>2022-08-08T13:31:44Z</time>
      </trkpt>
      <trkpt lat="44.25428" lon="3.72421">
        <ele>916.27</ele>
        <time>2022-08-08T13:31:56Z</time>
      </trkpt>
      <trkpt lat="44.25419" lon="3.72422">
        <ele>914.35</ele>
        <time>2022-08-08T13:32:09Z</time>
      </trkpt>
      <trkpt lat="44.25406" lon="3.7242">
        <ele>913.39</ele>
        <time>2022-08-08T13:32:22Z</time>
      </trkpt>
      <trkpt lat="44.25391" lon="3.72425">
        <ele>911.95</ele>
        <time>2022-08-08T13:32:36Z</time>
      </trkpt>
      <trkpt lat="44.25389" lon="3.72424">
        <ele>911.95</ele>
        <time>2022-08-08T13:32:37Z</time>
      </trkpt>
      <trkpt lat="44.25387" lon="3.72425">
        <ele>911.95</ele>
        <time>2022-08-08T13:32:39Z</time>
      </trkpt>
      <trkpt lat="44.25371" lon="3.72426">
        <ele>913.87</ele>
        <time>2022-08-08T13:32:52Z</time>
      </trkpt>
      <trkpt lat="44.25357" lon="3.72429">
        <ele>915.79</ele>
        <time>2022-08-08T13:33:08Z</time>
      </trkpt>
      <trkpt lat="44.25346" lon="3.72428">
        <ele>916.75</ele>
        <time>2022-08-08T13:33:20Z</time>
      </trkpt>
      <trkpt lat="44.25335" lon="3.72419">
        <ele>919.16</ele>
        <time>2022-08-08T13:33:34Z</time>
      </trkpt>
      <trkpt lat="44.25329" lon="3.72409">
        <ele>918.68</ele>
        <time>2022-08-08T13:33:50Z</time>
      </trkpt>
      <trkpt lat="44.25318" lon="3.72384">
        <ele>916.27</ele>
        <time>2022-08-08T13:34:06Z</time>
      </trkpt>
      <trkpt lat="44.2531" lon="3.72366">
        <ele>915.79</ele>
        <time>2022-08-08T13:34:19Z</time>
      </trkpt>
      <trkpt lat="44.25293" lon="3.72354">
        <ele>922.52</ele>
        <time>2022-08-08T13:34:35Z</time>
      </trkpt>
      <trkpt lat="44.25274" lon="3.72359">
        <ele>923.48</ele>
        <time>2022-08-08T13:34:49Z</time>
      </trkpt>
      <trkpt lat="44.25259" lon="3.72375">
        <ele>922.52</ele>
        <time>2022-08-08T13:35:04Z</time>
      </trkpt>
      <trkpt lat="44.2525" lon="3.72386">
        <ele>922.52</ele>
        <time>2022-08-08T13:35:17Z</time>
      </trkpt>
      <trkpt lat="44.25239" lon="3.72398">
        <ele>923.96</ele>
        <time>2022-08-08T13:35:31Z</time>
      </trkpt>
      <trkpt lat="44.25228" lon="3.72409">
        <ele>924.45</ele>
        <time>2022-08-08T13:35:47Z</time>
      </trkpt>
      <trkpt lat="44.2521" lon="3.72407">
        <ele>925.41</ele>
        <time>2022-08-08T13:36:02Z</time>
      </trkpt>
      <trkpt lat="44.25195" lon="3.72405">
        <ele>928.77</ele>
        <time>2022-08-08T13:36:18Z</time>
      </trkpt>
      <trkpt lat="44.25183" lon="3.72408">
        <ele>928.77</ele>
        <time>2022-08-08T13:36:32Z</time>
      </trkpt>
      <trkpt lat="44.25172" lon="3.72406">
        <ele>930.21</ele>
        <time>2022-08-08T13:36:45Z</time>
      </trkpt>
      <trkpt lat="44.25161" lon="3.72404">
        <ele>930.69</ele>
        <time>2022-08-08T13:36:56Z</time>
      </trkpt>
      <trkpt lat="44.25147" lon="3.72396">
        <ele>934.06</ele>
        <time>2022-08-08T13:37:13Z</time>
      </trkpt>
      <trkpt lat="44.25131" lon="3.72391">
        <ele>935.02</ele>
        <time>2022-08-08T13:37:28Z</time>
      </trkpt>
      <trkpt lat="44.25121" lon="3.72389">
        <ele>935.5</ele>
        <time>2022-08-08T13:37:41Z</time>
      </trkpt>
      <trkpt lat="44.25114" lon="3.72387">
        <ele>935.5</ele>
        <time>2022-08-08T13:37:48Z</time>
      </trkpt>
      <trkpt lat="44.25097" lon="3.7239">
        <ele>935.98</ele>
        <time>2022-08-08T13:38:03Z</time>
      </trkpt>
      <trkpt lat="44.25084" lon="3.72393">
        <ele>935.98</ele>
        <time>2022-08-08T13:38:14Z</time>
      </trkpt>
      <trkpt lat="44.25069" lon="3.72401">
        <ele>935.02</ele>
        <time>2022-08-08T13:38:27Z</time>
      </trkpt>
      <trkpt lat="44.25056" lon="3.72408">
        <ele>931.65</ele>
        <time>2022-08-08T13:38:41Z</time>
      </trkpt>
      <trkpt lat="44.25038" lon="3.72419">
        <ele>932.14</ele>
        <time>2022-08-08T13:38:58Z</time>
      </trkpt>
      <trkpt lat="44.25025" lon="3.72427">
        <ele>928.29</ele>
        <time>2022-08-08T13:39:13Z</time>
      </trkpt>
      <trkpt lat="44.25011" lon="3.72431">
        <ele>927.33</ele>
        <time>2022-08-08T13:39:28Z</time>
      </trkpt>
      <trkpt lat="44.2499" lon="3.72422">
        <ele>925.89</ele>
        <time>2022-08-08T13:39:43Z</time>
      </trkpt>
      <trkpt lat="44.24975" lon="3.72414">
        <ele>922.52</ele>
        <time>2022-08-08T13:39:58Z</time>
      </trkpt>
      <trkpt lat="44.24972" lon="3.72412">
        <ele>923</ele>
        <time>2022-08-08T13:40:00Z</time>
      </trkpt>
      <trkpt lat="44.24964" lon="3.72407">
        <ele>924.45</ele>
        <time>2022-08-08T13:40:07Z</time>
      </trkpt>
      <trkpt lat="44.24946" lon="3.724">
        <ele>928.29</ele>
        <time>2022-08-08T13:40:24Z</time>
      </trkpt>
      <trkpt lat="44.24931" lon="3.72395">
        <ele>925.41</ele>
        <time>2022-08-08T13:40:38Z</time>
      </trkpt>
      <trkpt lat="44.24913" lon="3.72387">
        <ele>923.48</ele>
        <time>2022-08-08T13:40:54Z</time>
      </trkpt>
      <trkpt lat="44.24896" lon="3.72386">
        <ele>923</ele>
        <time>2022-08-08T13:41:09Z</time>
      </trkpt>
      <trkpt lat="44.24882" lon="3.72382">
        <ele>923.48</ele>
        <time>2022-08-08T13:41:22Z</time>
      </trkpt>
      <trkpt lat="44.24868" lon="3.72382">
        <ele>921.56</ele>
        <time>2022-08-08T13:41:36Z</time>
      </trkpt>
      <trkpt lat="44.24858" lon="3.72386">
        <ele>919.16</ele>
        <time>2022-08-08T13:41:48Z</time>
      </trkpt>
      <trkpt lat="44.24848" lon="3.72389">
        <ele>919.64</ele>
        <time>2022-08-08T13:41:58Z</time>
      </trkpt>
      <trkpt lat="44.24831" lon="3.72403">
        <ele>927.33</ele>
        <time>2022-08-08T13:42:13Z</time>
      </trkpt>
      <trkpt lat="44.24821" lon="3.72419">
        <ele>930.21</ele>
        <time>2022-08-08T13:42:28Z</time>
      </trkpt>
      <trkpt lat="44.24807" lon="3.72432">
        <ele>935.02</ele>
        <time>2022-08-08T13:42:41Z</time>
      </trkpt>
      <trkpt lat="44.24797" lon="3.72445">
        <ele>936.94</ele>
        <time>2022-08-08T13:42:55Z</time>
      </trkpt>
      <trkpt lat="44.24796" lon="3.72447">
        <ele>937.42</ele>
        <time>2022-08-08T13:42:57Z</time>
      </trkpt>
      <trkpt lat="44.2479" lon="3.72453">
        <ele>938.86</ele>
        <time>2022-08-08T13:43:04Z</time>
      </trkpt>
      <trkpt lat="44.24779" lon="3.72464">
        <ele>936.94</ele>
        <time>2022-08-08T13:43:18Z</time>
      </trkpt>
      <trkpt lat="44.24777" lon="3.72465">
        <ele>936.46</ele>
        <time>2022-08-08T13:43:20Z</time>
      </trkpt>
      <trkpt lat="44.24769" lon="3.7248">
        <ele>936.46</ele>
        <time>2022-08-08T13:43:34Z</time>
      </trkpt>
      <trkpt lat="44.24755" lon="3.72498">
        <ele>940.79</ele>
        <time>2022-08-08T13:43:48Z</time>
      </trkpt>
      <trkpt lat="44.24741" lon="3.72507">
        <ele>945.59</ele>
        <time>2022-08-08T13:44:01Z</time>
      </trkpt>
      <trkpt lat="44.24733" lon="3.72511">
        <ele>944.63</ele>
        <time>2022-08-08T13:44:12Z</time>
      </trkpt>
      <trkpt lat="44.24729" lon="3.72512">
        <ele>945.59</ele>
        <time>2022-08-08T13:44:17Z</time>
      </trkpt>
      <trkpt lat="44.24712" lon="3.7251">
        <ele>945.59</ele>
        <time>2022-08-08T13:44:32Z</time>
      </trkpt>
      <trkpt lat="44.24693" lon="3.72515">
        <ele>944.15</ele>
        <time>2022-08-08T13:44:48Z</time>
      </trkpt>
      <trkpt lat="44.24686" lon="3.72518">
        <ele>945.11</ele>
        <time>2022-08-08T13:44:55Z</time>
      </trkpt>
      <trkpt lat="44.24672" lon="3.72522">
        <ele>947.52</ele>
        <time>2022-08-08T13:45:08Z</time>
      </trkpt>
      <trkpt lat="44.24659" lon="3.72528">
        <ele>948.48</ele>
        <time>2022-08-08T13:45:21Z</time>
      </trkpt>
      <trkpt lat="44.24643" lon="3.72532">
        <ele>947.04</ele>
        <time>2022-08-08T13:45:34Z</time>
      </trkpt>
      <trkpt lat="44.24626" lon="3.72536">
        <ele>946.07</ele>
        <time>2022-08-08T13:45:47Z</time>
      </trkpt>
      <trkpt lat="44.24622" lon="3.72539">
        <ele>946.56</ele>
        <time>2022-08-08T13:45:51Z</time>
      </trkpt>
      <trkpt lat="44.24607" lon="3.72544">
        <ele>947.04</ele>
        <time>2022-08-08T13:46:06Z</time>
      </trkpt>
      <trkpt lat="44.24592" lon="3.72551">
        <ele>948.48</ele>
        <time>2022-08-08T13:46:21Z</time>
      </trkpt>
      <trkpt lat="44.24573" lon="3.72552">
        <ele>956.65</ele>
        <time>2022-08-08T13:46:35Z</time>
      </trkpt>
      <trkpt lat="44.24559" lon="3.72556">
        <ele>957.61</ele>
        <time>2022-08-08T13:46:47Z</time>
      </trkpt>
      <trkpt lat="44.24548" lon="3.72555">
        <ele>956.17</ele>
        <time>2022-08-08T13:46:57Z</time>
      </trkpt>
      <trkpt lat="44.2453" lon="3.72552">
        <ele>956.65</ele>
        <time>2022-08-08T13:47:09Z</time>
      </trkpt>
      <trkpt lat="44.24512" lon="3.72551">
        <ele>950.4</ele>
        <time>2022-08-08T13:47:24Z</time>
      </trkpt>
      <trkpt lat="44.24494" lon="3.72545">
        <ele>946.56</ele>
        <time>2022-08-08T13:47:40Z</time>
      </trkpt>
      <trkpt lat="44.24481" lon="3.72544">
        <ele>948</ele>
        <time>2022-08-08T13:47:54Z</time>
      </trkpt>
      <trkpt lat="44.24468" lon="3.72548">
        <ele>948</ele>
        <time>2022-08-08T13:48:08Z</time>
      </trkpt>
      <trkpt lat="44.24454" lon="3.72554">
        <ele>947.52</ele>
        <time>2022-08-08T13:48:20Z</time>
      </trkpt>
      <trkpt lat="44.24442" lon="3.72555">
        <ele>947.04</ele>
        <time>2022-08-08T13:48:32Z</time>
      </trkpt>
      <trkpt lat="44.24445" lon="3.72553">
        <ele>947.04</ele>
        <time>2022-08-08T13:48:46Z</time>
      </trkpt>
      <trkpt lat="44.24445" lon="3.72568">
        <ele>953.77</ele>
        <time>2022-08-08T13:49:16Z</time>
      </trkpt>
      <trkpt lat="44.24447" lon="3.72578">
        <ele>954.73</ele>
        <time>2022-08-08T13:49:47Z</time>
      </trkpt>
      <trkpt lat="44.24451" lon="3.72572">
        <ele>954.25</ele>
        <time>2022-08-08T13:50:12Z</time>
      </trkpt>
      <trkpt lat="44.24445" lon="3.72569">
        <ele>954.25</ele>
        <time>2022-08-08T13:50:46Z</time>
      </trkpt>
      <trkpt lat="44.24441" lon="3.72574">
        <ele>955.21</ele>
        <time>2022-08-08T13:51:12Z</time>
      </trkpt>
      <trkpt lat="44.24441" lon="3.72575">
        <ele>957.13</ele>
        <time>2022-08-08T13:51:44Z</time>
      </trkpt>
      <trkpt lat="44.24441" lon="3.72572">
        <ele>957.61</ele>
        <time>2022-08-08T13:52:22Z</time>
      </trkpt>
      <trkpt lat="44.24439" lon="3.72569">
        <ele>953.77</ele>
        <time>2022-08-08T13:52:50Z</time>
      </trkpt>
      <trkpt lat="44.24438" lon="3.72574">
        <ele>958.57</ele>
        <time>2022-08-08T13:53:21Z</time>
      </trkpt>
      <trkpt lat="44.24439" lon="3.72577">
        <ele>961.46</ele>
        <time>2022-08-08T13:53:55Z</time>
      </trkpt>
      <trkpt lat="44.24436" lon="3.72572">
        <ele>955.21</ele>
        <time>2022-08-08T13:54:31Z</time>
      </trkpt>
      <trkpt lat="44.24443" lon="3.72577">
        <ele>951.36</ele>
        <time>2022-08-08T13:55:09Z</time>
      </trkpt>
      <trkpt lat="44.2444" lon="3.72578">
        <ele>955.69</ele>
        <time>2022-08-08T13:55:33Z</time>
      </trkpt>
      <trkpt lat="44.24439" lon="3.72581">
        <ele>960.98</ele>
        <time>2022-08-08T13:55:59Z</time>
      </trkpt>
      <trkpt lat="44.24436" lon="3.7258">
        <ele>961.46</ele>
        <time>2022-08-08T13:56:29Z</time>
      </trkpt>
      <trkpt lat="44.24436" lon="3.72583">
        <ele>963.86</ele>
        <time>2022-08-08T13:57:00Z</time>
      </trkpt>
      <trkpt lat="44.24435" lon="3.72583">
        <ele>964.82</ele>
        <time>2022-08-08T13:57:34Z</time>
      </trkpt>
      <trkpt lat="44.2443" lon="3.72576">
        <ele>962.42</ele>
        <time>2022-08-08T13:58:08Z</time>
      </trkpt>
      <trkpt lat="44.24431" lon="3.72578">
        <ele>961.94</ele>
        <time>2022-08-08T13:58:33Z</time>
      </trkpt>
      <trkpt lat="44.24433" lon="3.72574">
        <ele>963.38</ele>
        <time>2022-08-08T13:58:59Z</time>
      </trkpt>
      <trkpt lat="44.24435" lon="3.7257">
        <ele>959.53</ele>
        <time>2022-08-08T13:59:25Z</time>
      </trkpt>
      <trkpt lat="44.24434" lon="3.72569">
        <ele>961.94</ele>
        <time>2022-08-08T13:59:51Z</time>
      </trkpt>
      <trkpt lat="44.24439" lon="3.72571">
        <ele>961.46</ele>
        <time>2022-08-08T14:00:26Z</time>
      </trkpt>
      <trkpt lat="44.24437" lon="3.72571">
        <ele>961.46</ele>
        <time>2022-08-08T14:00:59Z</time>
      </trkpt>
      <trkpt lat="44.2443" lon="3.7257">
        <ele>959.53</ele>
        <time>2022-08-08T14:01:26Z</time>
      </trkpt>
      <trkpt lat="44.24423" lon="3.72574">
        <ele>958.09</ele>
        <time>2022-08-08T14:01:36Z</time>
      </trkpt>
      <trkpt lat="44.24418" lon="3.72587">
        <ele>957.61</ele>
        <time>2022-08-08T14:01:50Z</time>
      </trkpt>
      <trkpt lat="44.24407" lon="3.72605">
        <ele>952.8</ele>
        <time>2022-08-08T14:02:04Z</time>
      </trkpt>
      <trkpt lat="44.24402" lon="3.72623">
        <ele>952.8</ele>
        <time>2022-08-08T14:02:20Z</time>
      </trkpt>
      <trkpt lat="44.24392" lon="3.72635">
        <ele>950.4</ele>
        <time>2022-08-08T14:02:34Z</time>
      </trkpt>
      <trkpt lat="44.24376" lon="3.72645">
        <ele>944.15</ele>
        <time>2022-08-08T14:02:52Z</time>
      </trkpt>
      <trkpt lat="44.24371" lon="3.72645">
        <ele>943.67</ele>
        <time>2022-08-08T14:02:56Z</time>
      </trkpt>
      <trkpt lat="44.24351" lon="3.72636">
        <ele>943.19</ele>
        <time>2022-08-08T14:03:12Z</time>
      </trkpt>
      <trkpt lat="44.24348" lon="3.72631">
        <ele>942.71</ele>
        <time>2022-08-08T14:03:17Z</time>
      </trkpt>
      <trkpt lat="44.24342" lon="3.72621">
        <ele>945.11</ele>
        <time>2022-08-08T14:03:37Z</time>
      </trkpt>
      <trkpt lat="44.24343" lon="3.72646">
        <ele>944.63</ele>
        <time>2022-08-08T14:03:54Z</time>
      </trkpt>
      <trkpt lat="44.24346" lon="3.72657">
        <ele>943.19</ele>
        <time>2022-08-08T14:04:02Z</time>
      </trkpt>
      <trkpt lat="44.24352" lon="3.7267">
        <ele>942.23</ele>
        <time>2022-08-08T14:04:15Z</time>
      </trkpt>
      <trkpt lat="44.2436" lon="3.72689">
        <ele>935.5</ele>
        <time>2022-08-08T14:04:29Z</time>
      </trkpt>
      <trkpt lat="44.24371" lon="3.72701">
        <ele>931.65</ele>
        <time>2022-08-08T14:04:44Z</time>
      </trkpt>
      <trkpt lat="44.24376" lon="3.72711">
        <ele>930.21</ele>
        <time>2022-08-08T14:04:50Z</time>
      </trkpt>
      <trkpt lat="44.24384" lon="3.72739">
        <ele>925.89</ele>
        <time>2022-08-08T14:05:07Z</time>
      </trkpt>
      <trkpt lat="44.24389" lon="3.72757">
        <ele>919.16</ele>
        <time>2022-08-08T14:05:21Z</time>
      </trkpt>
      <trkpt lat="44.24387" lon="3.7278">
        <ele>919.16</ele>
        <time>2022-08-08T14:05:36Z</time>
      </trkpt>
      <trkpt lat="44.24383" lon="3.72803">
        <ele>925.41</ele>
        <time>2022-08-08T14:05:50Z</time>
      </trkpt>
      <trkpt lat="44.24376" lon="3.7283">
        <ele>926.37</ele>
        <time>2022-08-08T14:06:07Z</time>
      </trkpt>
      <trkpt lat="44.24373" lon="3.72848">
        <ele>927.33</ele>
        <time>2022-08-08T14:06:20Z</time>
      </trkpt>
      <trkpt lat="44.24371" lon="3.72864">
        <ele>927.33</ele>
        <time>2022-08-08T14:06:31Z</time>
      </trkpt>
      <trkpt lat="44.24374" lon="3.72885">
        <ele>926.85</ele>
        <time>2022-08-08T14:06:45Z</time>
      </trkpt>
      <trkpt lat="44.24372" lon="3.72895">
        <ele>924.45</ele>
        <time>2022-08-08T14:06:51Z</time>
      </trkpt>
      <trkpt lat="44.24374" lon="3.72924">
        <ele>921.56</ele>
        <time>2022-08-08T14:07:04Z</time>
      </trkpt>
      <trkpt lat="44.24379" lon="3.72935">
        <ele>919.64</ele>
        <time>2022-08-08T14:07:12Z</time>
      </trkpt>
      <trkpt lat="44.24379" lon="3.72961">
        <ele>915.79</ele>
        <time>2022-08-08T14:07:27Z</time>
      </trkpt>
      <trkpt lat="44.24377" lon="3.72977">
        <ele>917.72</ele>
        <time>2022-08-08T14:07:38Z</time>
      </trkpt>
      <trkpt lat="44.24369" lon="3.72998">
        <ele>919.64</ele>
        <time>2022-08-08T14:07:52Z</time>
      </trkpt>
      <trkpt lat="44.24358" lon="3.73018">
        <ele>921.08</ele>
        <time>2022-08-08T14:08:05Z</time>
      </trkpt>
      <trkpt lat="44.24349" lon="3.73033">
        <ele>920.6</ele>
        <time>2022-08-08T14:08:18Z</time>
      </trkpt>
      <trkpt lat="44.24341" lon="3.73043">
        <ele>919.64</ele>
        <time>2022-08-08T14:08:30Z</time>
      </trkpt>
      <trkpt lat="44.24334" lon="3.73055">
        <ele>920.6</ele>
        <time>2022-08-08T14:08:45Z</time>
      </trkpt>
      <trkpt lat="44.24328" lon="3.73069">
        <ele>922.04</ele>
        <time>2022-08-08T14:08:59Z</time>
      </trkpt>
      <trkpt lat="44.24322" lon="3.73079">
        <ele>923.96</ele>
        <time>2022-08-08T14:09:12Z</time>
      </trkpt>
      <trkpt lat="44.24316" lon="3.73094">
        <ele>931.65</ele>
        <time>2022-08-08T14:09:27Z</time>
      </trkpt>
      <trkpt lat="44.24307" lon="3.73114">
        <ele>934.54</ele>
        <time>2022-08-08T14:09:43Z</time>
      </trkpt>
      <trkpt lat="44.24298" lon="3.73129">
        <ele>935.98</ele>
        <time>2022-08-08T14:09:57Z</time>
      </trkpt>
      <trkpt lat="44.24291" lon="3.73144">
        <ele>933.58</ele>
        <time>2022-08-08T14:10:07Z</time>
      </trkpt>
      <trkpt lat="44.24282" lon="3.73161">
        <ele>928.77</ele>
        <time>2022-08-08T14:10:23Z</time>
      </trkpt>
      <trkpt lat="44.24271" lon="3.73175">
        <ele>924.93</ele>
        <time>2022-08-08T14:10:38Z</time>
      </trkpt>
      <trkpt lat="44.24265" lon="3.73186">
        <ele>921.08</ele>
        <time>2022-08-08T14:10:50Z</time>
      </trkpt>
      <trkpt lat="44.2426" lon="3.73196">
        <ele>923</ele>
        <time>2022-08-08T14:11:01Z</time>
      </trkpt>
      <trkpt lat="44.24251" lon="3.73207">
        <ele>923.48</ele>
        <time>2022-08-08T14:11:13Z</time>
      </trkpt>
      <trkpt lat="44.24246" lon="3.73225">
        <ele>927.33</ele>
        <time>2022-08-08T14:11:26Z</time>
      </trkpt>
      <trkpt lat="44.24236" lon="3.73245">
        <ele>930.69</ele>
        <time>2022-08-08T14:11:41Z</time>
      </trkpt>
      <trkpt lat="44.24226" lon="3.73263">
        <ele>934.54</ele>
        <time>2022-08-08T14:11:55Z</time>
      </trkpt>
      <trkpt lat="44.24221" lon="3.73272">
        <ele>934.06</ele>
        <time>2022-08-08T14:12:02Z</time>
      </trkpt>
      <trkpt lat="44.24214" lon="3.73292">
        <ele>933.58</ele>
        <time>2022-08-08T14:12:17Z</time>
      </trkpt>
      <trkpt lat="44.24212" lon="3.73303">
        <ele>936.46</ele>
        <time>2022-08-08T14:12:38Z</time>
      </trkpt>
      <trkpt lat="44.2421" lon="3.73301">
        <ele>938.38</ele>
        <time>2022-08-08T14:13:02Z</time>
      </trkpt>
      <trkpt lat="44.2421" lon="3.73301">
        <ele>938.86</ele>
        <time>2022-08-08T14:13:04Z</time>
      </trkpt>
      <trkpt lat="44.24211" lon="3.73304">
        <ele>938.38</ele>
        <time>2022-08-08T14:13:16Z</time>
      </trkpt>
      <trkpt lat="44.24214" lon="3.73312">
        <ele>936.94</ele>
        <time>2022-08-08T14:13:27Z</time>
      </trkpt>
      <trkpt lat="44.24221" lon="3.73335">
        <ele>937.9</ele>
        <time>2022-08-08T14:13:43Z</time>
      </trkpt>
      <trkpt lat="44.24226" lon="3.73354">
        <ele>937.9</ele>
        <time>2022-08-08T14:13:57Z</time>
      </trkpt>
      <trkpt lat="44.2423" lon="3.73373">
        <ele>938.38</ele>
        <time>2022-08-08T14:14:10Z</time>
      </trkpt>
      <trkpt lat="44.24235" lon="3.7339">
        <ele>938.86</ele>
        <time>2022-08-08T14:14:22Z</time>
      </trkpt>
      <trkpt lat="44.24244" lon="3.73406">
        <ele>938.86</ele>
        <time>2022-08-08T14:14:36Z</time>
      </trkpt>
      <trkpt lat="44.24248" lon="3.7343">
        <ele>940.79</ele>
        <time>2022-08-08T14:14:52Z</time>
      </trkpt>
      <trkpt lat="44.24253" lon="3.73449">
        <ele>940.79</ele>
        <time>2022-08-08T14:15:06Z</time>
      </trkpt>
      <trkpt lat="44.24259" lon="3.73467">
        <ele>940.79</ele>
        <time>2022-08-08T14:15:21Z</time>
      </trkpt>
      <trkpt lat="44.2427" lon="3.73488">
        <ele>940.79</ele>
        <time>2022-08-08T14:15:39Z</time>
      </trkpt>
      <trkpt lat="44.24279" lon="3.73505">
        <ele>943.19</ele>
        <time>2022-08-08T14:15:53Z</time>
      </trkpt>
      <trkpt lat="44.24291" lon="3.73521">
        <ele>942.71</ele>
        <time>2022-08-08T14:16:08Z</time>
      </trkpt>
      <trkpt lat="44.24295" lon="3.73534">
        <ele>942.71</ele>
        <time>2022-08-08T14:16:18Z</time>
      </trkpt>
      <trkpt lat="44.24294" lon="3.73543">
        <ele>942.71</ele>
        <time>2022-08-08T14:16:24Z</time>
      </trkpt>
      <trkpt lat="44.24281" lon="3.73563">
        <ele>943.67</ele>
        <time>2022-08-08T14:16:42Z</time>
      </trkpt>
      <trkpt lat="44.24272" lon="3.73585">
        <ele>945.11</ele>
        <time>2022-08-08T14:16:58Z</time>
      </trkpt>
      <trkpt lat="44.24266" lon="3.73602">
        <ele>947.04</ele>
        <time>2022-08-08T14:17:11Z</time>
      </trkpt>
      <trkpt lat="44.24267" lon="3.73624">
        <ele>949.44</ele>
        <time>2022-08-08T14:17:26Z</time>
      </trkpt>
      <trkpt lat="44.24275" lon="3.73644">
        <ele>950.88</ele>
        <time>2022-08-08T14:17:42Z</time>
      </trkpt>
      <trkpt lat="44.24279" lon="3.73657">
        <ele>951.36</ele>
        <time>2022-08-08T14:17:50Z</time>
      </trkpt>
      <trkpt lat="44.24281" lon="3.73659">
        <ele>951.84</ele>
        <time>2022-08-08T14:17:52Z</time>
      </trkpt>
      <trkpt lat="44.2429" lon="3.73679">
        <ele>953.28</ele>
        <time>2022-08-08T14:18:08Z</time>
      </trkpt>
      <trkpt lat="44.2429" lon="3.7368">
        <ele>953.28</ele>
        <time>2022-08-08T14:18:09Z</time>
      </trkpt>
      <trkpt lat="44.2429" lon="3.73699">
        <ele>953.77</ele>
        <time>2022-08-08T14:18:24Z</time>
      </trkpt>
      <trkpt lat="44.24279" lon="3.73715">
        <ele>953.77</ele>
        <time>2022-08-08T14:18:37Z</time>
      </trkpt>
      <trkpt lat="44.24274" lon="3.73722">
        <ele>953.28</ele>
        <time>2022-08-08T14:18:44Z</time>
      </trkpt>
      <trkpt lat="44.2427" lon="3.73729">
        <ele>951.84</ele>
        <time>2022-08-08T14:18:50Z</time>
      </trkpt>
      <trkpt lat="44.24264" lon="3.73749">
        <ele>953.77</ele>
        <time>2022-08-08T14:19:06Z</time>
      </trkpt>
      <trkpt lat="44.24265" lon="3.73751">
        <ele>953.77</ele>
        <time>2022-08-08T14:19:08Z</time>
      </trkpt>
      <trkpt lat="44.2427" lon="3.73771">
        <ele>957.13</ele>
        <time>2022-08-08T14:19:23Z</time>
      </trkpt>
      <trkpt lat="44.24278" lon="3.73789">
        <ele>960.01</ele>
        <time>2022-08-08T14:19:37Z</time>
      </trkpt>
      <trkpt lat="44.24285" lon="3.73809">
        <ele>960.49</ele>
        <time>2022-08-08T14:19:53Z</time>
      </trkpt>
      <trkpt lat="44.24285" lon="3.73811">
        <ele>960.49</ele>
        <time>2022-08-08T14:19:54Z</time>
      </trkpt>
      <trkpt lat="44.24286" lon="3.73832">
        <ele>960.98</ele>
        <time>2022-08-08T14:20:09Z</time>
      </trkpt>
      <trkpt lat="44.24289" lon="3.73853">
        <ele>960.98</ele>
        <time>2022-08-08T14:20:24Z</time>
      </trkpt>
      <trkpt lat="44.24289" lon="3.73874">
        <ele>963.86</ele>
        <time>2022-08-08T14:20:39Z</time>
      </trkpt>
      <trkpt lat="44.24283" lon="3.73891">
        <ele>963.38</ele>
        <time>2022-08-08T14:20:54Z</time>
      </trkpt>
      <trkpt lat="44.24279" lon="3.73897">
        <ele>964.82</ele>
        <time>2022-08-08T14:21:00Z</time>
      </trkpt>
      <trkpt lat="44.24275" lon="3.73914">
        <ele>965.78</ele>
        <time>2022-08-08T14:21:14Z</time>
      </trkpt>
      <trkpt lat="44.2427" lon="3.73933">
        <ele>965.78</ele>
        <time>2022-08-08T14:21:28Z</time>
      </trkpt>
      <trkpt lat="44.24266" lon="3.73956">
        <ele>965.3</ele>
        <time>2022-08-08T14:21:44Z</time>
      </trkpt>
      <trkpt lat="44.24266" lon="3.73958">
        <ele>965.78</ele>
        <time>2022-08-08T14:21:46Z</time>
      </trkpt>
      <trkpt lat="44.24267" lon="3.73964">
        <ele>966.74</ele>
        <time>2022-08-08T14:21:50Z</time>
      </trkpt>
      <trkpt lat="44.24266" lon="3.73967">
        <ele>966.74</ele>
        <time>2022-08-08T14:21:52Z</time>
      </trkpt>
      <trkpt lat="44.24263" lon="3.73989">
        <ele>968.18</ele>
        <time>2022-08-08T14:22:09Z</time>
      </trkpt>
      <trkpt lat="44.2426" lon="3.74005">
        <ele>971.07</ele>
        <time>2022-08-08T14:22:24Z</time>
      </trkpt>
      <trkpt lat="44.24256" lon="3.74018">
        <ele>971.07</ele>
        <time>2022-08-08T14:22:35Z</time>
      </trkpt>
      <trkpt lat="44.24255" lon="3.74039">
        <ele>972.03</ele>
        <time>2022-08-08T14:22:51Z</time>
      </trkpt>
      <trkpt lat="44.24256" lon="3.74033">
        <ele>972.03</ele>
        <time>2022-08-08T14:23:07Z</time>
      </trkpt>
      <trkpt lat="44.2426" lon="3.74044">
        <ele>972.03</ele>
        <time>2022-08-08T14:23:41Z</time>
      </trkpt>
      <trkpt lat="44.24259" lon="3.74046">
        <ele>972.51</ele>
        <time>2022-08-08T14:24:05Z</time>
      </trkpt>
      <trkpt lat="44.24257" lon="3.74041">
        <ele>973.47</ele>
        <time>2022-08-08T14:24:35Z</time>
      </trkpt>
      <trkpt lat="44.24253" lon="3.74043">
        <ele>975.39</ele>
        <time>2022-08-08T14:24:59Z</time>
      </trkpt>
      <trkpt lat="44.24252" lon="3.74047">
        <ele>974.91</ele>
        <time>2022-08-08T14:25:02Z</time>
      </trkpt>
      <trkpt lat="44.24251" lon="3.74058">
        <ele>974.43</ele>
        <time>2022-08-08T14:25:11Z</time>
      </trkpt>
      <trkpt lat="44.24247" lon="3.74079">
        <ele>974.43</ele>
        <time>2022-08-08T14:25:26Z</time>
      </trkpt>
      <trkpt lat="44.24247" lon="3.74081">
        <ele>973.95</ele>
        <time>2022-08-08T14:25:27Z</time>
      </trkpt>
      <trkpt lat="44.24246" lon="3.74096">
        <ele>973.47</ele>
        <time>2022-08-08T14:25:39Z</time>
      </trkpt>
      <trkpt lat="44.24246" lon="3.74115">
        <ele>970.59</ele>
        <time>2022-08-08T14:25:52Z</time>
      </trkpt>
      <trkpt lat="44.24249" lon="3.74136">
        <ele>968.67</ele>
        <time>2022-08-08T14:26:06Z</time>
      </trkpt>
      <trkpt lat="44.24247" lon="3.74158">
        <ele>968.67</ele>
        <time>2022-08-08T14:26:22Z</time>
      </trkpt>
      <trkpt lat="44.24242" lon="3.74182">
        <ele>970.11</ele>
        <time>2022-08-08T14:26:38Z</time>
      </trkpt>
      <trkpt lat="44.24235" lon="3.74199">
        <ele>971.55</ele>
        <time>2022-08-08T14:26:53Z</time>
      </trkpt>
      <trkpt lat="44.2423" lon="3.74218">
        <ele>972.51</ele>
        <time>2022-08-08T14:27:08Z</time>
      </trkpt>
      <trkpt lat="44.24231" lon="3.74236">
        <ele>975.39</ele>
        <time>2022-08-08T14:27:20Z</time>
      </trkpt>
      <trkpt lat="44.24239" lon="3.74251">
        <ele>975.88</ele>
        <time>2022-08-08T14:27:36Z</time>
      </trkpt>
      <trkpt lat="44.24248" lon="3.74263">
        <ele>975.39</ele>
        <time>2022-08-08T14:27:50Z</time>
      </trkpt>
      <trkpt lat="44.24249" lon="3.74277">
        <ele>977.32</ele>
        <time>2022-08-08T14:28:01Z</time>
      </trkpt>
      <trkpt lat="44.2424" lon="3.74294">
        <ele>979.72</ele>
        <time>2022-08-08T14:28:17Z</time>
      </trkpt>
      <trkpt lat="44.24234" lon="3.74312">
        <ele>980.2</ele>
        <time>2022-08-08T14:28:33Z</time>
      </trkpt>
      <trkpt lat="44.2423" lon="3.7432">
        <ele>981.16</ele>
        <time>2022-08-08T14:28:41Z</time>
      </trkpt>
      <trkpt lat="44.24222" lon="3.7434">
        <ele>982.12</ele>
        <time>2022-08-08T14:28:57Z</time>
      </trkpt>
      <trkpt lat="44.24213" lon="3.74352">
        <ele>984.05</ele>
        <time>2022-08-08T14:29:11Z</time>
      </trkpt>
      <trkpt lat="44.24206" lon="3.74369">
        <ele>985.01</ele>
        <time>2022-08-08T14:29:28Z</time>
      </trkpt>
      <trkpt lat="44.24201" lon="3.74384">
        <ele>985.49</ele>
        <time>2022-08-08T14:29:42Z</time>
      </trkpt>
      <trkpt lat="44.24199" lon="3.74406">
        <ele>986.93</ele>
        <time>2022-08-08T14:29:58Z</time>
      </trkpt>
      <trkpt lat="44.24205" lon="3.74423">
        <ele>986.93</ele>
        <time>2022-08-08T14:30:11Z</time>
      </trkpt>
      <trkpt lat="44.24206" lon="3.74427">
        <ele>986.93</ele>
        <time>2022-08-08T14:30:15Z</time>
      </trkpt>
      <trkpt lat="44.2421" lon="3.74441">
        <ele>988.85</ele>
        <time>2022-08-08T14:30:26Z</time>
      </trkpt>
      <trkpt lat="44.24223" lon="3.74461">
        <ele>990.3</ele>
        <time>2022-08-08T14:30:44Z</time>
      </trkpt>
      <trkpt lat="44.24226" lon="3.74468">
        <ele>991.26</ele>
        <time>2022-08-08T14:30:50Z</time>
      </trkpt>
      <trkpt lat="44.24237" lon="3.74488">
        <ele>991.74</ele>
        <time>2022-08-08T14:31:07Z</time>
      </trkpt>
      <trkpt lat="44.24239" lon="3.74496">
        <ele>991.74</ele>
        <time>2022-08-08T14:31:13Z</time>
      </trkpt>
      <trkpt lat="44.24236" lon="3.74507">
        <ele>994.14</ele>
        <time>2022-08-08T14:31:21Z</time>
      </trkpt>
      <trkpt lat="44.24231" lon="3.74525">
        <ele>995.1</ele>
        <time>2022-08-08T14:31:35Z</time>
      </trkpt>
      <trkpt lat="44.2423" lon="3.74528">
        <ele>995.1</ele>
        <time>2022-08-08T14:31:38Z</time>
      </trkpt>
      <trkpt lat="44.24223" lon="3.74544">
        <ele>995.1</ele>
        <time>2022-08-08T14:31:52Z</time>
      </trkpt>
      <trkpt lat="44.2422" lon="3.74567">
        <ele>998.47</ele>
        <time>2022-08-08T14:32:09Z</time>
      </trkpt>
      <trkpt lat="44.24215" lon="3.74584">
        <ele>1001.35</ele>
        <time>2022-08-08T14:32:22Z</time>
      </trkpt>
      <trkpt lat="44.2421" lon="3.74607">
        <ele>1003.75</ele>
        <time>2022-08-08T14:32:38Z</time>
      </trkpt>
      <trkpt lat="44.24209" lon="3.74626">
        <ele>1003.27</ele>
        <time>2022-08-08T14:32:51Z</time>
      </trkpt>
      <trkpt lat="44.24208" lon="3.7463">
        <ele>1003.27</ele>
        <time>2022-08-08T14:32:54Z</time>
      </trkpt>
      <trkpt lat="44.24207" lon="3.74633">
        <ele>1002.79</ele>
        <time>2022-08-08T14:32:56Z</time>
      </trkpt>
      <trkpt lat="44.24207" lon="3.74636">
        <ele>1002.31</ele>
        <time>2022-08-08T14:32:58Z</time>
      </trkpt>
      <trkpt lat="44.24203" lon="3.74658">
        <ele>1004.72</ele>
        <time>2022-08-08T14:33:13Z</time>
      </trkpt>
      <trkpt lat="44.24198" lon="3.74676">
        <ele>1004.72</ele>
        <time>2022-08-08T14:33:27Z</time>
      </trkpt>
      <trkpt lat="44.24196" lon="3.74679">
        <ele>1009.04</ele>
        <time>2022-08-08T14:33:40Z</time>
      </trkpt>
      <trkpt lat="44.24195" lon="3.7468">
        <ele>1007.12</ele>
        <time>2022-08-08T14:33:54Z</time>
      </trkpt>
      <trkpt lat="44.24192" lon="3.74687">
        <ele>1006.64</ele>
        <time>2022-08-08T14:34:12Z</time>
      </trkpt>
      <trkpt lat="44.24186" lon="3.74701">
        <ele>1008.56</ele>
        <time>2022-08-08T14:34:25Z</time>
      </trkpt>
      <trkpt lat="44.24182" lon="3.74703">
        <ele>1008.08</ele>
        <time>2022-08-08T14:34:37Z</time>
      </trkpt>
      <trkpt lat="44.24182" lon="3.747">
        <ele>1009.52</ele>
        <time>2022-08-08T14:34:50Z</time>
      </trkpt>
      <trkpt lat="44.24183" lon="3.74698">
        <ele>1012.41</ele>
        <time>2022-08-08T14:35:07Z</time>
      </trkpt>
      <trkpt lat="44.24184" lon="3.74706">
        <ele>1009.52</ele>
        <time>2022-08-08T14:35:30Z</time>
      </trkpt>
      <trkpt lat="44.24182" lon="3.74709">
        <ele>1009.52</ele>
        <time>2022-08-08T14:35:33Z</time>
      </trkpt>
      <trkpt lat="44.24176" lon="3.74727">
        <ele>1010.96</ele>
        <time>2022-08-08T14:35:47Z</time>
      </trkpt>
      <trkpt lat="44.24173" lon="3.74741">
        <ele>1011.44</ele>
        <time>2022-08-08T14:36:02Z</time>
      </trkpt>
      <trkpt lat="44.24171" lon="3.74735">
        <ele>1011.44</ele>
        <time>2022-08-08T14:36:17Z</time>
      </trkpt>
      <trkpt lat="44.24164" lon="3.74739">
        <ele>1010</ele>
        <time>2022-08-08T14:36:30Z</time>
      </trkpt>
      <trkpt lat="44.24155" lon="3.74738">
        <ele>1007.6</ele>
        <time>2022-08-08T14:36:44Z</time>
      </trkpt>
      <trkpt lat="44.24151" lon="3.74736">
        <ele>1006.16</ele>
        <time>2022-08-08T14:36:50Z</time>
      </trkpt>
      <trkpt lat="44.24144" lon="3.74733">
        <ele>1004.72</ele>
        <time>2022-08-08T14:36:58Z</time>
      </trkpt>
      <trkpt lat="44.24134" lon="3.74733">
        <ele>1002.31</ele>
        <time>2022-08-08T14:37:10Z</time>
      </trkpt>
      <trkpt lat="44.24125" lon="3.74726">
        <ele>1000.39</ele>
        <time>2022-08-08T14:37:22Z</time>
      </trkpt>
      <trkpt lat="44.24113" lon="3.74732">
        <ele>997.99</ele>
        <time>2022-08-08T14:37:36Z</time>
      </trkpt>
      <trkpt lat="44.24107" lon="3.74734">
        <ele>994.14</ele>
        <time>2022-08-08T14:37:52Z</time>
      </trkpt>
      <trkpt lat="44.24107" lon="3.74734">
        <ele>994.14</ele>
        <time>2022-08-08T14:38:17Z</time>
      </trkpt>
      <trkpt lat="44.24106" lon="3.74734">
        <ele>995.58</ele>
        <time>2022-08-08T14:38:34Z</time>
      </trkpt>
      <trkpt lat="44.24107" lon="3.74734">
        <ele>996.06</ele>
        <time>2022-08-08T14:38:52Z</time>
      </trkpt>
      <trkpt lat="44.24113" lon="3.74734">
        <ele>994.62</ele>
        <time>2022-08-08T14:39:14Z</time>
      </trkpt>
      <trkpt lat="44.24115" lon="3.74736">
        <ele>995.1</ele>
        <time>2022-08-08T14:39:30Z</time>
      </trkpt>
      <trkpt lat="44.24119" lon="3.7474">
        <ele>995.58</ele>
        <time>2022-08-08T14:39:42Z</time>
      </trkpt>
      <trkpt lat="44.24121" lon="3.74743">
        <ele>997.02</ele>
        <time>2022-08-08T14:39:54Z</time>
      </trkpt>
      <trkpt lat="44.24121" lon="3.74742">
        <ele>998.47</ele>
        <time>2022-08-08T14:40:17Z</time>
      </trkpt>
      <trkpt lat="44.24123" lon="3.7474">
        <ele>997.99</ele>
        <time>2022-08-08T14:40:39Z</time>
      </trkpt>
      <trkpt lat="44.24129" lon="3.74737">
        <ele>997.51</ele>
        <time>2022-08-08T14:40:54Z</time>
      </trkpt>
      <trkpt lat="44.24118" lon="3.74737">
        <ele>996.54</ele>
        <time>2022-08-08T14:41:06Z</time>
      </trkpt>
      <trkpt lat="44.24121" lon="3.74739">
        <ele>997.02</ele>
        <time>2022-08-08T14:41:15Z</time>
      </trkpt>
      <trkpt lat="44.24129" lon="3.74743">
        <ele>996.54</ele>
        <time>2022-08-08T14:41:28Z</time>
      </trkpt>
      <trkpt lat="44.24133" lon="3.74739">
        <ele>996.06</ele>
        <time>2022-08-08T14:41:46Z</time>
      </trkpt>
      <trkpt lat="44.24134" lon="3.74738">
        <ele>997.99</ele>
        <time>2022-08-08T14:41:58Z</time>
      </trkpt>
      <trkpt lat="44.24141" lon="3.74736">
        <ele>997.51</ele>
        <time>2022-08-08T14:42:10Z</time>
      </trkpt>
      <trkpt lat="44.24152" lon="3.74738">
        <ele>997.02</ele>
        <time>2022-08-08T14:42:26Z</time>
      </trkpt>
      <trkpt lat="44.2416" lon="3.74744">
        <ele>1000.39</ele>
        <time>2022-08-08T14:42:40Z</time>
      </trkpt>
      <trkpt lat="44.24171" lon="3.74743">
        <ele>1003.27</ele>
        <time>2022-08-08T14:42:56Z</time>
      </trkpt>
      <trkpt lat="44.24176" lon="3.74743">
        <ele>1005.2</ele>
        <time>2022-08-08T14:43:11Z</time>
      </trkpt>
      <trkpt lat="44.24173" lon="3.74741">
        <ele>1009.52</ele>
        <time>2022-08-08T14:43:28Z</time>
      </trkpt>
      <trkpt lat="44.24173" lon="3.74741">
        <ele>1010.48</ele>
        <time>2022-08-08T14:43:33Z</time>
      </trkpt>
      <trkpt lat="44.24174" lon="3.74762">
        <ele>1012.41</ele>
        <time>2022-08-08T14:43:48Z</time>
      </trkpt>
      <trkpt lat="44.24176" lon="3.74779">
        <ele>1012.89</ele>
        <time>2022-08-08T14:43:59Z</time>
      </trkpt>
      <trkpt lat="44.24176" lon="3.7478">
        <ele>1012.89</ele>
        <time>2022-08-08T14:44:00Z</time>
      </trkpt>
      <trkpt lat="44.24181" lon="3.74799">
        <ele>1012.89</ele>
        <time>2022-08-08T14:44:13Z</time>
      </trkpt>
      <trkpt lat="44.24182" lon="3.74802">
        <ele>1013.37</ele>
        <time>2022-08-08T14:44:15Z</time>
      </trkpt>
      <trkpt lat="44.24191" lon="3.74819">
        <ele>1014.81</ele>
        <time>2022-08-08T14:44:30Z</time>
      </trkpt>
      <trkpt lat="44.24203" lon="3.74833">
        <ele>1014.33</ele>
        <time>2022-08-08T14:44:44Z</time>
      </trkpt>
      <trkpt lat="44.24208" lon="3.74839">
        <ele>1014.33</ele>
        <time>2022-08-08T14:45:00Z</time>
      </trkpt>
      <trkpt lat="44.24218" lon="3.74846">
        <ele>1013.85</ele>
        <time>2022-08-08T14:45:15Z</time>
      </trkpt>
      <trkpt lat="44.24229" lon="3.74856">
        <ele>1015.29</ele>
        <time>2022-08-08T14:45:29Z</time>
      </trkpt>
      <trkpt lat="44.24237" lon="3.74873">
        <ele>1019.62</ele>
        <time>2022-08-08T14:45:41Z</time>
      </trkpt>
      <trkpt lat="44.24252" lon="3.7489">
        <ele>1019.62</ele>
        <time>2022-08-08T14:45:57Z</time>
      </trkpt>
      <trkpt lat="44.24255" lon="3.74892">
        <ele>1018.65</ele>
        <time>2022-08-08T14:45:59Z</time>
      </trkpt>
      <trkpt lat="44.24263" lon="3.74908">
        <ele>1017.69</ele>
        <time>2022-08-08T14:46:10Z</time>
      </trkpt>
      <trkpt lat="44.24264" lon="3.74913">
        <ele>1017.69</ele>
        <time>2022-08-08T14:46:14Z</time>
      </trkpt>
      <trkpt lat="44.24268" lon="3.74933">
        <ele>1016.73</ele>
        <time>2022-08-08T14:46:28Z</time>
      </trkpt>
      <trkpt lat="44.24269" lon="3.74947">
        <ele>1014.81</ele>
        <time>2022-08-08T14:46:38Z</time>
      </trkpt>
      <trkpt lat="44.24269" lon="3.74956">
        <ele>1013.85</ele>
        <time>2022-08-08T14:46:50Z</time>
      </trkpt>
      <trkpt lat="44.24267" lon="3.74954">
        <ele>1011.93</ele>
        <time>2022-08-08T14:47:09Z</time>
      </trkpt>
      <trkpt lat="44.24264" lon="3.74954">
        <ele>1016.73</ele>
        <time>2022-08-08T14:47:37Z</time>
      </trkpt>
      <trkpt lat="44.24264" lon="3.74959">
        <ele>1016.25</ele>
        <time>2022-08-08T14:48:08Z</time>
      </trkpt>
      <trkpt lat="44.24258" lon="3.74959">
        <ele>1024.9</ele>
        <time>2022-08-08T14:48:44Z</time>
      </trkpt>
      <trkpt lat="44.24257" lon="3.74959">
        <ele>1025.38</ele>
        <time>2022-08-08T14:48:46Z</time>
      </trkpt>
      <trkpt lat="44.24253" lon="3.74962">
        <ele>1025.38</ele>
        <time>2022-08-08T14:48:50Z</time>
      </trkpt>
      <trkpt lat="44.24251" lon="3.74965">
        <ele>1025.38</ele>
        <time>2022-08-08T14:48:53Z</time>
      </trkpt>
      <trkpt lat="44.24255" lon="3.74986">
        <ele>1019.62</ele>
        <time>2022-08-08T14:49:08Z</time>
      </trkpt>
      <trkpt lat="44.24263" lon="3.75004">
        <ele>1013.85</ele>
        <time>2022-08-08T14:49:22Z</time>
      </trkpt>
      <trkpt lat="44.24275" lon="3.75024">
        <ele>1007.6</ele>
        <time>2022-08-08T14:49:38Z</time>
      </trkpt>
      <trkpt lat="44.24277" lon="3.75045">
        <ele>1006.64</ele>
        <time>2022-08-08T14:49:51Z</time>
      </trkpt>
      <trkpt lat="44.24278" lon="3.75068">
        <ele>1003.27</ele>
        <time>2022-08-08T14:50:05Z</time>
      </trkpt>
      <trkpt lat="44.24283" lon="3.75092">
        <ele>995.58</ele>
        <time>2022-08-08T14:50:20Z</time>
      </trkpt>
      <trkpt lat="44.24287" lon="3.75118">
        <ele>992.22</ele>
        <time>2022-08-08T14:50:35Z</time>
      </trkpt>
      <trkpt lat="44.24289" lon="3.75144">
        <ele>989.81</ele>
        <time>2022-08-08T14:50:53Z</time>
      </trkpt>
      <trkpt lat="44.24289" lon="3.75165">
        <ele>987.41</ele>
        <time>2022-08-08T14:51:08Z</time>
      </trkpt>
      <trkpt lat="44.24279" lon="3.75185">
        <ele>997.99</ele>
        <time>2022-08-08T14:51:22Z</time>
      </trkpt>
      <trkpt lat="44.24263" lon="3.752">
        <ele>1006.16</ele>
        <time>2022-08-08T14:51:38Z</time>
      </trkpt>
      <trkpt lat="44.24247" lon="3.75226">
        <ele>1007.12</ele>
        <time>2022-08-08T14:51:55Z</time>
      </trkpt>
      <trkpt lat="44.24238" lon="3.75246">
        <ele>1006.64</ele>
        <time>2022-08-08T14:52:10Z</time>
      </trkpt>
      <trkpt lat="44.24229" lon="3.75261">
        <ele>1007.6</ele>
        <time>2022-08-08T14:52:24Z</time>
      </trkpt>
      <trkpt lat="44.24212" lon="3.75274">
        <ele>1010.96</ele>
        <time>2022-08-08T14:52:40Z</time>
      </trkpt>
      <trkpt lat="44.24201" lon="3.75295">
        <ele>1008.56</ele>
        <time>2022-08-08T14:52:56Z</time>
      </trkpt>
      <trkpt lat="44.24199" lon="3.753">
        <ele>1008.08</ele>
        <time>2022-08-08T14:52:59Z</time>
      </trkpt>
      <trkpt lat="44.24183" lon="3.75318">
        <ele>1004.72</ele>
        <time>2022-08-08T14:53:15Z</time>
      </trkpt>
      <trkpt lat="44.24182" lon="3.7532">
        <ele>1002.79</ele>
        <time>2022-08-08T14:53:24Z</time>
      </trkpt>
      <trkpt lat="44.24167" lon="3.75331">
        <ele>1000.39</ele>
        <time>2022-08-08T14:53:39Z</time>
      </trkpt>
      <trkpt lat="44.24159" lon="3.75335">
        <ele>999.91</ele>
        <time>2022-08-08T14:53:54Z</time>
      </trkpt>
      <trkpt lat="44.24155" lon="3.75341">
        <ele>998.95</ele>
        <time>2022-08-08T14:54:14Z</time>
      </trkpt>
      <trkpt lat="44.24146" lon="3.75354">
        <ele>998.95</ele>
        <time>2022-08-08T14:54:26Z</time>
      </trkpt>
      <trkpt lat="44.2414" lon="3.75361">
        <ele>999.91</ele>
        <time>2022-08-08T14:54:33Z</time>
      </trkpt>
      <trkpt lat="44.24138" lon="3.75364">
        <ele>1000.39</ele>
        <time>2022-08-08T14:54:36Z</time>
      </trkpt>
      <trkpt lat="44.24132" lon="3.75369">
        <ele>1000.39</ele>
        <time>2022-08-08T14:54:42Z</time>
      </trkpt>
      <trkpt lat="44.24122" lon="3.75384">
        <ele>997.51</ele>
        <time>2022-08-08T14:54:55Z</time>
      </trkpt>
      <trkpt lat="44.24117" lon="3.75396">
        <ele>996.06</ele>
        <time>2022-08-08T14:55:02Z</time>
      </trkpt>
      <trkpt lat="44.24114" lon="3.75405">
        <ele>994.62</ele>
        <time>2022-08-08T14:55:08Z</time>
      </trkpt>
      <trkpt lat="44.24112" lon="3.75414">
        <ele>993.18</ele>
        <time>2022-08-08T14:55:14Z</time>
      </trkpt>
      <trkpt lat="44.24106" lon="3.75424">
        <ele>993.18</ele>
        <time>2022-08-08T14:55:21Z</time>
      </trkpt>
      <trkpt lat="44.24099" lon="3.75442">
        <ele>994.62</ele>
        <time>2022-08-08T14:55:34Z</time>
      </trkpt>
      <trkpt lat="44.24097" lon="3.75451">
        <ele>994.14</ele>
        <time>2022-08-08T14:55:41Z</time>
      </trkpt>
      <trkpt lat="44.24089" lon="3.75469">
        <ele>995.58</ele>
        <time>2022-08-08T14:55:55Z</time>
      </trkpt>
      <trkpt lat="44.24079" lon="3.75476">
        <ele>997.99</ele>
        <time>2022-08-08T14:56:06Z</time>
      </trkpt>
      <trkpt lat="44.24074" lon="3.7548">
        <ele>997.51</ele>
        <time>2022-08-08T14:56:15Z</time>
      </trkpt>
      <trkpt lat="44.24066" lon="3.75496">
        <ele>994.14</ele>
        <time>2022-08-08T14:56:31Z</time>
      </trkpt>
      <trkpt lat="44.24056" lon="3.75505">
        <ele>991.26</ele>
        <time>2022-08-08T14:56:54Z</time>
      </trkpt>
      <trkpt lat="44.2404" lon="3.75515">
        <ele>990.3</ele>
        <time>2022-08-08T14:57:08Z</time>
      </trkpt>
      <trkpt lat="44.24025" lon="3.75515">
        <ele>990.78</ele>
        <time>2022-08-08T14:57:22Z</time>
      </trkpt>
      <trkpt lat="44.24006" lon="3.75509">
        <ele>989.33</ele>
        <time>2022-08-08T14:57:37Z</time>
      </trkpt>
      <trkpt lat="44.23987" lon="3.75511">
        <ele>989.33</ele>
        <time>2022-08-08T14:57:50Z</time>
      </trkpt>
      <trkpt lat="44.23979" lon="3.75515">
        <ele>989.33</ele>
        <time>2022-08-08T14:57:56Z</time>
      </trkpt>
      <trkpt lat="44.23976" lon="3.75516">
        <ele>989.33</ele>
        <time>2022-08-08T14:57:58Z</time>
      </trkpt>
      <trkpt lat="44.2397" lon="3.75516">
        <ele>988.85</ele>
        <time>2022-08-08T14:58:02Z</time>
      </trkpt>
      <trkpt lat="44.23948" lon="3.75518">
        <ele>988.37</ele>
        <time>2022-08-08T14:58:19Z</time>
      </trkpt>
      <trkpt lat="44.23928" lon="3.75522">
        <ele>987.89</ele>
        <time>2022-08-08T14:58:35Z</time>
      </trkpt>
      <trkpt lat="44.23923" lon="3.75522">
        <ele>987.89</ele>
        <time>2022-08-08T14:58:39Z</time>
      </trkpt>
      <trkpt lat="44.23917" lon="3.75523">
        <ele>987.89</ele>
        <time>2022-08-08T14:58:44Z</time>
      </trkpt>
      <trkpt lat="44.23912" lon="3.75523">
        <ele>987.89</ele>
        <time>2022-08-08T14:58:48Z</time>
      </trkpt>
      <trkpt lat="44.23891" lon="3.75524">
        <ele>987.89</ele>
        <time>2022-08-08T14:59:05Z</time>
      </trkpt>
      <trkpt lat="44.23881" lon="3.75524">
        <ele>988.37</ele>
        <time>2022-08-08T14:59:13Z</time>
      </trkpt>
      <trkpt lat="44.23863" lon="3.75531">
        <ele>986.45</ele>
        <time>2022-08-08T14:59:29Z</time>
      </trkpt>
      <trkpt lat="44.23849" lon="3.75536">
        <ele>982.6</ele>
        <time>2022-08-08T14:59:43Z</time>
      </trkpt>
      <trkpt lat="44.23832" lon="3.75542">
        <ele>979.72</ele>
        <time>2022-08-08T14:59:58Z</time>
      </trkpt>
      <trkpt lat="44.23814" lon="3.75547">
        <ele>979.24</ele>
        <time>2022-08-08T15:00:12Z</time>
      </trkpt>
      <trkpt lat="44.23795" lon="3.75552">
        <ele>979.24</ele>
        <time>2022-08-08T15:00:27Z</time>
      </trkpt>
      <trkpt lat="44.23793" lon="3.75554">
        <ele>979.24</ele>
        <time>2022-08-08T15:00:29Z</time>
      </trkpt>
      <trkpt lat="44.23775" lon="3.75556">
        <ele>979.24</ele>
        <time>2022-08-08T15:00:44Z</time>
      </trkpt>
      <trkpt lat="44.2376" lon="3.75556">
        <ele>979.72</ele>
        <time>2022-08-08T15:00:57Z</time>
      </trkpt>
      <trkpt lat="44.2375" lon="3.75558">
        <ele>980.2</ele>
        <time>2022-08-08T15:01:08Z</time>
      </trkpt>
      <trkpt lat="44.23735" lon="3.75564">
        <ele>979.72</ele>
        <time>2022-08-08T15:01:22Z</time>
      </trkpt>
      <trkpt lat="44.23718" lon="3.75573">
        <ele>980.2</ele>
        <time>2022-08-08T15:01:35Z</time>
      </trkpt>
      <trkpt lat="44.23708" lon="3.75579">
        <ele>979.72</ele>
        <time>2022-08-08T15:01:43Z</time>
      </trkpt>
      <trkpt lat="44.2369" lon="3.7559">
        <ele>979.72</ele>
        <time>2022-08-08T15:01:57Z</time>
      </trkpt>
      <trkpt lat="44.23676" lon="3.75591">
        <ele>979.72</ele>
        <time>2022-08-08T15:02:07Z</time>
      </trkpt>
      <trkpt lat="44.23665" lon="3.75595">
        <ele>980.2</ele>
        <time>2022-08-08T15:02:18Z</time>
      </trkpt>
      <trkpt lat="44.23658" lon="3.756">
        <ele>980.68</ele>
        <time>2022-08-08T15:02:24Z</time>
      </trkpt>
      <trkpt lat="44.23636" lon="3.75611">
        <ele>980.2</ele>
        <time>2022-08-08T15:02:41Z</time>
      </trkpt>
      <trkpt lat="44.23621" lon="3.75615">
        <ele>981.16</ele>
        <time>2022-08-08T15:02:56Z</time>
      </trkpt>
      <trkpt lat="44.23609" lon="3.75613">
        <ele>983.57</ele>
        <time>2022-08-08T15:03:07Z</time>
      </trkpt>
      <trkpt lat="44.23597" lon="3.75609">
        <ele>984.53</ele>
        <time>2022-08-08T15:03:16Z</time>
      </trkpt>
      <trkpt lat="44.23578" lon="3.75612">
        <ele>982.6</ele>
        <time>2022-08-08T15:03:31Z</time>
      </trkpt>
      <trkpt lat="44.23566" lon="3.75617">
        <ele>981.64</ele>
        <time>2022-08-08T15:03:44Z</time>
      </trkpt>
      <trkpt lat="44.23551" lon="3.75626">
        <ele>977.32</ele>
        <time>2022-08-08T15:03:58Z</time>
      </trkpt>
      <trkpt lat="44.2354" lon="3.75638">
        <ele>975.88</ele>
        <time>2022-08-08T15:04:12Z</time>
      </trkpt>
      <trkpt lat="44.2353" lon="3.75653">
        <ele>973.95</ele>
        <time>2022-08-08T15:04:25Z</time>
      </trkpt>
      <trkpt lat="44.23522" lon="3.75667">
        <ele>970.59</ele>
        <time>2022-08-08T15:04:38Z</time>
      </trkpt>
      <trkpt lat="44.23514" lon="3.75682">
        <ele>968.67</ele>
        <time>2022-08-08T15:04:52Z</time>
      </trkpt>
      <trkpt lat="44.23503" lon="3.757">
        <ele>967.22</ele>
        <time>2022-08-08T15:05:07Z</time>
      </trkpt>
      <trkpt lat="44.23498" lon="3.75711">
        <ele>967.22</ele>
        <time>2022-08-08T15:05:21Z</time>
      </trkpt>
      <trkpt lat="44.23489" lon="3.75726">
        <ele>968.67</ele>
        <time>2022-08-08T15:05:33Z</time>
      </trkpt>
      <trkpt lat="44.2348" lon="3.75746">
        <ele>970.11</ele>
        <time>2022-08-08T15:05:48Z</time>
      </trkpt>
      <trkpt lat="44.23478" lon="3.75772">
        <ele>969.63</ele>
        <time>2022-08-08T15:06:05Z</time>
      </trkpt>
      <trkpt lat="44.23469" lon="3.75802">
        <ele>972.99</ele>
        <time>2022-08-08T15:06:22Z</time>
      </trkpt>
      <trkpt lat="44.23465" lon="3.75829">
        <ele>971.55</ele>
        <time>2022-08-08T15:06:37Z</time>
      </trkpt>
      <trkpt lat="44.23464" lon="3.75844">
        <ele>970.59</ele>
        <time>2022-08-08T15:06:48Z</time>
      </trkpt>
      <trkpt lat="44.23472" lon="3.75863">
        <ele>970.11</ele>
        <time>2022-08-08T15:07:02Z</time>
      </trkpt>
      <trkpt lat="44.23476" lon="3.75879">
        <ele>970.59</ele>
        <time>2022-08-08T15:07:12Z</time>
      </trkpt>
      <trkpt lat="44.23467" lon="3.75902">
        <ele>972.51</ele>
        <time>2022-08-08T15:07:27Z</time>
      </trkpt>
      <trkpt lat="44.23466" lon="3.75905">
        <ele>972.51</ele>
        <time>2022-08-08T15:07:29Z</time>
      </trkpt>
      <trkpt lat="44.23455" lon="3.75915">
        <ele>972.99</ele>
        <time>2022-08-08T15:07:42Z</time>
      </trkpt>
      <trkpt lat="44.23454" lon="3.75916">
        <ele>972.99</ele>
        <time>2022-08-08T15:07:43Z</time>
      </trkpt>
      <trkpt lat="44.2344" lon="3.75922">
        <ele>973.95</ele>
        <time>2022-08-08T15:07:57Z</time>
      </trkpt>
      <trkpt lat="44.23424" lon="3.75928">
        <ele>975.39</ele>
        <time>2022-08-08T15:08:13Z</time>
      </trkpt>
      <trkpt lat="44.23411" lon="3.75937">
        <ele>975.88</ele>
        <time>2022-08-08T15:08:26Z</time>
      </trkpt>
      <trkpt lat="44.23409" lon="3.75938">
        <ele>975.88</ele>
        <time>2022-08-08T15:08:28Z</time>
      </trkpt>
      <trkpt lat="44.23396" lon="3.75951">
        <ele>976.84</ele>
        <time>2022-08-08T15:08:43Z</time>
      </trkpt>
      <trkpt lat="44.23392" lon="3.75979">
        <ele>971.07</ele>
        <time>2022-08-08T15:08:56Z</time>
      </trkpt>
      <trkpt lat="44.23393" lon="3.76002">
        <ele>966.26</ele>
        <time>2022-08-08T15:09:11Z</time>
      </trkpt>
      <trkpt lat="44.23389" lon="3.76015">
        <ele>966.26</ele>
        <time>2022-08-08T15:09:20Z</time>
      </trkpt>
      <trkpt lat="44.23386" lon="3.76032">
        <ele>969.15</ele>
        <time>2022-08-08T15:09:30Z</time>
      </trkpt>
      <trkpt lat="44.23382" lon="3.76048">
        <ele>970.11</ele>
        <time>2022-08-08T15:09:45Z</time>
      </trkpt>
      <trkpt lat="44.23382" lon="3.76074">
        <ele>970.11</ele>
        <time>2022-08-08T15:10:00Z</time>
      </trkpt>
      <trkpt lat="44.23384" lon="3.76102">
        <ele>969.63</ele>
        <time>2022-08-08T15:10:15Z</time>
      </trkpt>
      <trkpt lat="44.23384" lon="3.76126">
        <ele>972.03</ele>
        <time>2022-08-08T15:10:29Z</time>
      </trkpt>
      <trkpt lat="44.23384" lon="3.76154">
        <ele>975.39</ele>
        <time>2022-08-08T15:10:45Z</time>
      </trkpt>
      <trkpt lat="44.2339" lon="3.76179">
        <ele>972.99</ele>
        <time>2022-08-08T15:11:01Z</time>
      </trkpt>
      <trkpt lat="44.23397" lon="3.762">
        <ele>968.18</ele>
        <time>2022-08-08T15:11:16Z</time>
      </trkpt>
      <trkpt lat="44.23398" lon="3.76218">
        <ele>968.18</ele>
        <time>2022-08-08T15:11:29Z</time>
      </trkpt>
      <trkpt lat="44.23402" lon="3.76239">
        <ele>966.26</ele>
        <time>2022-08-08T15:11:43Z</time>
      </trkpt>
      <trkpt lat="44.23407" lon="3.76257">
        <ele>963.86</ele>
        <time>2022-08-08T15:11:57Z</time>
      </trkpt>
      <trkpt lat="44.23412" lon="3.7628">
        <ele>959.53</ele>
        <time>2022-08-08T15:12:13Z</time>
      </trkpt>
      <trkpt lat="44.23412" lon="3.76283">
        <ele>959.53</ele>
        <time>2022-08-08T15:12:15Z</time>
      </trkpt>
      <trkpt lat="44.23415" lon="3.76313">
        <ele>957.13</ele>
        <time>2022-08-08T15:12:34Z</time>
      </trkpt>
      <trkpt lat="44.23423" lon="3.76329">
        <ele>954.25</ele>
        <time>2022-08-08T15:12:47Z</time>
      </trkpt>
      <trkpt lat="44.23432" lon="3.76347">
        <ele>955.21</ele>
        <time>2022-08-08T15:13:02Z</time>
      </trkpt>
      <trkpt lat="44.23441" lon="3.76363">
        <ele>955.21</ele>
        <time>2022-08-08T15:13:18Z</time>
      </trkpt>
      <trkpt lat="44.23447" lon="3.7638">
        <ele>956.17</ele>
        <time>2022-08-08T15:13:28Z</time>
      </trkpt>
      <trkpt lat="44.23453" lon="3.76407">
        <ele>958.09</ele>
        <time>2022-08-08T15:13:44Z</time>
      </trkpt>
      <trkpt lat="44.23459" lon="3.76424">
        <ele>956.17</ele>
        <time>2022-08-08T15:13:58Z</time>
      </trkpt>
      <trkpt lat="44.23464" lon="3.76443">
        <ele>952.32</ele>
        <time>2022-08-08T15:14:11Z</time>
      </trkpt>
      <trkpt lat="44.23471" lon="3.76464">
        <ele>948.96</ele>
        <time>2022-08-08T15:14:24Z</time>
      </trkpt>
      <trkpt lat="44.23482" lon="3.76486">
        <ele>946.56</ele>
        <time>2022-08-08T15:14:40Z</time>
      </trkpt>
      <trkpt lat="44.2349" lon="3.76508">
        <ele>946.56</ele>
        <time>2022-08-08T15:14:54Z</time>
      </trkpt>
      <trkpt lat="44.23492" lon="3.76535">
        <ele>944.15</ele>
        <time>2022-08-08T15:15:11Z</time>
      </trkpt>
      <trkpt lat="44.23492" lon="3.76557">
        <ele>945.59</ele>
        <time>2022-08-08T15:15:27Z</time>
      </trkpt>
      <trkpt lat="44.23498" lon="3.76572">
        <ele>945.59</ele>
        <time>2022-08-08T15:15:36Z</time>
      </trkpt>
      <trkpt lat="44.23513" lon="3.7658">
        <ele>944.15</ele>
        <time>2022-08-08T15:15:50Z</time>
      </trkpt>
      <trkpt lat="44.23524" lon="3.76589">
        <ele>944.15</ele>
        <time>2022-08-08T15:16:02Z</time>
      </trkpt>
      <trkpt lat="44.23537" lon="3.76595">
        <ele>943.19</ele>
        <time>2022-08-08T15:16:16Z</time>
      </trkpt>
      <trkpt lat="44.2354" lon="3.76607">
        <ele>944.63</ele>
        <time>2022-08-08T15:16:28Z</time>
      </trkpt>
      <trkpt lat="44.2353" lon="3.76602">
        <ele>942.71</ele>
        <time>2022-08-08T15:16:43Z</time>
      </trkpt>
      <trkpt lat="44.2354" lon="3.76607">
        <ele>940.31</ele>
        <time>2022-08-08T15:16:59Z</time>
      </trkpt>
      <trkpt lat="44.23552" lon="3.76606">
        <ele>938.86</ele>
        <time>2022-08-08T15:17:15Z</time>
      </trkpt>
      <trkpt lat="44.2355" lon="3.76604">
        <ele>940.31</ele>
        <time>2022-08-08T15:17:30Z</time>
      </trkpt>
      <trkpt lat="44.23542" lon="3.766">
        <ele>942.71</ele>
        <time>2022-08-08T15:17:50Z</time>
      </trkpt>
      <trkpt lat="44.23531" lon="3.76599">
        <ele>941.75</ele>
        <time>2022-08-08T15:18:04Z</time>
      </trkpt>
      <trkpt lat="44.23519" lon="3.76596">
        <ele>937.9</ele>
        <time>2022-08-08T15:18:20Z</time>
      </trkpt>
      <trkpt lat="44.23522" lon="3.7661">
        <ele>932.14</ele>
        <time>2022-08-08T15:18:33Z</time>
      </trkpt>
      <trkpt lat="44.23528" lon="3.76616">
        <ele>930.69</ele>
        <time>2022-08-08T15:18:38Z</time>
      </trkpt>
      <trkpt lat="44.23539" lon="3.76629">
        <ele>930.21</ele>
        <time>2022-08-08T15:18:52Z</time>
      </trkpt>
      <trkpt lat="44.23551" lon="3.7664">
        <ele>932.14</ele>
        <time>2022-08-08T15:19:04Z</time>
      </trkpt>
      <trkpt lat="44.23557" lon="3.76644">
        <ele>933.1</ele>
        <time>2022-08-08T15:19:11Z</time>
      </trkpt>
      <trkpt lat="44.23572" lon="3.76656">
        <ele>935.02</ele>
        <time>2022-08-08T15:19:26Z</time>
      </trkpt>
      <trkpt lat="44.23584" lon="3.76656">
        <ele>935.5</ele>
        <time>2022-08-08T15:19:39Z</time>
      </trkpt>
      <trkpt lat="44.23596" lon="3.76661">
        <ele>935.98</ele>
        <time>2022-08-08T15:19:51Z</time>
      </trkpt>
      <trkpt lat="44.23606" lon="3.76675">
        <ele>935.5</ele>
        <time>2022-08-08T15:20:04Z</time>
      </trkpt>
      <trkpt lat="44.23606" lon="3.76677">
        <ele>935.5</ele>
        <time>2022-08-08T15:20:05Z</time>
      </trkpt>
      <trkpt lat="44.23608" lon="3.76707">
        <ele>941.75</ele>
        <time>2022-08-08T15:20:20Z</time>
      </trkpt>
      <trkpt lat="44.23604" lon="3.76721">
        <ele>937.9</ele>
        <time>2022-08-08T15:20:36Z</time>
      </trkpt>
      <trkpt lat="44.23603" lon="3.76733">
        <ele>936.94</ele>
        <time>2022-08-08T15:20:47Z</time>
      </trkpt>
      <trkpt lat="44.23596" lon="3.76755">
        <ele>936.46</ele>
        <time>2022-08-08T15:21:02Z</time>
      </trkpt>
      <trkpt lat="44.23594" lon="3.76775">
        <ele>934.54</ele>
        <time>2022-08-08T15:21:16Z</time>
      </trkpt>
      <trkpt lat="44.2359" lon="3.76794">
        <ele>933.58</ele>
        <time>2022-08-08T15:21:29Z</time>
      </trkpt>
      <trkpt lat="44.23588" lon="3.76803">
        <ele>934.06</ele>
        <time>2022-08-08T15:21:34Z</time>
      </trkpt>
      <trkpt lat="44.23584" lon="3.76824">
        <ele>932.62</ele>
        <time>2022-08-08T15:21:48Z</time>
      </trkpt>
      <trkpt lat="44.23581" lon="3.76847">
        <ele>930.21</ele>
        <time>2022-08-08T15:22:02Z</time>
      </trkpt>
      <trkpt lat="44.23582" lon="3.76879">
        <ele>927.33</ele>
        <time>2022-08-08T15:22:19Z</time>
      </trkpt>
      <trkpt lat="44.23582" lon="3.76896">
        <ele>923.96</ele>
        <time>2022-08-08T15:22:33Z</time>
      </trkpt>
      <trkpt lat="44.23584" lon="3.76897">
        <ele>923.96</ele>
        <time>2022-08-08T15:22:52Z</time>
      </trkpt>
      <trkpt lat="44.23586" lon="3.76902">
        <ele>926.37</ele>
        <time>2022-08-08T15:23:20Z</time>
      </trkpt>
    </trkseg>
  </trk>
</gpx>